Date StartTime U_cm/s V_cm/s W_cm/s Ustd_cm/s Vstd_cm/s Wstd_cm/s Uvar_(cm/s)^2 Vvar_(cm/s)^2 Wvar_(cm/s)^2 KE_(m/s)^2 TurbulentKE_(m/s)^2 HorizWindSpeed_cm/s FrictionSpeec_cm/s DragCoef SpeedOfSound_m/s SonicTemperature_C Pressure_mb 
10/18/2014  00:00:00     -154.740       85.231      -30.705       50.914       66.549       33.629     2592.230     4428.819     1130.912        2.015        0.408      176.660       25.014        0.020      338.796       11.691      861.259
10/18/2014  00:01:00      -94.044       34.652      -18.402       42.389       56.589       24.128     1796.847     3202.336      582.156        0.798        0.279      100.225       18.944        0.036      338.786       11.673      861.245
10/18/2014  00:02:00     -129.341      118.443      -33.699       61.588       59.216       30.473     3793.123     3506.584      928.598        2.006        0.411      175.379       26.499        0.023      338.870       11.814      861.252
10/18/2014  00:03:00     -117.825      145.725      -37.200       64.742       65.757       33.226     4191.544     4323.990     1103.950        2.306        0.481      187.399       42.269        0.051      338.830       11.747      861.269
10/18/2014  00:04:00     -160.009       93.888      -12.734       72.769       57.247       43.299     5295.269     3277.169     1874.820        2.251        0.522      185.520       29.915        0.026      338.801       11.698      861.290
10/18/2014  00:05:00     -103.222       58.164       -4.482       53.777       37.405       30.477     2892.006     1399.097      928.869        0.964        0.261      118.482       12.444        0.011      338.705       11.539      861.304
10/18/2014  00:06:00      -55.207       89.911      -16.599       26.972       42.574       27.421      727.478     1812.557      751.906        0.735        0.165      105.508       18.795        0.032      338.753       11.618      861.312
10/18/2014  00:07:00      -75.720       30.223        4.659       67.587       76.274       48.098     4567.976     5817.770     2313.427        0.968        0.635       81.529       45.478        0.311      338.642       11.431      861.323
10/18/2014  00:08:00     -117.227       81.643      -13.140       56.256       59.477       44.473     3164.693     3537.554     1977.814        1.463        0.434      142.855       33.506        0.055      338.695       11.521      861.311
10/18/2014  00:09:00      -94.555      101.084      -17.554       43.291       64.245       31.549     1874.145     4127.371      995.312        1.323        0.350      138.415       37.187        0.072      338.610       11.376      861.296
10/18/2014  00:10:00     -109.409       66.866      -26.115       57.597       83.549       38.980     3317.360     6980.352     1519.465        1.447        0.591      128.225       39.312        0.094      338.619       11.392      861.295
10/18/2014  00:11:00      -83.865       -5.276       -1.839       59.246       31.702       27.109     3510.036     1005.026      734.917        0.616        0.262       84.031       29.338        0.122      338.541       11.262      861.310
10/18/2014  00:12:00      -72.510       37.595       -6.964       47.501       41.865       29.763     2256.331     1752.719      885.849        0.581        0.245       81.677       29.489        0.130      338.572       11.314      861.314
10/18/2014  00:13:00      -74.283       -3.886      -11.731       44.286       55.862       20.646     1961.246     3120.565      426.264        0.559        0.275       74.385       21.935        0.087      338.624       11.403      861.329
10/18/2014  00:14:00      -60.855      -22.152       -1.660       23.674       28.778       15.346      560.459      828.179      235.488        0.291        0.081       64.761       11.403        0.031      338.559       11.293      861.334
10/18/2014  00:15:00      -40.389      -40.370       -3.579       38.698       35.284       17.164     1497.500     1244.950      294.592        0.315        0.152       57.105        4.300        0.006      338.609       11.375      861.359
10/18/2014  00:16:00      -69.394      -52.599       -2.784       57.174       35.042       20.968     3268.887     1227.924      439.642        0.626        0.247       87.075       23.795        0.075      338.610       11.377      861.376
10/18/2014  00:17:00     -120.566      -45.263       -4.762       46.382       31.888       23.186     2151.302     1016.819      537.584        1.016        0.185      128.782       19.498        0.023      338.475       11.152      861.383
10/18/2014  00:18:00      -85.951      -68.042      -10.812       37.222       41.208       17.413     1385.459     1698.077      303.209        0.776        0.169      109.623       15.789        0.021      338.456       11.119      861.395
10/18/2014  00:19:00      -37.797      -27.419        1.546       27.917       21.861       15.241      779.348      477.911      232.281        0.184        0.074       46.695       14.394        0.095      338.431       11.075      861.395
10/18/2014  00:20:00      -34.168      -84.299       -2.539       35.559       30.863       17.697     1264.458      952.514      313.195        0.540        0.127       90.960        5.898        0.004      338.460       11.126      861.400
10/18/2014  00:21:00      -27.782      -43.234        1.379       36.243       30.568       17.705     1313.548      934.389      313.479        0.260        0.128       51.391       16.427        0.102      338.478       11.157      861.413
10/18/2014  00:22:00       32.544      -36.401        8.972       27.506       23.989       17.026      756.607      575.454      289.901        0.204        0.081       48.827       14.994        0.094      338.376       10.984      861.425
10/18/2014  00:23:00        6.828        2.593        1.116        9.377       10.016       12.280       87.925      100.325      150.808        0.020        0.017        7.304        6.859        0.882      338.308       10.872      861.444
10/18/2014  00:24:00        4.684        8.017        9.600       23.380       37.200       23.859      546.607     1383.850      569.250        0.134        0.125        9.285       28.850        9.654      338.450       11.109      861.443
10/18/2014  00:25:00       38.843       46.490        9.000       24.315       25.298       18.646      591.201      639.965      347.677        0.266        0.079       60.581       18.109        0.089      338.361       10.959      861.448
10/18/2014  00:26:00       36.362       20.503       20.432       18.027       19.449       19.159      324.987      378.266      367.056        0.162        0.054       41.744       12.007        0.083      338.327       10.903      861.456
10/18/2014  00:27:00       42.682       30.982       -7.724       21.876       12.828       13.380      478.540      164.566      179.013        0.183        0.041       52.742       12.514        0.056      338.425       11.068      861.468
10/18/2014  00:28:00       54.288       23.310        0.598       25.126       28.139       25.191      631.339      791.794      634.583        0.277        0.103       59.081       18.282        0.096      338.499       11.192      861.460
10/18/2014  00:29:00       29.738       27.597       14.227        9.773       15.684       16.783       95.511      245.979      281.659        0.124        0.031       40.570        9.789        0.058      338.500       11.194      861.459
10/18/2014  00:30:00       -1.195       10.887        4.797       12.525       14.897       11.818      156.879      221.915      139.669        0.033        0.026       10.952        8.065        0.542      338.432       11.078      861.464
10/18/2014  00:31:00      -23.375       14.713       -9.256       26.515       30.451       11.008      703.036      927.270      121.168        0.130        0.088       27.620       13.356        0.234      338.517       11.222      861.475
10/18/2014  00:32:00      -55.784       12.948       -8.054       20.538       20.975       11.167      421.824      439.941      124.707        0.217        0.049       57.267        8.389        0.021      338.514       11.217      861.477
10/18/2014  00:33:00       -9.202       13.476       -3.073       12.482       12.960        6.805      155.806      167.955       46.304        0.032        0.019       16.319        5.700        0.122      338.483       11.165      861.475
10/18/2014  00:34:00        1.166        2.633        3.752        4.210        6.057        5.858       17.725       36.688       34.320        0.006        0.004        2.880        3.405        1.398      338.425       11.067      861.478
10/18/2014  00:35:00      -40.829       -2.402       -4.414       19.831        8.067        6.063      393.267       65.079       36.760        0.109        0.025       40.899        6.437        0.025      338.433       11.082      861.482
10/18/2014  00:36:00      -28.134        3.484       -1.826       13.863       12.107       11.395      192.173      146.579      129.835        0.064        0.023       28.349        8.678        0.094      338.491       11.178      861.492
10/18/2014  00:37:00      -48.504      -30.612       -7.595       21.075       13.632        8.253      444.146      185.818       68.108        0.202        0.035       57.356        6.550        0.013      338.408       11.039      861.493
10/18/2014  00:38:00      -55.546      -23.808       -6.150       34.559       13.155        9.972     1194.352      173.055       99.437        0.258        0.073       60.433        5.136        0.007      338.374       10.984      861.495
10/18/2014  00:39:00       -9.262      -31.530        4.841       32.211       23.729       19.654     1037.572      563.047      386.280        0.154        0.099       32.862       13.934        0.180      338.297       10.852      861.491
10/18/2014  00:40:00       -9.288      -30.442        8.460       29.687       28.348       14.742      881.324      803.604      217.328        0.149        0.095       31.827       18.844        0.351      338.264       10.797      861.488
10/18/2014  00:41:00      -27.697      -50.385       -2.546       15.148       19.432       11.129      229.458      377.608      123.848        0.202        0.037       57.496        8.341        0.021      338.376       10.986      861.484
10/18/2014  00:42:00      -16.257      -38.856       -2.331       19.864       11.362       15.284      394.585      129.085      233.587        0.127        0.038       42.120       12.321        0.086      338.371       10.976      861.484
10/18/2014  00:43:00       -2.580      -34.961       -8.368       23.606       21.498       14.302      557.231      462.182      204.539        0.126        0.061       35.056       14.238        0.165      338.231       10.741      861.487
10/18/2014  00:44:00      -49.894      -24.408        6.620       31.233       21.087       17.864      975.476      444.642      319.136        0.243        0.087       55.544       13.308        0.057      338.208       10.703      861.500
10/18/2014  00:45:00      -77.589      -63.520        4.935       39.586       30.673       22.954     1567.040      940.841      526.892        0.656        0.152      100.274       22.059        0.048      338.128       10.568      861.505
10/18/2014  00:46:00     -105.033     -107.265       -5.748       41.106       31.729       22.896     1689.711     1006.740      524.207        1.290        0.161      150.126       26.505        0.031      338.133       10.576      861.519
10/18/2014  00:47:00      -88.472      -58.599       -3.410       43.056       29.199       18.159     1853.840      852.590      329.739        0.715        0.152      106.118       15.432        0.021      338.070       10.471      861.529
10/18/2014  00:48:00      -82.106      -39.305       -1.684       29.812       18.595       16.410      888.750      345.787      269.303        0.490        0.075       91.029       11.100        0.015      338.010       10.372      861.544
10/18/2014  00:49:00      -71.487      -36.972       -0.248       24.883       19.317       14.882      619.186      373.165      221.480        0.385        0.061       80.482       10.197        0.016      337.997       10.348      861.558
10/18/2014  00:50:00      -51.452      -30.772        3.420       34.509       22.122       15.707     1190.875      489.390      246.715        0.277        0.096       59.952       14.505        0.059      337.950       10.270      861.567
10/18/2014  00:51:00     -112.044      -25.464       -6.472       39.056       42.285       19.239     1525.383     1788.030      370.124        0.846        0.184      114.901       17.727        0.024      338.009       10.370      861.571
10/18/2014  00:52:00     -139.449      -53.635       -2.857       31.099       29.646       19.351      967.128      878.887      374.468        1.228        0.111      149.408       15.887        0.011      338.070       10.471      861.571
10/18/2014  00:53:00     -101.799      -77.946       -5.727       32.342       17.764       20.083     1045.979      315.562      403.318        0.912        0.088      128.214       10.796        0.007      338.093       10.509      861.556
10/18/2014  00:54:00     -100.090      -35.145       -1.001       30.382       32.254       17.625      923.048     1040.321      310.651        0.676        0.114      106.081       16.724        0.025      338.032       10.408      861.539
10/18/2014  00:55:00     -100.638       -8.460      -11.961       25.218       21.549       14.613      635.972      464.372      213.526        0.583        0.066      100.993        5.381        0.003      337.915       10.212      861.528
10/18/2014  00:56:00      -81.721      -11.010       -6.994       40.432       22.979       16.023     1634.741      528.034      256.744        0.463        0.121       82.459       17.205        0.044      337.954       10.278      861.523
10/18/2014  00:57:00      -18.357       -9.959        3.094       20.845       19.172       12.830      434.528      367.550      164.611        0.071        0.048       20.885       12.555        0.361      337.956       10.281      861.520
10/18/2014  00:58:00      -44.144       39.482      -11.357       18.513       18.805       10.483      342.714      353.646      109.886        0.222        0.040       59.224        9.526        0.026      338.165       10.631      861.530
10/18/2014  00:59:00      -52.197       38.797      -15.368        7.637       13.518        6.721       58.321      182.748       45.179        0.238        0.014       65.036        6.010        0.009      338.359       10.956      861.531
10/18/2014  01:00:00      -46.011       21.607       -9.327        8.550       10.703        7.906       73.108      114.548       62.497        0.146        0.013       50.832        5.335        0.011      338.473       11.149      861.530
10/18/2014  01:01:00      -35.329       15.092       -1.574       12.385       11.741        7.242      153.377      137.842       52.441        0.091        0.017       38.417        5.943        0.024      338.350       10.941      861.539
10/18/2014  01:02:00       -4.830       19.740       -1.318       16.673        9.789       11.611      277.988       95.819      134.816        0.046        0.025       20.322       11.991        0.348      338.344       10.932      861.563
10/18/2014  01:03:00       22.619       59.725       -4.181       16.024       18.445       13.375      256.776      340.220      178.898        0.244        0.039       63.864       10.845        0.029      338.201       10.693      861.587
10/18/2014  01:04:00       29.963       51.549       -4.922        8.154        9.897        6.779       66.488       97.948       45.948        0.189        0.011       59.624        4.197        0.005      338.118       10.552      861.596
10/18/2014  01:05:00       31.811        6.374       -5.410       12.214       18.227        8.238      149.190      332.230       67.862        0.082        0.027       32.444        7.381        0.052      338.047       10.432      861.586
10/18/2014  01:06:00       35.174       32.345        8.015       11.298       16.509       11.345      127.638      272.538      128.707        0.144        0.026       47.785        4.062        0.007      337.925       10.226      861.575
10/18/2014  01:07:00       52.040       44.555        0.021       14.110       17.195       12.180      199.086      295.670      148.346        0.267        0.032       68.508        8.679        0.016      337.851       10.105      861.575
10/18/2014  01:08:00       42.182       30.555       -0.492       13.401       19.024        8.506      179.594      361.917       72.356        0.166        0.031       52.086        6.201        0.014      337.738        9.915      861.576
10/18/2014  01:09:00       25.408       24.358       -0.005       19.672       13.073       13.735      386.991      170.898      188.653        0.099        0.037       35.197        9.724        0.076      337.748        9.930      861.584
10/18/2014  01:10:00       37.919       30.867       -2.072       11.291       11.107        8.435      127.476      123.366       71.148        0.136        0.016       48.894        7.325        0.022      337.831       10.071      861.584
10/18/2014  01:11:00       25.615       32.891       -2.181       20.447       15.322       14.164      418.096      234.752      200.609        0.130        0.043       41.689       11.283        0.073      337.774        9.975      861.586
10/18/2014  01:12:00       47.483       28.009        8.294       19.342       17.071       13.895      374.099      291.409      193.069        0.198        0.043       55.128        9.727        0.031      337.651        9.768      861.578
10/18/2014  01:13:00       23.566       24.013       -5.905       15.165       17.781        9.021      229.965      316.148       81.387        0.090        0.031       33.645        6.661        0.039      337.632        9.737      861.574
10/18/2014  01:14:00      -33.172       12.596       -7.982       24.125       17.231        7.350      582.002      296.891       54.022        0.113        0.047       35.483        8.488        0.057      337.590        9.668      861.573
10/18/2014  01:15:00      -84.060      -13.885      -11.119       18.382       10.897       11.061      337.907      118.734      122.347        0.398        0.029       85.199        9.676        0.013      337.351        9.266      861.581
10/18/2014  01:16:00      -71.249      -10.379      -10.103       17.733       11.936       10.465      314.454      142.476      109.513        0.293        0.028       72.001        7.910        0.012      337.293        9.169      861.592
10/18/2014  01:17:00      -53.782      -25.446       -4.624       16.779       14.509       11.603      281.551      210.512      134.628        0.209        0.031       59.498        9.508        0.026      337.342        9.250      861.602
10/18/2014  01:18:00      -31.880      -30.748       -0.530       15.485       11.673       12.000      239.782      136.254      144.001        0.124        0.026       44.292       11.239        0.064      337.454        9.437      861.612
10/18/2014  01:19:00      -53.575      -37.329       -8.356       13.551        8.724        6.288      183.632       76.102       39.542        0.232        0.015       65.298        3.983        0.004      337.538        9.581      861.622
10/18/2014  01:20:00      -34.693      -34.035       -6.834       31.104        9.727        9.538      967.453       94.607       90.971        0.178        0.058       48.600        9.995        0.042      337.481        9.485      861.629
10/18/2014  01:21:00       -2.456      -18.616       -1.145       13.248        8.752        8.261      175.499       76.599       68.236        0.034        0.016       18.777        7.912        0.178      337.609        9.699      861.642
10/18/2014  01:22:00      -28.727      -18.796        0.498       12.801        9.582        6.012      163.878       91.805       36.146        0.074        0.015       34.330        2.523        0.005      337.645        9.758      861.654
10/18/2014  01:23:00      -14.090       18.784       -3.157       17.153       16.948       11.322      294.240      287.233      128.188        0.064        0.035       23.481        6.357        0.073      337.578        9.646      861.647
10/18/2014  01:24:00       -8.361       -8.919       -9.697       28.654       22.924       10.077      821.046      525.496      101.537        0.085        0.072       12.225        5.263        0.185      337.530        9.565      861.633
10/18/2014  01:25:00       12.671      -37.664        6.609       14.798       34.837       15.557      218.984     1213.632      242.013        0.165        0.084       39.738        8.333        0.044      337.765        9.960      861.600
10/18/2014  01:26:00      -23.677      -37.010        3.443       22.396       47.937       14.139      501.572     2297.938      199.922        0.247        0.150       43.936        9.238        0.044      337.820       10.052      861.589
10/18/2014  01:27:00      -25.594        9.174       -3.241       16.711       21.334       10.380      279.260      455.159      107.739        0.080        0.042       27.188        8.302        0.093      337.503        9.520      861.584
10/18/2014  01:28:00      -19.821      -14.156       -0.937        9.455        8.167        5.137       89.406       66.706       26.389        0.039        0.009       24.357        2.482        0.010      337.497        9.509      861.577
10/18/2014  01:29:00        7.693      -51.877       -4.957       16.848       23.474       13.823      283.861      551.042      191.089        0.190        0.051       52.444       11.522        0.048      337.710        9.868      861.560
10/18/2014  01:30:00      -15.876       -9.327       -3.295       23.250       18.099       21.382      540.541      327.567      457.183        0.084        0.066       18.413       19.740        1.149      337.886       10.163      861.570
10/18/2014  01:31:00      -44.087       -8.230        5.525       31.623       29.716       17.214     1000.004      883.070      296.330        0.211        0.109       44.849       18.397        0.168      337.697        9.847      861.585
10/18/2014  01:32:00      -32.566      -32.022        7.005       38.102       31.249       19.424     1451.754      976.491      377.305        0.247        0.140       45.672       20.016        0.192      337.565        9.624      861.604
10/18/2014  01:33:00      -88.541      -63.129       -4.005       31.572       35.645       19.376      996.772     1270.576      375.425        0.724        0.132      108.742       17.426        0.026      337.550        9.599      861.620
10/18/2014  01:34:00      -81.228      -43.848       -4.260       21.394       22.102       16.135      457.700      488.477      260.332        0.487        0.060       92.307        7.147        0.006      337.522        9.552      861.629
10/18/2014  01:35:00      -56.791      -52.060       -5.419       32.396       27.730       20.292     1049.510      768.941      411.755        0.410        0.112       77.042       19.242        0.062      337.468        9.462      861.631
10/18/2014  01:36:00      -15.211      -25.390       -4.836       32.271       15.099       16.535     1041.422      227.975      273.391        0.122        0.077       29.598       19.427        0.431      337.817       10.046      861.642
10/18/2014  01:37:00      -21.395      -26.692        2.421       32.084       18.287       17.309     1029.378      334.402      299.585        0.142        0.083       34.208       17.792        0.271      337.697        9.847      861.644
10/18/2014  01:38:00      -59.503      -36.896       -7.047       28.011       17.044       11.496      784.597      290.492      132.168        0.308        0.060       70.014        8.985        0.016      337.454        9.438      861.645
10/18/2014  01:39:00      -83.475      -34.248       -5.152       23.067       17.301       13.099      532.069      299.332      171.588        0.459        0.050       90.228       12.286        0.019      337.392        9.334      861.637
10/18/2014  01:40:00      -36.646      -46.019       -2.112       19.977       14.268       10.552      399.067      203.585      111.350        0.209        0.036       58.827       11.789        0.040      337.498        9.512      861.627
10/18/2014  01:41:00       -6.741      -32.353        0.433       10.947       17.128        9.384      119.840      293.361       88.063        0.080        0.025       33.048        9.806        0.088      337.636        9.743      861.622
10/18/2014  01:42:00      -75.144      -29.178       -1.865       32.745       30.630       14.661     1072.214      938.199      214.954        0.436        0.111       80.610       12.309        0.023      337.476        9.475      861.623
10/18/2014  01:43:00      -65.810        4.987       -4.769       24.649       14.559       13.468      607.590      211.972      181.387        0.269        0.050       65.998       11.158        0.029      337.188        8.994      861.627
10/18/2014  01:44:00      -19.811      -12.463       -0.947       21.302       18.086       14.110      453.769      327.105      199.094        0.076        0.049       23.405       11.814        0.255      337.491        9.501      861.631
10/18/2014  01:45:00       -5.362      -41.665       -1.947       12.969       14.870       12.081      168.189      221.103      145.952        0.115        0.027       42.008        7.889        0.035      337.737        9.914      861.629
10/18/2014  01:46:00      -27.744      -12.272       -2.846       28.934       21.843       13.762      837.155      477.098      189.406        0.122        0.075       30.337       16.189        0.285      337.685        9.824      861.638
10/18/2014  01:47:00      -90.006      -12.255       -5.936       25.148       26.381       15.283      632.403      695.945      233.561        0.492        0.078       90.837       10.694        0.014      337.548        9.595      861.655
10/18/2014  01:48:00      -79.371       14.142       -7.309       27.048       24.003       15.456      731.582      576.167      238.873        0.405        0.077       80.621        9.785        0.015      337.150        8.928      861.657
10/18/2014  01:49:00      -42.280       12.325       -9.361       15.000       13.085        8.329      224.993      171.212       69.367        0.125        0.023       44.040        5.401        0.015      337.007        8.689      861.663
10/18/2014  01:50:00      -32.279       -9.751       -4.610       14.067       13.018       10.093      197.869      169.461      101.873        0.081        0.023       33.719        8.895        0.070      336.982        8.650      861.661
10/18/2014  01:51:00      -18.963       -1.145       -2.514       10.179        6.651        6.871      103.610       44.234       47.213        0.028        0.010       18.998        5.058        0.071      336.898        8.508      861.667
10/18/2014  01:52:00       -4.620       26.626        0.597       12.176       26.245       12.597      148.248      688.804      158.687        0.086        0.050       27.024       14.405        0.284      336.906        8.521      861.683
10/18/2014  01:53:00      -50.004       52.553      -11.466       24.518       17.674       12.226      601.120      312.357      149.482        0.323        0.053       72.541        9.052        0.016      336.808        8.359      861.704
10/18/2014  01:54:00      -82.685       20.342      -12.219       27.672       28.293       14.988      765.719      800.506      224.631        0.460        0.090       85.150       11.325        0.018      336.771        8.298      861.712
10/18/2014  01:55:00      -85.932        3.478       -9.974       29.269       21.074       15.845      856.687      444.127      251.057        0.452        0.078       86.002       14.159        0.027      336.819        8.378      861.728
10/18/2014  01:56:00      -79.067      -30.872       -7.184       26.050       28.383       14.077      678.602      805.584      198.155        0.447        0.084       84.880        8.764        0.011      336.816        8.371      861.742
10/18/2014  01:57:00      -39.359      -19.224       -2.184       35.580       19.449       14.956     1265.906      378.278      223.696        0.190        0.093       43.803       17.968        0.168      336.802        8.350      861.777
10/18/2014  01:58:00     -102.412      -51.336      -13.466       21.498       18.246       12.269      462.181      332.927      150.539        0.713        0.047      114.558        9.066        0.006      336.825        8.387      861.806
10/18/2014  01:59:00      -95.020      -79.037       -7.291       56.860       43.350       23.077     3233.032     1879.186      532.551        1.049        0.282      123.594       21.197        0.029      336.981        8.646      861.819
10/18/2014  02:00:00     -119.672      -67.040       -7.143       31.894       20.575       18.557     1017.221      423.314      344.345        1.033        0.089      137.171       11.152        0.007      336.995        8.670      861.827
10/18/2014  02:01:00     -107.156      -58.711       -5.693       36.723       30.297       21.822     1348.565      917.881      476.197        0.885        0.137      122.186       22.884        0.035      337.057        8.774      861.831
10/18/2014  02:02:00     -109.653      -44.946       -2.445       24.784       19.766       14.471      614.239      390.713      209.403        0.763        0.061      118.507       10.046        0.007      337.070        8.795      861.834
10/18/2014  02:03:00      -87.054      -37.457       -7.697       28.069       19.728       13.149      787.852      389.178      172.889        0.520        0.067       94.771        7.470        0.006      337.048        8.759      861.830
10/18/2014  02:04:00      -98.808      -36.524       -7.989       17.399       18.781       10.516      302.741      352.709      110.593        0.596        0.038      105.343        8.458        0.006      337.058        8.774      861.843
10/18/2014  02:05:00      -98.750      -42.411       -4.920       23.581       23.092       15.834      556.083      533.234      250.725        0.646        0.067      107.472        9.163        0.007      337.087        8.823      861.867
10/18/2014  02:06:00      -95.698      -29.916       -4.354       23.335       18.438       13.193      544.510      339.965      174.053        0.557        0.053      100.265       12.271        0.015      337.126        8.890      861.888
10/18/2014  02:07:00     -109.090      -31.541       -9.164       22.369       20.593       15.866      500.384      424.063      251.728        0.708        0.059      113.558       13.180        0.013      337.033        8.734      861.900
10/18/2014  02:08:00      -97.376      -30.081       -3.102       38.923       24.845       18.800     1515.004      617.260      353.442        0.644        0.124      101.916       19.272        0.036      336.935        8.569      861.921
10/18/2014  02:09:00     -116.455      -28.681       -6.850       31.245       22.316       14.876      976.249      498.019      221.301        0.806        0.085      119.935       14.553        0.015      336.873        8.465      861.912
10/18/2014  02:10:00     -118.762      -35.530       -3.492       27.365       24.949       18.117      748.838      622.428      328.238        0.854        0.085      123.962       16.450        0.018      336.897        8.506      861.904
10/18/2014  02:11:00     -139.479      -43.690      -10.861       15.080       21.949        9.890      227.412      481.752       97.803        1.114        0.040      146.161        6.021        0.002      336.899        8.509      861.908
10/18/2014  02:12:00     -110.514      -45.004      -13.373       40.673       28.025       20.542     1654.284      785.414      421.956        0.864        0.143      119.326       15.632        0.017      336.949        8.592      861.905
10/18/2014  02:13:00     -130.913      -53.298      -11.938       26.574       25.459       13.850      706.154      648.178      191.827        1.083        0.077      141.346        9.212        0.004      336.920        8.544      861.904
10/18/2014  02:14:00     -125.255      -39.555      -10.506       25.698       18.930       20.675      660.364      358.336      427.453        0.940        0.072      131.352       14.607        0.012      336.819        8.377      861.905
10/18/2014  02:15:00      -81.099      -18.872       -1.416       39.334       37.295       17.618     1547.167     1390.883      310.409        0.509        0.162       83.265       19.707        0.056      336.750        8.262      861.906
10/18/2014  02:16:00     -122.080      -17.973       -1.141       35.744       28.326       24.772     1277.615      802.368      613.634        0.896        0.135      123.396       22.283        0.033      336.847        8.424      861.904
10/18/2014  02:17:00      -83.555       -6.382       -0.692       40.998       28.867       22.763     1680.845      833.305      518.136        0.503        0.152       83.799       23.616        0.079      336.920        8.546      861.908
10/18/2014  02:18:00      -29.023      -14.426        3.597       23.535       16.055       11.829      553.911      257.764      139.930        0.101        0.048       32.411       11.090        0.117      336.821        8.380      861.893
10/18/2014  02:19:00      -21.827      -36.185       -2.389       26.879       16.025       11.709      722.503      256.793      137.103        0.145        0.056       42.258        9.980        0.056      336.981        8.646      861.887
10/18/2014  02:20:00      -31.841      -27.904       -0.617       23.279       15.792       14.876      541.924      249.387      221.297        0.140        0.051       42.338       15.698        0.137      337.183        8.985      861.875
10/18/2014  02:21:00      -22.828      -13.728       -1.530       25.025       12.566        9.825      626.262      157.906       96.525        0.080        0.044       26.637       11.606        0.190      337.134        8.902      861.867
10/18/2014  02:22:00      -27.399      -23.119       -0.822       29.049       24.884       18.266      843.864      619.237      333.632        0.154        0.090       35.850       16.711        0.217      336.968        8.626      861.881
10/18/2014  02:23:00      -78.208      -38.563       -0.814       18.291       24.494       12.522      334.561      599.957      156.811        0.435        0.055       87.198        8.873        0.010      336.755        8.270      861.903
10/18/2014  02:24:00      -78.626       14.258      -11.120       20.883       14.658       11.880      436.107      214.860      141.146        0.365        0.040       79.908       10.937        0.019      336.722        8.214      861.913
10/18/2014  02:25:00      -72.167      -27.769       -9.856       25.690       21.532       11.415      659.957      463.609      130.298        0.366        0.063       77.325       14.665        0.036      336.860        8.445      861.911
10/18/2014  02:26:00      -59.910      -33.622       -3.211       17.440       11.060        7.659      304.142      122.324       58.662        0.261        0.024       68.699        5.731        0.007      336.814        8.369      861.902
10/18/2014  02:27:00      -94.695      -37.588      -13.231       11.204        9.666        7.431      125.520       93.422       55.215        0.541        0.014      101.883        6.401        0.004      336.764        8.284      861.888
10/18/2014  02:28:00     -115.434      -53.411       -7.798       24.311       18.147       14.473      591.016      329.322      209.482        0.868        0.056      127.191        9.384        0.005      336.692        8.166      861.867
10/18/2014  02:29:00      -93.037      -67.529       -1.675       27.184       14.263       15.997      738.962      203.425      255.915        0.721        0.060      114.961        7.204        0.004      336.807        8.356      861.843
10/18/2014  02:30:00     -102.908      -53.053        0.638       32.316       22.813       18.849     1044.331      520.433      355.301        0.766        0.096      115.778       19.852        0.029      336.803        8.350      861.839
10/18/2014  02:31:00     -107.680      -31.366       -1.112       48.465       30.062       18.892     2348.848      903.749      356.923        0.809        0.180      112.155       16.012        0.020      336.798        8.342      861.835
10/18/2014  02:32:00     -119.804      -36.434       -5.664       24.293       23.983       21.310      590.130      575.185      454.136        0.867        0.081      125.221       14.933        0.014      336.781        8.315      861.834
10/18/2014  02:33:00      -91.767      -15.513       -8.513       30.949       17.526       14.658      957.832      307.150      214.845        0.511        0.074       93.069       12.307        0.017      336.660        8.111      861.823
10/18/2014  02:34:00     -125.648       18.373      -13.388       38.130       29.714       22.820     1453.873      882.904      520.749        0.958        0.143      126.985       18.429        0.021      336.609        8.027      861.821
10/18/2014  02:35:00     -156.977       37.960      -15.335       31.346       28.360       18.158      982.585      804.302      329.725        1.422        0.106      161.501       15.398        0.009      336.630        8.062      861.833
10/18/2014  02:36:00     -148.884       15.846      -17.656       50.377       29.772       29.609     2537.840      886.353      876.697        1.351        0.215      149.725       25.355        0.029      336.716        8.206      861.826
10/18/2014  02:37:00     -147.712       46.901       -9.109       43.428       38.055       24.567     1885.973     1448.207      603.551        1.402        0.197      154.979       23.943        0.024      336.671        8.130      861.812
10/18/2014  02:38:00     -136.637       55.464      -16.628       41.740       32.867       25.912     1742.239     1080.227      671.407        1.276        0.175      147.465       25.006        0.029      336.698        8.176      861.793
10/18/2014  02:39:00     -122.779       16.663      -14.918       34.693       31.530       18.422     1203.580      994.125      339.354        0.906        0.127      123.904       14.787        0.014      336.780        8.312      861.784
10/18/2014  02:40:00     -114.980      -42.138       -5.621       32.162       22.986       20.203     1034.385      528.361      408.151        0.850        0.099      122.458        8.188        0.004      336.681        8.148      861.788
10/18/2014  02:41:00     -146.030      -54.750       -5.389       30.394       35.228       18.664      923.825     1240.985      348.328        1.343        0.126      155.957       14.173        0.008      336.517        7.872      861.792
10/18/2014  02:42:00      -89.452       10.589       -7.503       34.591       35.048       19.736     1196.519     1228.356      389.493        0.549        0.141       90.076       16.480        0.033      336.428        7.722      861.801
10/18/2014  02:43:00     -138.951      -21.894      -13.453       45.592       36.226       25.890     2078.666     1312.299      670.313        1.201        0.203      140.665       26.165        0.035      336.419        7.708      861.814
10/18/2014  02:44:00     -153.734      -15.507      -16.077       44.487       43.471       22.086     1979.071     1889.761      487.784        1.424        0.218      154.514       21.699        0.020      336.431        7.728      861.832
10/18/2014  02:45:00     -136.110      -14.777      -12.280       37.208       31.343       18.039     1384.410      982.371      325.413        1.079        0.135      136.910       15.734        0.013      336.433        7.731      861.836
10/18/2014  02:46:00     -132.178        5.347      -15.182       24.793       25.630       16.527      614.706      656.893      273.140        0.964        0.077      132.287       12.606        0.009      336.475        7.800      861.839
10/18/2014  02:47:00     -171.345        5.921      -18.479       24.508       29.326       15.723      600.624      860.012      247.221        1.572        0.085      171.447        9.924        0.003      336.524        7.885      861.835
10/18/2014  02:48:00     -210.211        4.620      -26.682       23.733       14.581       17.098      563.242      212.596      292.350        2.299        0.053      210.261       12.701        0.004      336.522        7.880      861.841
10/18/2014  02:49:00     -167.709        7.520      -18.627       36.321       27.856       21.747     1319.244      775.934      472.914        1.555        0.128      167.878       20.202        0.014      336.476        7.804      861.844
10/18/2014  02:50:00     -165.558        8.654      -21.303       26.820       19.724       13.676      719.287      389.047      187.040        1.462        0.065      165.784       13.934        0.007      336.520        7.878      861.836
10/18/2014  02:51:00     -144.839       13.692      -16.915       28.456       26.925       16.323      809.731      724.950      266.451        1.163        0.090      145.484        4.648        0.001      336.586        7.988      861.816
10/18/2014  02:52:00     -142.254       24.143      -17.545       27.660       27.056       16.486      765.075      732.003      271.792        1.145        0.088      144.288        9.655        0.004      336.605        8.019      861.804
10/18/2014  02:53:00     -156.041      -12.637      -21.296       23.745       21.754       16.740      563.849      473.244      280.244        1.314        0.066      156.552       10.386        0.004      336.608        8.025      861.794
10/18/2014  02:54:00     -130.997       17.573      -15.815       24.328       28.444       19.321      591.830      809.075      373.293        0.975        0.089      132.171       15.180        0.013      336.852        8.434      861.785
10/18/2014  02:55:00     -120.560       13.546      -14.418       25.646       29.164       15.937      657.725      850.555      253.979        0.834        0.088      121.319       12.181        0.010      336.811        8.363      861.775
10/18/2014  02:56:00      -93.164      -21.150       -8.949       26.622       17.621       13.820      708.729      310.514      190.987        0.521        0.061       95.534       13.463        0.020      336.632        8.065      861.769
10/18/2014  02:57:00      -87.909      -24.510       -9.006       21.250       17.022       12.576      451.566      289.764      158.149        0.465        0.045       91.262        9.794        0.012      336.702        8.183      861.775
10/18/2014  02:58:00      -93.474      -33.916       -9.240       17.913       24.456       11.911      320.871      598.086      141.868        0.552        0.053       99.437        7.629        0.006      336.727        8.222      861.765
10/18/2014  02:59:00     -110.181      -55.724      -13.617       15.195       18.491       11.512      230.883      341.925      132.529        0.807        0.035      123.471        8.572        0.005      336.745        8.255      861.762
10/18/2014  03:00:00     -115.081      -29.574       -9.232       12.991       13.032        8.441      168.768      169.836       71.258        0.731        0.020      118.820        4.841        0.002      336.692        8.163      861.764
10/18/2014  03:01:00     -121.455      -26.543      -10.428       22.868       17.083       13.204      522.925      291.820      174.339        0.828        0.049      124.322       12.622        0.010      336.661        8.114      861.756
10/18/2014  03:02:00      -89.844      -24.611       -5.182       29.072       24.237       17.520      845.155      587.425      306.950        0.522        0.087       93.154       14.051        0.023      336.568        7.959      861.742
10/18/2014  03:03:00     -113.364       10.058      -10.850       21.338       18.772       16.585      455.293      352.375      275.054        0.708        0.054      113.809       11.040        0.009      336.631        8.063      861.723
10/18/2014  03:04:00     -129.376       -3.052      -18.390       16.118       23.689       13.080      259.776      561.189      171.084        0.904        0.050      129.412        7.659        0.004      336.564        7.952      861.708
10/18/2014  03:05:00      -91.953      -35.786       -2.067       33.465       26.648       13.678     1119.880      710.113      187.089        0.588        0.101       98.671        8.069        0.007      336.578        7.974      861.698
10/18/2014  03:06:00      -95.693      -41.556       -4.563       35.333       30.713       16.407     1248.408      943.293      269.180        0.668        0.123      104.326       16.331        0.025      336.558        7.941      861.705
10/18/2014  03:07:00      -80.223      -21.504       -6.695       14.315       17.286       11.676      204.926      298.796      136.336        0.379        0.032       83.055        6.357        0.006      336.552        7.931      861.697
10/18/2014  03:08:00     -103.225      -38.328       -7.329       20.735       22.313       13.315      429.942      497.881      177.289        0.664        0.055      110.111        8.516        0.006      336.586        7.989      861.693
10/18/2014  03:09:00     -115.533      -48.414      -12.455       32.570       29.069       19.026     1060.829      845.005      362.007        0.906        0.113      125.267       12.359        0.010      336.647        8.089      861.701
10/18/2014  03:10:00     -108.340      -16.098       -4.528       35.114       25.525       20.488     1232.966      651.538      419.745        0.716        0.115      109.530       20.074        0.034      336.598        8.007      861.709
10/18/2014  03:11:00      -60.817      -23.921       -2.087       32.544       26.039       12.708     1059.089      678.015      161.499        0.309        0.095       65.352       13.192        0.041      336.608        8.023      861.701
10/18/2014  03:12:00      -66.547      -30.256       -5.071       17.895       16.730       13.968      320.216      279.906      195.095        0.308        0.040       73.102       11.889        0.026      336.676        8.140      861.695
10/18/2014  03:13:00      -47.135      -47.161        0.670       25.840       16.139       13.067      667.721      260.471      170.751        0.277        0.055       66.678       10.831        0.026      336.728        8.226      861.705
10/18/2014  03:14:00       -8.575      -26.105        5.774       19.465       14.212       15.449      378.897      201.985      238.677        0.080        0.041       27.477       10.028        0.133      336.719        8.213      861.704
10/18/2014  03:15:00      -41.797      -25.026       -4.521       18.662       14.540        9.771      348.288      211.398       95.479        0.152        0.033       48.717        7.128        0.021      336.710        8.197      861.707
10/18/2014  03:16:00      -19.616       -5.975       -7.171       17.501       10.266        5.568      306.281      105.394       30.999        0.046        0.022       20.506        3.416        0.028      336.703        8.184      861.708
10/18/2014  03:17:00       -7.422       -7.164       -9.148       11.260        6.606        7.919      126.783       43.644       62.712        0.021        0.012       10.316        6.389        0.384      336.802        8.347      861.721
10/18/2014  03:18:00      -32.866        3.505      -13.708       16.933       12.744        6.935      286.727      162.415       48.101        0.089        0.025       33.052        4.403        0.018      336.799        8.345      861.734
10/18/2014  03:19:00        2.961      -23.802       -6.134       18.546       21.151       12.414      343.964      447.370      154.098        0.078        0.047       23.985        8.129        0.115      336.822        8.383      861.731
10/18/2014  03:20:00      -41.608      -13.129      -11.074       16.359       10.827        7.781      267.610      117.225       60.551        0.124        0.022       43.630        6.036        0.019      336.883        8.483      861.739
10/18/2014  03:21:00      -38.446      -21.401       -7.403       21.813       14.190       12.729      475.827      201.352      162.017        0.141        0.042       44.001       12.885        0.086      336.747        8.256      861.748
10/18/2014  03:22:00      -15.797      -16.825       -0.018       19.872       16.536        9.152      394.902      273.428       83.757        0.064        0.038       23.079        9.017        0.153      336.610        8.028      861.749
10/18/2014  03:23:00      -39.151      -25.444       -1.837       27.719       14.464       10.281      768.344      209.202      105.701        0.163        0.054       46.693       11.680        0.063      336.602        8.014      861.753
10/18/2014  03:24:00      -15.729      -39.317        0.740       27.538       28.847       19.574      758.322      832.140      383.141        0.188        0.099       42.347       18.783        0.197      336.616        8.038      861.750
10/18/2014  03:25:00      -38.131      -24.253        0.631       30.421        7.790       10.435      925.442       60.685      108.892        0.157        0.055       45.191       15.912        0.124      336.745        8.255      861.746
10/18/2014  03:26:00      -65.197      -36.238       -3.335       26.781       23.453       11.863      717.217      550.028      140.721        0.349        0.070       74.591       13.787        0.034      336.713        8.200      861.740
10/18/2014  03:27:00      -70.825      -58.766       -4.326       19.946       13.130       10.922      397.832      172.384      119.281        0.459        0.034       92.030        6.105        0.004      336.708        8.194      861.738
10/18/2014  03:28:00      -81.106      -39.765       -6.162       18.305       18.703       15.648      335.090      349.806      244.845        0.456        0.046       90.329       11.103        0.015      336.696        8.172      861.738
10/18/2014  03:29:00     -114.512      -75.624       -3.911       40.257       29.775       18.262     1620.622      886.573      333.493        1.084        0.142      137.230       17.763        0.017      336.490        7.828      861.736
10/18/2014  03:30:00      -31.003      -37.493        4.921       30.505       35.489       24.436      930.534     1259.480      597.099        0.259        0.139       48.651       19.848        0.166      336.459        7.774      861.735
10/18/2014  03:31:00      -63.247      -49.158        1.263       41.076       28.079       16.697     1687.266      788.436      278.787        0.459        0.138       80.104       17.397        0.047      336.532        7.897      861.737
10/18/2014  03:32:00      -94.134      -49.367       -3.416       36.031       20.017       15.946     1298.218      400.664      254.274        0.663        0.098      106.293       11.437        0.012      336.477        7.805      861.735
10/18/2014  03:33:00      -55.937      -39.368        2.376       29.979       23.878       13.937      898.731      570.180      194.248        0.317        0.083       68.402       14.787        0.047      336.466        7.786      861.735
10/18/2014  03:34:00      -75.770      -48.902        0.556       35.905       24.222       19.847     1289.166      586.705      393.894        0.520        0.113       90.180       14.166        0.025      336.442        7.748      861.743
10/18/2014  03:35:00      -58.459      -46.769        7.642       49.289       31.869       19.433     2429.422     1015.655      377.651        0.474        0.191       74.865       20.933        0.078      336.489        7.825      861.755
10/18/2014  03:36:00      -38.582      -67.774        1.123       55.369       37.484       27.193     3065.684     1405.033      739.469        0.565        0.261       77.986       31.857        0.167      336.628        8.059      861.755
10/18/2014  03:37:00      -36.781      -29.583        8.190       41.123       25.043       21.888     1691.115      627.140      479.094        0.255        0.140       47.201       18.689        0.157      336.584        7.984      861.749
10/18/2014  03:38:00      -12.327      -28.689        5.501       30.422       31.779       17.385      925.522     1009.893      302.235        0.162        0.112       31.225       11.730        0.141      336.695        8.171      861.738
10/18/2014  03:39:00      -20.752      -22.501        8.317       51.320       33.618       16.956     2633.769     1130.183      287.494        0.253        0.203       30.610       23.494        0.589      336.672        8.131      861.723
10/18/2014  03:40:00      -15.595      -18.506        2.826       31.932       26.442       19.958     1019.652      699.190      398.330        0.136        0.106       24.201       19.333        0.638      336.782        8.315      861.714
10/18/2014  03:41:00      -52.643       -6.402        1.898       47.551       25.269       20.346     2261.126      638.517      413.944        0.306        0.166       53.031       19.935        0.141      336.674        8.135      861.715
10/18/2014  03:42:00      -87.353      -28.967        0.592       52.741       32.730       23.279     2781.646     1071.248      541.926        0.643        0.220       92.031       23.764        0.067      336.485        7.819      861.722
10/18/2014  03:43:00      -88.672      -32.905       -5.240       25.669       24.317       16.274      658.909      591.335      264.832        0.524        0.076       94.580        7.651        0.007      336.356        7.602      861.730
10/18/2014  03:44:00      -51.381      -42.695       -1.299       29.827       23.045       14.664      889.662      531.061      215.045        0.305        0.082       66.805        8.452        0.016      336.386        7.652      861.727
10/18/2014  03:45:00      -41.297      -33.106       -1.562       24.325       18.803       13.227      591.688      353.537      174.955        0.196        0.056       52.928       10.128        0.037      336.446        7.753      861.723
10/18/2014  03:46:00      -59.513      -31.983       -6.360       16.631       11.671       11.517      276.600      136.211      132.631        0.258        0.027       67.563        8.423        0.016      336.443        7.748      861.717
10/18/2014  03:47:00      -39.286      -26.011       -3.364       25.722       14.144        9.760      661.617      200.065       95.253        0.159        0.048       47.117        7.090        0.023      336.392        7.664      861.716
10/18/2014  03:48:00      -19.242      -26.659        4.027       24.328       14.304       10.389      591.828      204.610      107.932        0.100        0.045       32.878        9.860        0.090      336.399        7.674      861.718
10/18/2014  03:49:00      -67.719      -18.188       -5.822       17.733       20.822       11.110      314.456      433.546      123.436        0.291        0.044       70.119        8.101        0.013      336.384        7.649      861.719
10/18/2014  03:50:00      -72.263        2.238       -3.722       11.097       15.423       10.502      123.139      237.869      110.287        0.286        0.024       72.298        7.928        0.012      336.276        7.468      861.713
10/18/2014  03:51:00      -32.274      -40.145       -1.576       17.821       19.106       11.845      317.596      365.051      140.307        0.174        0.041       51.510        7.072        0.019      336.359        7.608      861.709
10/18/2014  03:52:00      -22.349      -47.259       -7.224       20.313       17.813       14.923      412.614      317.312      222.696        0.187        0.048       52.277       10.147        0.038      336.429        7.724      861.701
10/18/2014  03:53:00      -60.619      -44.864       -6.623       14.617       17.901       22.954      213.648      320.445      526.907        0.340        0.053       75.415       14.499        0.037      336.429        7.724      861.710
10/18/2014  03:54:00      -48.625      -16.074       -0.781       20.080       19.852       16.766      403.203      394.088      281.086        0.185        0.054       51.213        9.078        0.031      336.367        7.621      861.735
10/18/2014  03:55:00      -72.854       -2.563       -8.486       29.272       17.588       13.977      856.878      309.333      195.351        0.337        0.068       72.899       15.660        0.046      336.318        7.539      861.748
10/18/2014  03:56:00      -55.987      -72.068       -4.830       24.249       35.704       17.378      588.011     1274.750      302.005        0.526        0.108       91.260       18.062        0.039      336.299        7.508      861.742
10/18/2014  03:57:00      -18.138      -41.333        4.225       29.259       29.911       20.176      856.116      894.685      407.076        0.211        0.108       45.137       20.096        0.198      336.336        7.571      861.739
10/18/2014  03:58:00      -58.809      -44.136        2.374       41.644       27.540       18.383     1734.246      758.474      337.942        0.412        0.142       73.529       18.826        0.066      336.232        7.396      861.747
10/18/2014  03:59:00      -51.256      -45.920        7.970       38.103       18.189       20.101     1451.817      330.833      404.057        0.349        0.109       68.818       20.733        0.091      336.220        7.374      861.767
10/18/2014  04:00:00      -45.808      -53.489       -0.539       29.254       19.826       19.139      855.789      393.074      366.318        0.329        0.081       70.423       16.187        0.053      336.252        7.429      861.792
10/18/2014  04:01:00      -28.981      -37.866       10.087       34.711       26.021       22.831     1204.872      677.083      521.263        0.239        0.120       47.684       15.753        0.109      336.196        7.334      861.812
10/18/2014  04:02:00      -94.729     -104.865       -6.907       27.972       43.859       18.266      782.458     1923.650      333.658        1.153        0.152      141.316       18.414        0.017      336.119        7.204      861.820
10/18/2014  04:03:00      -91.126      -78.468      -11.431       21.722       24.577       20.045      471.841      604.031      401.812        0.803        0.074      120.255       13.491        0.013      336.113        7.195      861.825
10/18/2014  04:04:00      -36.508      -66.667       -6.159       35.113       39.940       23.082     1232.917     1595.227      532.788        0.459        0.168       76.009       24.708        0.106      336.101        7.176      861.830
10/18/2014  04:05:00      -86.543      -87.551       -4.684       31.868       32.298       23.105     1015.590     1043.161      533.844        0.888        0.130      123.105       11.938        0.009      335.990        6.991      861.828
10/18/2014  04:06:00     -132.598      -90.752      -13.665       38.596       51.806       20.374     1489.686     2683.909      415.103        1.530        0.229      160.680       20.385        0.016      335.893        6.829      861.830
10/18/2014  04:07:00      -91.774      -59.123       -8.413       37.194       36.360       26.753     1383.378     1322.035      715.710        0.770        0.171      109.170       26.794        0.060      335.920        6.874      861.827
10/18/2014  04:08:00      -83.632      -76.032       -9.388       25.920       25.720       18.011      671.840      661.499      324.390        0.726        0.083      113.027        6.406        0.003      335.896        6.835      861.831
10/18/2014  04:09:00      -78.828      -83.520       -8.859       23.947       22.840       11.774      573.444      521.662      138.616        0.725        0.062      114.845       11.145        0.009      335.887        6.820      861.840
10/18/2014  04:10:00      -69.665      -84.858      -10.170       31.669       23.034       19.132     1002.924      530.579      366.047        0.703        0.095      109.791       17.959        0.027      335.893        6.830      861.857
10/18/2014  04:11:00      -41.850      -44.144       11.796       41.233       26.259       19.978     1700.192      689.553      399.134        0.331        0.139       60.829       22.148        0.133      335.933        6.896      861.870
10/18/2014  04:12:00      -51.926      -57.315        1.655       32.383       34.910       21.140     1048.661     1218.678      446.880        0.435        0.136       77.340       18.787        0.059      335.866        6.785      861.879
10/18/2014  04:13:00      -40.628      -75.845      -12.319       21.118       15.419       10.413      445.974      237.752      108.422        0.417        0.040       86.041        4.620        0.003      335.907        6.855      861.882
10/18/2014  04:14:00      -19.778      -35.884      -13.965       23.808       14.020       16.746      566.830      196.550      280.433        0.146        0.052       40.974       16.624        0.165      336.007        7.017      861.902
10/18/2014  04:15:00      -56.856        4.385      -16.674       20.014       23.990       20.954      400.569      575.537      439.081        0.247        0.071       57.025        6.637        0.014      335.988        6.987      861.922
10/18/2014  04:16:00      -59.245      -23.199       -2.443       27.346       20.308       18.184      747.798      412.403      330.673        0.277        0.075       63.626       14.240        0.050      335.939        6.906      861.928
10/18/2014  04:17:00      -16.937      -29.724        3.540       20.401       15.048       12.257      416.202      226.436      150.230        0.099        0.040       34.211        6.630        0.038      335.877        6.804      861.916
10/18/2014  04:18:00      -18.518      -14.571       10.970       18.518        9.886       12.483      342.904       97.724      155.816        0.064        0.030       23.564       12.243        0.270      335.866        6.784      861.910
10/18/2014  04:19:00      -83.307      -24.733       -6.180       20.861       17.333       12.110      435.184      300.442      146.654        0.424        0.044       86.901        8.489        0.010      335.878        6.807      861.911
10/18/2014  04:20:00      -29.549      -28.569        6.688       33.483       19.321       16.867     1121.123      373.311      284.504        0.176        0.089       41.102       13.838        0.113      335.798        6.672      861.915
10/18/2014  04:21:00      -32.984      -18.529        3.677       32.511       17.840       16.806     1056.960      318.283      282.447        0.155        0.083       37.832       16.518        0.191      335.724        6.548      861.916
10/18/2014  04:22:00      -85.733      -53.726       -0.307       40.284       24.249       16.271     1622.841      588.031      264.734        0.636        0.124      101.176       12.700        0.016      335.821        6.710      861.931
10/18/2014  04:23:00     -111.387      -54.117        2.322       27.843       29.795       19.651      775.229      887.738      386.159        0.869        0.102      123.838       16.760        0.018      335.785        6.650      861.944
10/18/2014  04:24:00      -61.374      -70.651       -1.437       37.656       31.599       21.790     1417.962      998.503      474.819        0.583        0.145       93.586       19.055        0.041      335.824        6.716      861.942
10/18/2014  04:25:00     -112.891      -67.603      -14.178       19.389       20.804       15.813      375.919      432.823      250.062        0.929        0.053      131.585        9.982        0.006      335.904        6.848      861.959
10/18/2014  04:26:00      -54.754      -30.345        9.783       42.304       33.826       21.122     1789.627     1144.197      446.123        0.370        0.169       62.600       19.473        0.097      335.850        6.758      861.970
10/18/2014  04:27:00      -96.924      -69.005       -5.621       43.019       36.518       19.230     1850.652     1333.585      369.801        0.887        0.178      118.979       15.812        0.018      335.867        6.785      861.975
10/18/2014  04:28:00     -102.048      -76.592       -3.101       35.515       42.007       18.577     1261.316     1764.622      345.103        0.983        0.169      127.594       17.465        0.019      335.848        6.755      861.969
10/18/2014  04:29:00      -99.940      -54.847       -1.587       40.689       25.258       18.745     1655.557      637.975      351.360        0.782        0.132      114.001       14.488        0.016      335.877        6.802      861.973
10/18/2014  04:30:00      -85.300      -43.817        0.686       53.464       28.670       25.149     2858.403      821.991      632.482        0.675        0.216       95.896       27.790        0.084      335.852        6.762      861.980
10/18/2014  04:31:00      -63.204      -46.127        0.894       39.401       25.326       19.750     1552.467      641.426      390.069        0.435        0.129       78.247       14.031        0.032      335.827        6.720      861.984
10/18/2014  04:32:00      -84.973      -43.113       -7.967       27.167       25.663       14.113      738.024      658.587      199.184        0.537        0.080       95.285       11.316        0.014      335.818        6.704      861.985
10/18/2014  04:33:00      -55.500      -62.924        5.233       25.755       25.644       19.860      663.303      657.639      394.420        0.439        0.086       83.903       16.052        0.037      335.851        6.760      862.001
10/18/2014  04:34:00      -65.681      -35.998       -1.627       34.832       21.461       15.174     1213.286      460.554      230.265        0.376        0.095       74.899       12.154        0.026      335.892        6.830      862.013
10/18/2014  04:35:00      -68.359      -49.229       -6.923       34.035       22.300       17.057     1158.373      497.307      290.936        0.455        0.097       84.240       15.287        0.033      335.842        6.745      862.018
10/18/2014  04:36:00     -100.389      -55.622        6.003       35.158       33.725       23.654     1236.085     1137.359      559.499        0.807        0.147      114.768       22.387        0.038      335.785        6.650      862.013
10/18/2014  04:37:00      -68.127      -47.755       13.137       50.695       31.628       26.101     2569.992     1000.344      681.278        0.567        0.213       83.197       23.647        0.081      335.760        6.610      862.029
10/18/2014  04:38:00      -86.729      -51.524        8.716       55.895       36.783       25.071     3124.222     1352.989      628.530        0.768        0.255      100.879       26.507        0.069      335.692        6.496      862.052
10/18/2014  04:39:00      -21.607      -19.904        8.647       27.573       24.271       17.217      760.254      589.101      296.441        0.129        0.082       29.377       14.094        0.230      335.731        6.560      862.066
10/18/2014  04:40:00      -61.484      -58.249       -0.200       39.072       27.802       19.323     1526.660      772.941      373.374        0.492        0.134       84.695       18.530        0.048      335.767        6.621      862.076
10/18/2014  04:41:00      -95.491      -65.955       -0.495       41.854       26.728       22.088     1751.754      714.365      487.877        0.821        0.148      116.054       18.806        0.026      335.778        6.637      862.088
10/18/2014  04:42:00      -86.665      -45.569        5.970       49.618       36.479       22.748     2461.960     1330.696      517.468        0.697        0.216       97.915       18.485        0.036      335.714        6.532      862.094
10/18/2014  04:43:00      -76.137      -50.654        4.939       41.341       36.628       21.149     1709.096     1341.620      447.272        0.594        0.175       91.448       15.942        0.030      335.688        6.488      862.099
10/18/2014  04:44:00     -109.356      -41.692        1.080       32.553       25.664       14.420     1059.730      658.617      207.933        0.781        0.096      117.034       12.738        0.012      335.684        6.483      862.104
10/18/2014  04:45:00     -111.056      -47.650       -4.844       40.221       22.708       18.923     1617.697      515.632      358.066        0.856        0.125      120.847       20.769        0.030      335.670        6.460      862.111
10/18/2014  04:46:00      -59.487      -28.677        7.373       41.998       31.761       21.509     1763.827     1008.764      462.650        0.382        0.162       66.038       15.979        0.059      335.680        6.477      862.112
10/18/2014  04:47:00      -70.324      -45.171       -3.305       30.477       23.912       15.579      928.853      571.795      242.699        0.437        0.087       83.581       13.112        0.025      335.734        6.566      862.111
10/18/2014  04:48:00      -64.983      -26.768       -0.732       17.513       20.509       11.229      306.692      420.607      126.095        0.290        0.043       70.280        7.889        0.013      335.783        6.647      862.103
10/18/2014  04:49:00      -83.370      -29.439       -0.436       15.634       13.436        7.773      244.435      180.539       60.426        0.415        0.024       88.415        4.355        0.002      335.776        6.637      862.120
10/18/2014  04:50:00      -73.454      -40.814       -7.672       30.926       16.230       13.314      956.437      263.397      177.255        0.426        0.070       84.032       12.199        0.021      335.777        6.637      862.129
10/18/2014  04:51:00      -41.191      -31.338        0.632       25.296       15.992       13.250      639.908      255.741      175.560        0.188        0.054       51.757        9.094        0.031      335.797        6.670      862.134
10/18/2014  04:52:00      -52.475      -36.292        6.617       38.581       22.347       17.451     1488.459      499.411      304.545        0.320        0.115       63.802       21.422        0.113      335.749        6.591      862.143
10/18/2014  04:53:00      -84.671      -68.797        5.604       43.890       32.777       24.043     1926.341     1074.300      578.086        0.776        0.179      109.097       17.384        0.025      335.739        6.573      862.149
10/18/2014  04:54:00      -99.082      -77.859        4.757       48.187       38.146       26.266     2321.990     1455.120      689.923        1.018        0.223      126.013       24.386        0.037      335.703        6.513      862.162
10/18/2014  04:55:00     -100.328      -56.025        2.230       44.262       33.524       23.533     1959.167     1123.846      553.813        0.842        0.182      114.911       21.180        0.034      335.765        6.618      862.162
10/18/2014  04:56:00     -112.605      -61.575       -3.405       32.450       24.633       19.449     1053.005      606.779      378.255        0.926        0.102      128.341       16.528        0.017      335.713        6.531      862.165
10/18/2014  04:57:00      -59.264      -21.733       -0.492       29.478       18.125       17.322      868.964      328.523      300.068        0.274        0.075       63.124       14.518        0.053      335.688        6.489      862.164
10/18/2014  04:58:00      -53.365      -23.010       -3.977       19.778       18.813       11.452      391.171      353.935      131.154        0.213        0.044       58.115        7.380        0.016      335.773        6.630      862.161
10/18/2014  04:59:00      -64.491      -31.759       -9.710       18.968       16.324       10.426      359.771      266.474      108.710        0.300        0.037       71.887        5.473        0.006      335.883        6.814      862.163
10/18/2014  05:00:00      -76.688      -32.244       -8.751       21.303       16.315        9.999      453.803      266.173       99.978        0.391        0.041       83.191        8.901        0.011      335.935        6.899      862.176
10/18/2014  05:01:00     -112.544      -38.611       -4.408       19.391       17.391       11.487      375.997      302.444      131.948        0.749        0.041      118.983        6.287        0.003      335.860        6.774      862.179
10/18/2014  05:02:00     -110.660      -50.300       -3.670       31.542       15.840       14.780      994.877      250.914      218.439        0.813        0.073      121.555        7.204        0.004      335.742        6.578      862.193
10/18/2014  05:03:00     -112.018      -61.401       -5.470       24.337       20.611       13.413      592.286      424.831      179.906        0.877        0.060      127.742       12.544        0.010      335.710        6.526      862.203
10/18/2014  05:04:00     -100.497      -60.355       -2.461       24.319       18.293       15.977      591.398      334.634      255.256        0.746        0.059      117.228       12.234        0.011      335.710        6.526      862.219
10/18/2014  05:05:00      -84.414      -40.307        5.455       32.840       19.700       19.179     1078.437      388.083      367.842        0.531        0.092       93.544       17.455        0.035      335.739        6.574      862.223
10/18/2014  05:06:00      -90.341      -37.281        6.811       34.243       20.509       17.244     1172.615      420.599      297.339        0.574        0.095       97.731       13.873        0.020      335.802        6.678      862.225
10/18/2014  05:07:00     -116.255      -47.785       -2.760       19.499       21.775       14.482      380.220      474.134      209.722        0.843        0.053      125.692       11.576        0.008      335.707        6.520      862.227
10/18/2014  05:08:00     -108.883      -58.187       -2.929       29.026       22.227       16.294      842.484      494.059      265.503        0.843        0.080      123.455       11.215        0.008      335.588        6.323      862.234
10/18/2014  05:09:00      -85.430      -51.234        4.478       43.472       24.634       22.647     1889.807      606.810      512.885        0.648        0.150       99.616       19.117        0.037      335.599        6.340      862.237
10/18/2014  05:10:00     -107.641      -52.060       -4.695       39.030       25.150       19.500     1523.344      632.546      380.240        0.843        0.127      119.569       21.365        0.032      335.743        6.579      862.253
10/18/2014  05:11:00      -99.610      -45.224       -3.697       35.913       25.165       17.596     1289.754      633.286      309.630        0.711        0.112      109.396       16.856        0.024      335.741        6.576      862.272
10/18/2014  05:12:00      -61.940      -51.903        6.423       32.618       26.308       20.297     1063.961      692.085      411.966        0.437        0.108       80.811       20.286        0.063      335.717        6.537      862.278
10/18/2014  05:13:00      -60.753      -44.322       -1.180       33.986       24.739       18.469     1155.074      612.029      341.095        0.388        0.105       75.202       13.114        0.030      335.760        6.608      862.273
10/18/2014  05:14:00      -80.429      -41.909       -5.516       22.634       17.997       18.797      512.276      323.904      353.311        0.472        0.059       90.693       16.390        0.033      335.777        6.636      862.279
10/18/2014  05:15:00      -68.683      -46.987        0.672       37.649       27.677       21.060     1417.454      765.992      443.527        0.478        0.131       83.217       20.462        0.060      335.806        6.687      862.282
10/18/2014  05:16:00      -42.829      -28.051        1.017       37.468       25.880       17.115     1403.867      669.798      292.923        0.249        0.118       51.197       11.468        0.050      335.768        6.621      862.275
10/18/2014  05:17:00     -115.852      -50.882       -3.788       15.064       23.797       12.372      226.937      566.278      153.066        0.849        0.047      126.533        9.567        0.006      335.803        6.679      862.273
10/18/2014  05:18:00      -70.847      -43.050        6.900       35.158       23.991       16.083     1236.106      575.553      258.670        0.449        0.104       82.901       16.198        0.038      335.678        6.472      862.263
10/18/2014  05:19:00      -61.450      -41.154        1.124       31.344       24.313       17.885      982.454      591.115      319.888        0.368        0.095       73.958       17.711        0.057      335.687        6.487      862.255
10/18/2014  05:20:00      -77.979      -55.098       -4.711       37.144       22.212       16.289     1379.675      493.354      265.319        0.564        0.107       95.480       15.249        0.026      335.650        6.425      862.246
10/18/2014  05:21:00      -70.838      -65.457        1.636       39.649       41.166       25.588     1572.047     1694.635      654.743        0.661        0.196       96.451       25.820        0.072      335.668        6.455      862.239
10/18/2014  05:22:00      -95.730      -66.351      -13.203       52.536       39.318       27.654     2760.054     1545.901      764.733        0.940        0.254      116.476       27.482        0.056      335.757        6.604      862.226
10/18/2014  05:23:00     -137.874     -100.450      -11.103       21.611       30.583       21.623      467.030      935.298      467.560        1.555        0.093      170.586       16.818        0.010      335.751        6.594      862.226
10/18/2014  05:24:00     -104.253      -67.137        4.312       30.984       37.626       23.414      959.990     1415.730      548.199        0.916        0.146      124.001       20.475        0.027      335.719        6.541      862.242
10/18/2014  05:25:00      -60.527      -35.772        5.037       44.938       27.189       20.092     2019.411      739.266      403.708        0.406        0.158       70.308       22.003        0.098      335.695        6.500      862.262
10/18/2014  05:26:00      -53.717      -30.682       10.375       31.412       19.637       13.938      986.692      385.619      194.281        0.275        0.078       61.862       12.597        0.041      335.720        6.544      862.274
10/18/2014  05:27:00      -45.351      -31.396        6.322       34.121       23.443       19.276     1164.229      549.576      371.569        0.258        0.104       55.158       16.278        0.087      335.735        6.567      862.276
10/18/2014  05:28:00      -89.861      -41.940       -8.754       33.624       25.608       15.479     1130.567      655.791      239.611        0.597        0.101       99.166       17.355        0.031      335.739        6.573      862.274
10/18/2014  05:29:00      -96.661      -55.402       -4.138       28.652       23.964       19.627      820.915      574.291      385.220        0.710        0.089      111.412       14.489        0.017      335.719        6.540      862.281
10/18/2014  05:30:00      -72.002      -55.612        0.890       51.185       36.432       23.483     2619.855     1327.313      551.445        0.639        0.225       90.978       26.586        0.085      335.717        6.537      862.289
10/18/2014  05:31:00      -70.767      -50.614        2.305       49.399       36.613       23.489     2440.226     1340.541      551.745        0.595        0.217       87.004       15.953        0.034      335.746        6.584      862.293
10/18/2014  05:32:00      -72.449      -57.477        4.060       40.531       45.134       26.047     1642.783     2037.104      678.471        0.646        0.218       92.479       24.620        0.071      335.716        6.536      862.295
10/18/2014  05:33:00      -91.030      -63.774        3.718       42.585       35.661       24.476     1813.448     1271.695      599.085        0.803        0.184      111.147       24.654        0.049      335.675        6.468      862.305
10/18/2014  05:34:00     -112.474      -81.031       -6.632       48.880       45.622       24.401     2389.292     2081.400      595.402        1.216        0.253      138.624       21.509        0.024      335.682        6.480      862.310
10/18/2014  05:35:00     -126.555     -135.694      -13.532       38.196       38.835       25.030     1458.899     1508.123      626.520        1.910        0.180      185.550       16.079        0.008      335.621        6.378      862.323
10/18/2014  05:36:00     -135.141     -117.636       -7.080       42.566       73.430       28.678     1811.846     5391.903      822.451        2.009        0.401      179.168       19.913        0.012      335.512        6.194      862.339
10/18/2014  05:37:00     -114.458      -71.054       -7.944       54.141       42.659       33.559     2931.282     1819.767     1126.181        1.204        0.294      134.719       27.459        0.042      335.451        6.094      862.344
10/18/2014  05:38:00     -152.528     -101.295      -11.045       38.177       39.892       31.130     1457.500     1591.395      969.106        1.883        0.201      183.100       14.237        0.006      335.403        6.013      862.345
10/18/2014  05:39:00     -141.039      -98.433       -8.366       52.904       39.434       26.312     2798.821     1555.039      692.310        1.735        0.252      171.991       31.049        0.033      335.374        5.963      862.348
10/18/2014  05:40:00     -143.455     -100.432      -18.982       44.274       31.753       23.127     1960.149     1008.237      534.855        1.726        0.175      175.117       13.609        0.006      335.402        6.010      862.370
10/18/2014  05:41:00     -109.127      -59.029        4.208       60.117       53.239       36.005     3614.044     2834.353     1296.356        1.158        0.387      124.069       26.314        0.045      335.373        5.963      862.383
10/18/2014  05:42:00     -101.742      -76.822      -19.651       51.452       37.701       29.813     2647.318     1421.369      888.826        1.080        0.248      127.488       19.263        0.023      335.393        5.996      862.398
10/18/2014  05:43:00      -65.089      -34.322       -0.660       52.231       34.694       28.398     2728.026     1203.657      806.421        0.508        0.237       73.584       16.342        0.049      335.352        5.927      862.416
10/18/2014  05:44:00      -39.808      -60.996        5.698       43.391       45.885       35.986     1882.766     2105.424     1294.998        0.531        0.264       72.837       27.479        0.142      335.348        5.921      862.421
10/18/2014  05:45:00      -84.123      -75.717       13.053       71.411       54.888       40.797     5099.596     3012.706     1664.423        1.138        0.489      113.180       39.446        0.121      335.360        5.941      862.431
10/18/2014  05:46:00      -81.368      -60.706       -3.243       63.996       49.810       36.026     4095.540     2481.036     1297.903        0.909        0.394      101.518       31.791        0.098      335.350        5.923      862.444
10/18/2014  05:47:00       -5.129      -63.798       28.637       41.272       67.322       48.931     1703.416     4532.278     2394.227        0.677        0.431       64.004       30.937        0.234      335.344        5.914      862.465
10/18/2014  05:48:00     -110.179      -66.414       -3.562       75.693       54.426       33.794     5729.382     2962.231     1142.054        1.320        0.492      128.648       35.933        0.078      335.325        5.883      862.474
10/18/2014  05:49:00      -95.540      -73.694        3.948       82.036       49.284       33.491     6729.915     2428.954     1121.654        1.243        0.514      120.659       36.470        0.091      335.307        5.852      862.482
10/18/2014  05:50:00     -136.995      -86.255       -7.625       60.077       44.258       36.778     3609.216     1958.797     1352.624        1.659        0.346      161.888       27.945        0.030      335.311        5.857      862.494
10/18/2014  05:51:00     -145.134      -97.241        2.838       78.226       50.965       45.277     6119.265     2597.455     2050.025        2.065        0.538      174.699       43.265        0.061      335.295        5.830      862.496
10/18/2014  05:52:00     -174.758     -137.080       -8.306       53.650       47.592       31.260     2878.282     2265.037      977.212        2.776        0.306      222.107       28.601        0.017      335.292        5.825      862.493
10/18/2014  05:53:00     -174.371     -126.000      -15.923       43.045       45.907       27.910     1852.841     2107.457      778.945        2.564        0.237      215.131       20.190        0.009      335.287        5.818      862.509
10/18/2014  05:54:00     -139.294     -113.179       -9.502       49.392       65.871       26.601     2439.607     4339.035      707.613        1.989        0.374      179.477       24.406        0.018      335.272        5.792      862.506
10/18/2014  05:55:00     -115.408      -59.780        0.863       56.185       47.102       35.526     3156.777     2218.583     1262.070        1.176        0.332      129.972       27.084        0.043      335.250        5.759      862.494
10/18/2014  05:56:00     -120.821      -70.872       -4.796       73.472       61.613       38.598     5398.063     3796.180     1489.772        1.516        0.534      140.073       43.875        0.098      335.209        5.688      862.489
10/18/2014  05:57:00     -151.627     -125.797      -17.653       40.915       45.741       30.301     1674.054     2092.241      918.133        2.191        0.234      197.017       28.136        0.020      335.188        5.654      862.477
10/18/2014  05:58:00     -161.471     -134.442      -15.527       42.946       35.122       24.347     1844.358     1233.538      592.764        2.403        0.184      210.113       19.253        0.008      335.178        5.638      862.464
10/18/2014  05:59:00     -159.911     -112.238       -9.991       33.091       41.075       28.518     1095.044     1687.117      813.264        2.093        0.180      195.369       11.441        0.003      335.147        5.587      862.467
10/18/2014  06:00:00     -141.903     -108.270       -9.533       46.247       35.593       26.846     2138.777     1266.853      720.699        1.804        0.206      178.491       21.381        0.014      335.149        5.590      862.470
10/18/2014  06:01:00     -157.204     -108.461      -10.645       44.527       40.437       26.353     1982.697     1635.166      694.493        2.045        0.216      190.990       21.603        0.013      335.176        5.634      862.465
10/18/2014  06:02:00     -149.559      -93.470       -8.728       42.604       41.077       23.924     1815.133     1687.306      572.348        1.763        0.204      176.365       15.695        0.008      335.140        5.576      862.488
10/18/2014  06:03:00     -123.392      -77.059        0.469       49.967       51.167       24.188     2496.664     2618.028      585.083        1.343        0.285      145.477       25.951        0.032      335.154        5.599      862.508
10/18/2014  06:04:00     -112.619      -79.468       -2.258       47.217       39.170       22.938     2229.482     1534.287      526.133        1.165        0.214      137.833       27.175        0.039      335.162        5.612      862.521
10/18/2014  06:05:00     -117.833      -79.652       -6.130       24.851       27.059       20.837      617.587      732.214      434.193        1.103        0.089      142.229       13.118        0.009      335.185        5.651      862.535
10/18/2014  06:06:00     -100.500      -85.344       -3.933       40.692       40.941       21.715     1655.873     1676.165      471.521        1.060        0.190      131.848       13.506        0.010      335.206        5.684      862.543
10/18/2014  06:07:00      -90.554      -67.548       -7.072       46.002       47.261       21.460     2116.141     2233.558      460.546        0.881        0.241      112.972       16.394        0.021      335.159        5.608      862.546
10/18/2014  06:08:00      -58.597      -61.745        5.528       60.642       30.203       27.356     3677.449      912.218      748.358        0.631        0.267       85.123       35.631        0.175      335.216        5.701      862.549
10/18/2014  06:09:00      -50.397      -45.874       10.081       54.901       40.573       25.641     3014.112     1646.175      657.453        0.503        0.266       68.149       29.725        0.190      335.214        5.697      862.558
10/18/2014  06:10:00      -92.725      -90.438        1.172       57.752       50.467       26.905     3335.267     2546.897      723.882        1.169        0.330      129.526       31.161        0.058      335.159        5.607      862.573
10/18/2014  06:11:00     -128.902     -156.531       -6.400       56.417       62.128       32.650     3182.892     3859.909     1066.038        2.463        0.405      202.775       29.984        0.022      335.104        5.516      862.580
10/18/2014  06:12:00     -174.196     -113.573      -10.685       47.375       57.386       32.538     2244.402     3293.159     1058.689        2.498        0.330      207.950       28.998        0.019      335.025        5.383      862.593
10/18/2014  06:13:00     -151.967      -53.735        4.619       65.068       38.209       29.227     4233.877     1459.958      854.231        1.627        0.327      161.187       34.805        0.047      335.019        5.374      862.600
10/18/2014  06:14:00     -145.969      -70.478       -5.929       52.847       36.731       27.805     2792.821     1349.138      773.106        1.561        0.246      162.093       21.174        0.017      335.015        5.367      862.615
10/18/2014  06:15:00     -161.077     -131.398      -11.019       47.506       46.127       22.791     2256.850     2127.665      519.412        2.412        0.245      207.873       21.269        0.010      335.025        5.385      862.613
10/18/2014  06:16:00     -142.816     -104.494      -10.566       48.683       52.121       27.382     2370.072     2716.584      749.762        1.863        0.292      176.962       20.014        0.013      335.033        5.400      862.606
10/18/2014  06:17:00      -74.905      -60.748       13.078       55.221       49.575       27.888     3049.355     2457.707      777.750        0.788        0.314       96.442       25.433        0.070      335.040        5.412      862.597
10/18/2014  06:18:00      -86.362      -75.907        0.246       44.796       48.646       27.611     2006.640     2366.399      762.350        0.918        0.257      114.980       27.333        0.057      335.043        5.416      862.586
10/18/2014  06:19:00      -86.335      -66.633       -1.068       59.939       38.084       24.795     3592.739     1450.409      614.775        0.878        0.283      109.058       24.231        0.049      335.067        5.456      862.587
10/18/2014  06:20:00      -81.958      -69.266        0.396       51.594       38.597       20.916     2661.940     1489.767      437.496        0.805        0.229      107.307       20.286        0.036      335.107        5.523      862.587
10/18/2014  06:21:00     -108.656      -52.958       -0.921       41.123       33.051       25.331     1691.127     1092.385      641.637        0.902        0.171      120.874       23.681        0.038      335.061        5.446      862.580
10/18/2014  06:22:00     -100.560      -81.373        1.308       49.066       38.477       28.221     2407.504     1480.487      796.413        1.071        0.234      129.359       27.339        0.045      335.057        5.441      862.581
10/18/2014  06:23:00     -115.106      -85.937       -2.164       28.703       37.932       21.079      823.853     1438.817      444.307        1.167        0.135      143.648       13.397        0.009      335.086        5.487      862.573
10/18/2014  06:24:00     -116.699      -90.182       -6.762       36.655       43.753       26.686     1343.620     1914.316      712.144        1.288        0.199      147.484       19.480        0.017      335.051        5.429      862.571
10/18/2014  06:25:00     -137.099      -85.295       -1.433       41.194       39.471       23.705     1696.969     1557.978      561.945        1.494        0.191      161.466       19.780        0.015      335.116        5.538      862.576
10/18/2014  06:26:00     -136.646      -97.566       -4.435       40.732       38.432       27.393     1659.109     1476.992      750.366        1.605        0.194      167.903       27.792        0.027      335.087        5.490      862.589
10/18/2014  06:27:00     -127.044      -92.280       -5.626       32.952       36.857       16.870     1085.857     1358.444      284.593        1.371        0.136      157.022       12.696        0.007      335.119        5.544      862.604
10/18/2014  06:28:00     -133.623      -70.495       -6.033       39.272       41.212       21.443     1542.265     1698.437      459.807        1.328        0.185      151.078       19.433        0.017      335.124        5.550      862.627
10/18/2014  06:29:00     -117.873      -60.395       -5.885       70.514       34.838       28.373     4972.241     1213.707      805.037        1.228        0.350      132.444       32.244        0.059      335.110        5.527      862.641
10/18/2014  06:30:00     -113.445      -88.726       -1.494       63.928       36.172       30.655     4086.747     1308.408      939.751        1.354        0.317      144.021       35.699        0.061      335.144        5.583      862.653
10/18/2014  06:31:00     -104.164      -73.115       -0.085       47.883       45.503       25.304     2292.749     2070.562      640.290        1.060        0.250      127.263       23.841        0.035      335.123        5.549      862.665
10/18/2014  06:32:00     -112.629      -92.149       -7.895       40.898       30.212       21.433     1672.639      912.753      459.377        1.214        0.152      145.522       16.791        0.013      335.107        5.524      862.667
10/18/2014  06:33:00      -86.400      -91.195       -7.779       44.361       37.003       24.852     1967.906     1369.231      617.626        0.990        0.198      125.624       22.256        0.031      335.104        5.517      862.670
10/18/2014  06:34:00     -107.781      -84.979       -8.505       57.801       34.514       27.330     3340.933     1191.202      746.917        1.209        0.264      137.252       31.721        0.053      335.141        5.577      862.681
10/18/2014  06:35:00      -85.324      -76.262        6.656       53.988       43.640       33.383     2914.725     1904.437     1114.436        0.954        0.297      114.438       32.498        0.081      335.139        5.575      862.687
10/18/2014  06:36:00     -102.171      -79.965       -8.258       36.566       27.794       22.200     1337.079      772.510      492.853        0.975        0.130      129.743       13.834        0.011      335.128        5.557      862.705
10/18/2014  06:37:00     -107.827     -136.368       -4.848       47.511       52.324       32.933     2257.286     2737.787     1084.594        1.816        0.304      173.847       30.457        0.031      335.119        5.539      862.720
10/18/2014  06:38:00     -105.302      -91.036       -3.230       42.903       50.809       32.236     1840.643     2581.585     1039.135        1.242        0.273      139.197       23.728        0.029      335.105        5.519      862.730
10/18/2014  06:39:00     -134.407      -84.360      -11.022       52.209       35.280       23.069     2725.773     1244.660      532.183        1.490        0.225      158.688       15.919        0.010      335.072        5.464      862.732
10/18/2014  06:40:00      -46.736      -34.548        8.239       58.727       44.446       30.138     3448.804     1975.486      908.287        0.489        0.317       58.119       27.345        0.221      335.074        5.468      862.729
10/18/2014  06:41:00      -88.440      -76.166       -8.631       48.287       38.475       28.306     2331.638     1480.312      801.230        0.915        0.231      116.717       26.999        0.054      335.021        5.380      862.720
10/18/2014  06:42:00     -125.912     -102.830       -4.476       40.208       32.385       28.459     1616.690     1048.756      809.890        1.496        0.174      162.566       26.958        0.027      335.021        5.379      862.712
10/18/2014  06:43:00      -89.737     -120.411       -4.975       33.316       32.403       23.668     1109.940     1049.970      560.168        1.265        0.136      150.171       20.629        0.019      335.032        5.397      862.713
10/18/2014  06:44:00      -92.536      -75.362      -13.424       28.670       25.141       17.096      821.997      632.078      292.286        0.808        0.087      119.341       11.619        0.009      335.065        5.454      862.717
10/18/2014  06:45:00      -60.793      -44.214        5.095       46.323       29.660       21.898     2145.794      879.718      479.525        0.459        0.175       75.171       22.234        0.087      335.050        5.428      862.727
10/18/2014  06:46:00      -77.127      -67.690      -11.884       41.830       38.374       16.413     1749.740     1472.567      269.388        0.708        0.175      102.618       18.274        0.032      335.031        5.395      862.731
10/18/2014  06:47:00      -73.105      -48.927       -6.189       25.868       32.618       18.722      669.173     1063.941      350.502        0.493        0.104       87.967       12.937        0.022      335.103        5.515      862.730
10/18/2014  06:48:00      -57.048      -30.144        4.152       55.064       25.342       20.472     3031.999      642.232      419.123        0.414        0.205       64.523       23.548        0.133      335.035        5.403      862.726
10/18/2014  06:49:00      -86.191      -46.992       -2.955       39.783       31.435       22.680     1582.661      988.131      514.371        0.636        0.154       98.169       14.733        0.023      335.078        5.475      862.721
10/18/2014  06:50:00      -82.925      -55.201       -2.637       31.553       28.706       21.886      995.560      824.012      479.015        0.611        0.115       99.618        7.339        0.005      335.093        5.499      862.715
10/18/2014  06:51:00      -75.944      -65.410       -6.812       45.895       35.211       21.711     2106.328     1239.799      471.350        0.695        0.191      100.230       24.983        0.062      335.037        5.406      862.710
10/18/2014  06:52:00      -82.317      -30.503        0.531       47.471       25.954       16.746     2253.473      673.625      280.412        0.546        0.160       87.787       17.556        0.040      335.051        5.430      862.712
10/18/2014  06:53:00     -119.578      -27.730       -6.114       31.340       30.587       20.704      982.194      935.574      428.646        0.873        0.117      122.751       16.818        0.019      334.893        5.166      862.718
10/18/2014  06:54:00     -112.872      -16.221       -7.930       36.936       31.849       22.473     1364.237     1014.332      505.056        0.797        0.144      114.031       21.312        0.035      334.809        5.027      862.732
10/18/2014  06:55:00     -145.730      -65.196       -6.259       37.265       31.681       20.064     1388.707     1003.670      402.568        1.416        0.140      159.649       19.304        0.015      334.811        5.030      862.745
10/18/2014  06:56:00     -138.383      -54.519        1.825       37.153       37.113       23.370     1380.331     1377.372      546.149        1.271        0.165      148.735       21.009        0.020      334.753        4.933      862.763
10/18/2014  06:57:00     -128.327      -54.603       -0.521       49.610       29.015       23.845     2461.110      841.871      568.598        1.166        0.194      139.461       21.754        0.024      334.783        4.984      862.788
10/18/2014  06:58:00      -88.881      -35.816        1.668       49.404       31.178       17.894     2440.758      972.090      320.202        0.646        0.187       95.826       18.904        0.039      334.834        5.068      862.809
10/18/2014  06:59:00     -133.226      -46.111       -7.306       25.913       28.038       18.013      671.477      786.108      324.463        1.086        0.089      140.980       13.582        0.009      334.832        5.065      862.826
10/18/2014  07:00:00     -118.949      -54.828        0.152       35.449       33.044       19.697     1256.642     1091.879      387.970        0.995        0.137      130.977       14.269        0.012      334.850        5.094      862.835
10/18/2014  07:01:00     -113.524      -48.619       -0.646       41.969       31.049       20.843     1761.385      964.031      434.421        0.921        0.158      123.497       21.813        0.031      334.816        5.037      862.837
10/18/2014  07:02:00     -125.218      -65.616       -1.560       38.999       32.125       16.564     1520.937     1032.041      274.374        1.141        0.141      141.368       16.109        0.013      334.861        5.112      862.830
10/18/2014  07:03:00     -103.058      -93.770       -8.625       38.692       32.938       21.613     1497.062     1084.892      467.138        1.127        0.152      139.333       20.594        0.022      334.888        5.158      862.824
10/18/2014  07:04:00      -72.760      -86.601        0.932       41.491       40.980       26.847     1721.516     1679.341      720.776        0.846        0.206      113.109       26.473        0.055      334.921        5.213      862.820
10/18/2014  07:05:00      -97.445      -73.319       -3.493       34.399       37.830       26.345     1183.319     1431.132      694.065        0.910        0.165      121.947       23.099        0.036      334.927        5.223      862.822
10/18/2014  07:06:00      -78.987      -76.033        7.398       50.797       41.642       27.221     2580.343     1734.024      741.007        0.856        0.253      109.635       20.099        0.034      334.964        5.285      862.822
10/18/2014  07:07:00      -86.015      -48.435        1.801       48.018       42.056       27.648     2305.697     1768.731      764.435        0.729        0.242       98.714       23.328        0.056      334.894        5.167      862.827
10/18/2014  07:08:00      -95.898      -75.778       -3.325       48.132       46.541       23.366     2316.658     2166.084      545.971        0.999        0.251      122.224       26.414        0.047      334.892        5.165      862.834
10/18/2014  07:09:00     -115.386      -84.994       -8.088       40.345       44.540       25.294     1627.756     1983.814      639.811        1.243        0.213      143.311       18.760        0.017      334.897        5.172      862.843
10/18/2014  07:10:00     -116.377     -100.296      -12.956       37.240       38.115       23.924     1386.815     1452.733      572.347        1.359        0.171      153.632       17.311        0.013      334.895        5.169      862.854
10/18/2014  07:11:00     -117.934     -101.606       -6.814       42.813       42.511       22.257     1832.950     1807.209      495.369        1.421        0.207      155.667       18.627        0.014      334.877        5.138      862.865
10/18/2014  07:12:00      -92.863      -52.385        3.158       41.950       30.167       22.528     1759.814      910.071      507.520        0.728        0.159      106.619       21.756        0.042      334.941        5.245      862.882
10/18/2014  07:13:00      -73.606      -74.716       -3.037       25.932       33.396       16.636      672.459     1115.314      276.741        0.654        0.103      104.883       12.152        0.013      334.931        5.230      862.898
10/18/2014  07:14:00      -65.494      -78.890       -1.486       28.504       27.066       20.592      812.503      732.582      424.026        0.624        0.098      102.533       14.207        0.019      334.942        5.248      862.918
10/18/2014  07:15:00     -100.824      -84.117       -9.943       29.057       33.680       22.562      844.292     1134.336      509.027        0.991        0.124      131.305       20.786        0.025      334.958        5.274      862.930
10/18/2014  07:16:00     -125.805     -102.115      -10.276       24.961       39.510       16.373      623.073     1561.018      268.089        1.441        0.123      162.032       11.993        0.005      334.995        5.335      862.945
10/18/2014  07:17:00     -139.242     -116.623      -19.443       30.183       36.476       18.771      911.015     1330.534      352.343        1.798        0.130      181.630       14.449        0.006      334.933        5.230      862.960
10/18/2014  07:18:00      -98.762      -76.375        1.063       46.678       39.698       25.941     2178.831     1575.901      672.952        1.001        0.221      124.848       26.445        0.045      334.921        5.212      862.965
10/18/2014  07:19:00     -127.710      -75.165       -2.916       33.488       41.087       19.826     1121.447     1688.181      393.076        1.258        0.160      148.188       15.411        0.011      334.997        5.339      862.974
10/18/2014  07:20:00      -85.460      -69.395        9.118       50.454       41.482       24.769     2545.625     1720.765      613.514        0.854        0.244      110.087       24.325        0.049      334.946        5.253      862.981
10/18/2014  07:21:00     -111.595      -89.337       -7.154       33.007       40.056       25.356     1089.441     1604.447      642.910        1.191        0.167      142.950       22.020        0.024      334.923        5.216      862.993
10/18/2014  07:22:00     -157.378     -143.365      -15.021       41.877       38.845       23.732     1753.664     1508.944      563.221        2.469        0.191      212.889       15.172        0.005      334.907        5.186      863.003
10/18/2014  07:23:00     -174.206     -151.839       -5.409       36.313       64.387       35.767     1318.656     4145.668     1279.285        3.009        0.337      231.090       26.193        0.013      334.810        5.024      863.011
10/18/2014  07:24:00     -115.904     -101.479        2.253       54.403       51.694       34.593     2959.680     2672.226     1196.702        1.528        0.341      154.051       33.991        0.049      334.806        5.022      863.012
10/18/2014  07:25:00     -121.155      -94.773       -2.550       64.754       64.126       39.625     4193.072     4112.177     1570.106        1.677        0.494      153.820       38.896        0.064      334.853        5.098      863.008
10/18/2014  07:26:00      -87.314      -49.975        1.505       72.511       49.833       40.443     5257.843     2483.375     1635.671        0.975        0.469      100.604       30.469        0.092      334.835        5.069      863.006
10/18/2014  07:27:00      -96.730      -52.120        7.761       69.271       48.353       37.168     4798.405     2338.010     1381.430        1.032        0.426      109.878       33.321        0.092      334.778        4.975      862.998
10/18/2014  07:28:00     -124.993      -74.477        4.655       80.669       56.089       47.473     6507.517     3146.019     2253.643        1.655        0.595      145.499       44.285        0.093      334.757        4.937      862.992
10/18/2014  07:29:00     -161.561     -107.621      -16.683       57.471       53.633       32.550     3302.968     2876.501     1059.527        2.260        0.362      194.124       26.437        0.019      334.726        4.886      862.990
10/18/2014  07:30:00     -153.184      -79.446      -14.857       56.637       38.264       40.163     3207.706     1464.123     1613.047        1.814        0.314      172.560       37.541        0.047      334.729        4.890      862.988
10/18/2014  07:31:00     -165.348     -132.335      -15.416       40.068       46.265       27.113     1605.470     2140.415      735.134        2.478        0.224      211.784       13.202        0.004      334.721        4.877      862.993
10/18/2014  07:32:00     -155.075      -86.986       -6.447       55.421       37.238       28.073     3071.509     1386.676      788.095        1.845        0.262      177.806       30.203        0.029      334.746        4.921      862.996
10/18/2014  07:33:00     -152.136     -106.369       -2.968       45.237       47.632       29.056     2046.391     2268.768      844.265        1.981        0.258      185.634       26.461        0.020      334.753        4.931      862.999
10/18/2014  07:34:00     -139.622     -107.977        2.040       57.065       52.820       32.915     3256.364     2789.989     1083.386        1.914        0.356      176.503       32.607        0.034      334.778        4.973      863.001
10/18/2014  07:35:00     -168.013     -123.330       -7.793       45.490       54.746       32.888     2069.364     2997.164     1081.620        2.482        0.307      208.420       28.808        0.019      334.813        5.029      863.015
10/18/2014  07:36:00     -149.905     -102.869      -10.493       47.803       55.925       34.355     2285.141     3127.644     1180.288        1.988        0.330      181.806       10.943        0.004      334.817        5.039      863.027
10/18/2014  07:37:00     -146.079      -98.551      -18.868       45.090       52.840       29.980     2033.087     2792.073      898.813        1.856        0.286      176.214       26.604        0.023      334.797        5.004      863.041
10/18/2014  07:38:00     -102.204      -61.346        4.576       55.263       56.732       29.943     3054.027     3218.571      896.599        1.070        0.358      119.201       35.467        0.089      334.769        4.960      863.063
10/18/2014  07:39:00     -120.030      -90.315       -8.641       39.670       32.852       23.567     1573.736     1079.264      555.381        1.292        0.160      150.213       18.995        0.016      334.824        5.052      863.079
10/18/2014  07:40:00     -131.924     -120.027       -9.440       53.349       46.078       24.140     2846.067     2123.199      582.748        1.872        0.278      178.355       27.039        0.023      334.801        5.010      863.088
10/18/2014  07:41:00     -126.544     -132.848       -4.392       48.395       44.879       31.266     2342.102     2014.102      977.571        1.951        0.267      183.472       31.153        0.029      334.805        5.019      863.089
10/18/2014  07:42:00     -130.890      -76.124       -2.699       36.322       39.842       23.871     1319.276     1587.376      569.844        1.320        0.174      151.417       16.211        0.011      334.853        5.099      863.077
10/18/2014  07:43:00     -125.135      -73.833       -1.870       36.962       31.366       22.026     1366.162      983.843      485.158        1.197        0.142      145.293       17.950        0.015      334.886        5.153      863.074
10/18/2014  07:44:00     -111.538      -65.449       -3.263       39.969       21.129       21.350     1597.536      446.422      455.831        0.962        0.125      129.323       20.816        0.026      334.883        5.150      863.069
10/18/2014  07:45:00      -86.905      -65.109       -8.787       17.070       19.318       14.050      291.392      373.175      197.395        0.637        0.043      108.589        5.395        0.002      334.909        5.193      863.077
10/18/2014  07:46:00      -52.286      -44.952       -4.817       25.917       23.613       16.821      671.677      557.591      282.961        0.314        0.076       68.954       12.862        0.035      334.989        5.326      863.085
10/18/2014  07:47:00      -87.486      -33.040        1.314       28.425       32.700       20.916      807.973     1069.322      437.481        0.553        0.116       93.517       14.559        0.024      335.021        5.379      863.098
10/18/2014  07:48:00     -115.746      -47.793       -1.657       27.798       23.899       17.794      772.755      571.177      316.622        0.867        0.083      125.225       13.844        0.012      334.945        5.253      863.099
10/18/2014  07:49:00      -98.298      -46.893       -1.948       27.923       35.817       18.596      779.672     1282.825      345.793        0.714        0.120      108.910       14.921        0.019      335.031        5.396      863.103
10/18/2014  07:50:00      -55.453      -59.621        3.611       42.402       33.130       22.074     1797.944     1097.619      487.255        0.501        0.169       81.423       18.802        0.053      335.049        5.426      863.117
10/18/2014  07:51:00      -62.822      -60.485       -9.100       50.918       34.679       17.827     2592.672     1202.640      317.790        0.590        0.206       87.207       10.093        0.013      335.053        5.432      863.130
10/18/2014  07:52:00      -46.835      -38.288        6.201       42.655       47.884       28.577     1819.468     2292.868      816.624        0.431        0.246       60.494       31.873        0.278      335.080        5.478      863.133
10/18/2014  07:53:00      -81.494      -62.692       -6.252       50.128       39.993       23.255     2512.806     1599.466      540.780        0.763        0.233      102.818       20.068        0.038      334.994        5.335      863.135
10/18/2014  07:54:00      -76.348      -27.816       16.151       43.036       32.543       25.190     1852.109     1059.066      634.554        0.520        0.177       81.258       14.611        0.032      335.044        5.417      863.142
10/18/2014  07:55:00      -77.096      -20.475       12.666       52.182       28.404       24.657     2722.982      806.786      607.959        0.533        0.207       79.769       26.488        0.110      335.061        5.446      863.147
10/18/2014  07:56:00      -59.928      -38.620        4.772       56.113       36.194       30.753     3148.654     1309.988      945.721        0.525        0.270       71.294       26.050        0.134      335.144        5.584      863.152
10/18/2014  07:57:00      -88.224      -50.277      -12.044       34.499       28.051       24.994     1190.155      786.866      624.680        0.653        0.130      101.544       20.621        0.041      335.132        5.563      863.173
10/18/2014  07:58:00      -58.548      -34.894       -2.085       53.756       35.350       26.115     2889.682     1249.611      682.001        0.473        0.241       68.157       24.572        0.130      335.230        5.725      863.182
10/18/2014  07:59:00      -47.663      -26.116       -3.827       37.846       27.411       25.574     1432.347      751.339      654.025        0.290        0.142       54.349       11.216        0.043      335.212        5.695      863.209
10/18/2014  08:00:00      -91.380      -27.169        0.072       49.960       22.905       20.084     2495.966      524.631      403.383        0.626        0.171       95.334       21.363        0.050      335.230        5.725      863.221
10/18/2014  08:01:00      -94.970      -60.374        4.363       39.585       32.216       26.712     1566.960     1037.848      713.547        0.800        0.166      112.536       26.832        0.057      335.146        5.586      863.245
10/18/2014  08:02:00      -96.167      -91.966       -8.426       34.423       27.197       20.282     1184.950      739.673      411.376        1.006        0.117      133.063       17.818        0.018      335.152        5.597      863.264
10/18/2014  08:03:00     -104.441      -59.301      -13.669       38.014       27.091       18.971     1445.045      733.916      359.906        0.857        0.127      120.102       16.265        0.018      335.200        5.674      863.283
10/18/2014  08:04:00     -124.974      -85.483      -11.214       50.133       31.169       20.577     2513.337      971.530      423.408        1.348        0.195      151.413       20.652        0.019      335.256        5.769      863.292
10/18/2014  08:05:00     -114.020      -99.464      -12.474       26.259       27.264       17.769      689.561      743.341      315.742        1.240        0.087      151.307       13.459        0.008      335.235        5.734      863.303
10/18/2014  08:06:00      -83.392      -69.867       -3.944       35.069       33.423       21.124     1229.868     1117.079      446.212        0.732        0.140      108.792       22.127        0.041      335.367        5.952      863.308
10/18/2014  08:07:00      -75.011      -61.854        4.412       37.801       33.750       20.227     1428.910     1139.071      409.144        0.622        0.149       97.224       10.539        0.012      335.341        5.910      863.307
10/18/2014  08:08:00      -90.703      -71.401       -8.404       34.977       36.156       22.638     1223.405     1307.223      512.463        0.822        0.152      115.435       12.942        0.013      335.284        5.814      863.304
10/18/2014  08:09:00     -102.047      -75.692       -0.778       45.258       30.720       20.640     2048.304      943.691      426.015        0.978        0.171      127.055       20.488        0.026      335.311        5.858      863.307
10/18/2014  08:10:00     -112.715      -84.103      -10.572       27.889       35.594       19.449      777.798     1266.924      378.280        1.116        0.121      140.634       11.917        0.007      335.309        5.856      863.315
10/18/2014  08:11:00     -112.681      -62.234       -3.600       36.326       38.356       22.697     1319.609     1471.145      515.153        0.994        0.165      128.725       18.147        0.020      335.356        5.934      863.316
10/18/2014  08:12:00      -86.676      -79.184       -8.046       30.619       32.540       14.910      937.541     1058.856      222.298        0.803        0.111      117.400       16.929        0.021      335.394        5.998      863.328
10/18/2014  08:13:00      -76.038      -96.387       -7.062       28.895       41.554       21.001      834.935     1726.699      441.058        0.906        0.150      122.769       10.933        0.008      335.439        6.074      863.324
10/18/2014  08:14:00      -81.154     -100.860       -9.338       35.540       34.760       24.378     1263.124     1208.277      594.273        0.996        0.153      129.456       27.133        0.044      335.495        6.166      863.322
10/18/2014  08:15:00      -81.150      -72.648       -8.041       28.979       23.906       18.003      839.781      571.485      324.116        0.683        0.087      108.918       13.716        0.016      335.514        6.198      863.331
10/18/2014  08:16:00      -51.400      -40.224       -1.197       29.496       36.935       20.992      870.033     1364.203      440.645        0.347        0.134       65.269       14.560        0.050      335.576        6.302      863.335
10/18/2014  08:17:00      -84.101      -85.974      -12.777       17.217       24.246       10.652      296.439      587.884      113.475        0.781        0.050      120.268        8.955        0.006      335.493        6.163      863.334
10/18/2014  08:18:00      -76.353      -66.805        0.060       24.666       29.285       21.806      608.425      857.622      475.501        0.612        0.097      101.453       18.453        0.033      335.545        6.250      863.335
10/18/2014  08:19:00      -75.905      -91.123       -5.017       26.724       28.409       20.261      714.184      807.070      410.508        0.801        0.097      118.596       20.694        0.030      335.525        6.216      863.323
10/18/2014  08:20:00      -92.284      -76.918      -10.154       28.501       30.452       16.939      812.294      927.338      286.918        0.828        0.101      120.136       12.939        0.012      335.569        6.290      863.329
10/18/2014  08:21:00      -92.668      -62.793       -6.160       18.105       25.565       17.823      327.809      653.567      317.653        0.693        0.065      111.939       12.498        0.012      335.648        6.422      863.337
10/18/2014  08:22:00      -56.617      -79.844      -11.308       21.315       21.938       15.972      454.324      481.287      255.105        0.545        0.060       97.880       11.198        0.013      335.606        6.354      863.349
10/18/2014  08:23:00      -61.182      -66.045      -11.656       27.229       19.969       16.145      741.418      398.742      260.666        0.482        0.070       90.028       11.500        0.016      335.674        6.465      863.359
10/18/2014  08:24:00      -63.678      -70.439       -8.504       24.076       19.266       15.280      579.644      371.191      233.473        0.514        0.059       94.956       12.858        0.018      335.672        6.463      863.364
10/18/2014  08:25:00      -74.908      -60.368      -10.019       14.037       20.680       11.626      197.040      427.649      135.174        0.506        0.038       96.205        3.650        0.001      335.735        6.567      863.370
10/18/2014  08:26:00      -61.197      -68.648       -5.160       25.486       26.139       20.059      649.530      683.259      402.362        0.511        0.087       91.965       12.315        0.018      335.743        6.583      863.374
10/18/2014  08:27:00      -91.741      -74.838      -11.240       24.360       20.261       17.716      593.424      410.494      313.863        0.773        0.066      118.394        8.885        0.006      335.754        6.599      863.375
10/18/2014  08:28:00      -62.761      -73.620       -5.575       23.835       22.814       13.686      568.130      520.489      187.299        0.533        0.064       96.742        8.099        0.007      335.777        6.636      863.386
10/18/2014  08:29:00      -59.884      -85.169       -3.561       24.350       19.036       11.812      592.914      362.355      139.523        0.597        0.055      104.115       13.916        0.018      335.790        6.660      863.399
10/18/2014  08:30:00      -49.846      -78.370        4.203       29.773       28.015       15.838      886.410      784.820      250.855        0.528        0.096       92.879       14.068        0.023      335.869        6.789      863.408
10/18/2014  08:31:00      -60.142      -41.088        3.988       36.356       26.759       25.267     1321.776      716.042      638.419        0.400        0.134       72.837       27.189        0.139      335.964        6.948      863.410
10/18/2014  08:32:00      -68.638      -38.628       -2.307       21.215       24.192       12.492      450.077      585.258      156.054        0.370        0.060       78.761       13.303        0.029      335.980        6.974      863.413
10/18/2014  08:33:00      -17.915      -31.991       17.098       32.513       30.365       22.254     1057.104      922.031      495.230        0.206        0.124       36.666       20.556        0.314      336.135        7.232      863.412
10/18/2014  08:34:00      -36.313      -38.757        5.379       28.429       22.898       16.650      808.211      524.319      277.226        0.223        0.080       53.111       18.978        0.128      336.100        7.175      863.415
10/18/2014  08:35:00      -55.736      -27.677       -5.107       18.143       20.810        8.650      329.181      433.065       74.831        0.237        0.042       62.229        7.765        0.016      336.070        7.125      863.421
10/18/2014  08:36:00        0.816      -61.616        5.193       23.376       26.052       11.711      546.416      678.693      137.154        0.259        0.068       61.621       11.397        0.034      336.103        7.179      863.427
10/18/2014  08:37:00      -35.620      -62.841       -4.404       18.300       12.599       12.105      334.893      158.728      146.519        0.294        0.032       72.235        8.506        0.014      336.084        7.149      863.443
10/18/2014  08:38:00      -30.719      -60.120       -3.125       11.737       12.304        8.536      137.766      151.376       72.861        0.246        0.018       67.513        4.012        0.004      336.103        7.181      863.456
10/18/2014  08:39:00      -24.724      -38.110       -3.060        5.075        8.744        5.957       25.751       76.453       35.487        0.111        0.007       45.428        5.044        0.012      336.126        7.218      863.464
10/18/2014  08:40:00      -33.383      -34.646       -1.539        8.529       11.454        6.927       72.736      131.196       47.987        0.128        0.013       48.112        4.557        0.009      336.240        7.408      863.461
10/18/2014  08:41:00      -43.863      -36.316       -4.263       15.945       21.408        9.612      254.247      458.313       92.394        0.203        0.040       56.946        5.155        0.008      336.271        7.461      863.464
10/18/2014  08:42:00      -56.885      -51.134       -2.486       15.575       24.494       16.675      242.589      599.964      278.045        0.349        0.056       76.489       13.624        0.032      336.318        7.540      863.467
10/18/2014  08:43:00      -59.086      -33.375       -6.245       18.034       12.638       10.992      325.220      159.721      120.817        0.262        0.030       67.860        7.635        0.013      336.380        7.642      863.464
10/18/2014  08:44:00      -61.620      -27.945      -12.688       20.591       18.771       15.709      424.005      352.366      246.766        0.288        0.051       67.661        9.095        0.018      336.388        7.657      863.468
10/18/2014  08:45:00      -85.143      -38.289       -7.353       28.269       25.053       20.745      799.115      627.643      430.355        0.531        0.093       93.356       18.483        0.039      336.330        7.559      863.477
10/18/2014  08:46:00      -27.373      -29.586       -7.523       26.010       33.338       15.728      676.523     1111.401      247.378        0.186        0.102       40.307        8.291        0.042      336.446        7.754      863.481
10/18/2014  08:47:00      -67.125      -53.012      -12.119       15.568       19.274       11.337      242.365      371.503      128.538        0.410        0.037       85.533        6.491        0.006      336.328        7.556      863.492
10/18/2014  08:48:00      -44.149      -27.053       -2.420       22.163       21.912       12.025      491.196      480.147      144.599        0.190        0.056       51.779        5.761        0.012      336.433        7.731      863.498
10/18/2014  08:49:00      -71.915       -5.282        3.768       54.292       38.134       23.176     2947.637     1454.179      537.109        0.508        0.247       72.109       28.510        0.156      336.558        7.939      863.500
10/18/2014  08:50:00      -45.059      -42.800        6.033       51.524       24.884       24.422     2654.724      619.197      596.421        0.388        0.194       62.146       20.992        0.114      336.575        7.969      863.500
10/18/2014  08:51:00      -34.914      -12.234       -0.579       33.721       19.806       18.018     1137.098      392.280      324.635        0.161        0.093       36.995       18.227        0.243      336.699        8.177      863.494
10/18/2014  08:52:00      -67.300      -41.905      -10.491       30.489       27.138       16.334      929.602      736.465      266.805        0.416        0.097       79.280       12.250        0.024      336.494        7.834      863.505
10/18/2014  08:53:00      -77.882      -59.991       -8.187       22.020       26.099       13.817      484.880      681.159      190.911        0.554        0.068       98.308        5.991        0.004      336.523        7.882      863.494
10/18/2014  08:54:00      -55.330      -55.695      -11.085       18.437       15.050       18.849      339.937      226.518      355.278        0.360        0.046       78.507        5.402        0.005      336.536        7.904      863.491
10/18/2014  08:55:00      -39.777      -29.291       -4.677       14.001       16.932       12.227      196.030      286.708      149.494        0.155        0.032       49.398        8.023        0.026      336.616        8.039      863.492
10/18/2014  08:56:00      -53.281      -16.818       -1.595       13.265       10.999        8.074      175.949      120.985       65.188        0.174        0.018       55.873        4.263        0.006      336.653        8.100      863.491
10/18/2014  08:57:00      -42.999       14.196       -9.860       31.708       23.128       13.073     1005.410      534.925      170.896        0.193        0.086       45.282        6.778        0.022      336.775        8.304      863.499
10/18/2014  08:58:00      -24.723        6.829       -8.024       21.213       21.927       14.708      450.000      480.781      216.320        0.093        0.057       25.649       13.083        0.260      337.021        8.715      863.509
10/18/2014  08:59:00      -17.971       -2.038        8.643       20.757       26.115       17.480      430.833      682.004      305.537        0.091        0.071       18.086       16.640        0.846      337.223        9.051      863.523
10/18/2014  09:00:00      -38.205      -57.904      -16.161       28.076       25.784       19.029      788.254      664.822      362.120        0.344        0.091       69.372       14.629        0.044      336.801        8.346      863.531
10/18/2014  09:01:00      -27.479      -14.572       11.042       24.212       37.199       18.948      586.203     1383.767      359.037        0.171        0.116       31.104       20.985        0.455      337.130        8.897      863.539
10/18/2014  09:02:00      -50.257      -28.741       -6.153       18.114       25.384       15.901      328.133      644.338      252.845        0.231        0.061       57.895       12.010        0.043      336.722        8.215      863.535
10/18/2014  09:03:00      -18.109        9.007       28.525       25.971       12.401       12.817      674.481      153.796      164.276        0.111        0.050       20.225       12.827        0.402      337.281        9.151      863.530
10/18/2014  09:04:00       -1.267       49.540       24.319       28.131       34.240       21.779      791.362     1172.377      474.340        0.274        0.122       49.556       19.168        0.150      337.301        9.183      863.529
10/18/2014  09:05:00      -23.170       18.716       18.819       26.156       26.242       24.334      684.113      688.668      592.120        0.160        0.098       29.785       24.849        0.696      337.183        8.985      863.523
10/18/2014  09:06:00       -6.943       -6.092       -0.486       16.627       25.460       18.423      276.452      648.196      339.423        0.067        0.063        9.237       15.984        2.994      337.281        9.150      863.522
10/18/2014  09:07:00      -56.684      -25.976        0.229       21.178       27.481       15.245      448.507      755.230      232.403        0.266        0.072       62.352       10.645        0.029      336.880        8.478      863.532
10/18/2014  09:08:00      -38.676      -25.581        0.718       38.871       22.763       19.127     1510.954      518.154      365.849        0.227        0.120       46.370       18.791        0.164      337.160        8.948      863.538
10/18/2014  09:09:00      -33.994      -11.331       10.395       29.181       19.577       15.289      851.508      383.252      233.753        0.143        0.073       35.833       15.967        0.199      337.174        8.969      863.544
10/18/2014  09:10:00      -27.942       11.641       -2.196       32.741       14.043       17.871     1071.954      197.215      319.372        0.125        0.079       30.270       20.821        0.473      337.124        8.888      863.550
10/18/2014  09:11:00      -19.112       16.826        3.808       18.735       14.933       22.313      350.992      222.984      497.855        0.087        0.054       25.463       15.233        0.358      337.431        9.400      863.561
10/18/2014  09:12:00        4.495       16.824       33.150       18.005       19.835       18.552      324.174      393.431      344.189        0.123        0.053       17.414       14.168        0.662      337.720        9.884      863.564
10/18/2014  09:13:00       24.479       16.123       11.347       51.121       37.749       33.711     2613.397     1424.982     1136.448        0.308        0.259       29.312       35.828        1.494      337.360        9.281      863.553
10/18/2014  09:14:00       75.300       52.518       26.720       37.761       39.673       37.935     1425.887     1573.947     1439.031        0.679        0.222       91.806       27.172        0.088      337.068        8.791      863.547
10/18/2014  09:15:00       64.498       15.848       12.573       42.839       33.411       25.821     1835.156     1116.317      666.732        0.409        0.181       66.416       16.581        0.062      337.317        9.209      863.544
10/18/2014  09:16:00       69.103       76.005       36.791       48.333       37.856       41.237     2336.063     1433.075     1700.461        0.869        0.273      102.723       25.613        0.062      337.340        9.247      863.537
10/18/2014  09:17:00       14.997       40.878       74.643       30.285       28.452       18.272      917.203      809.506      333.870        0.476        0.103       43.543        8.908        0.042      337.672        9.804      863.534
10/18/2014  09:18:00       53.902       79.890       74.571       38.898       33.403       23.473     1513.056     1115.787      550.965        0.901        0.159       96.373       20.528        0.045      337.210        9.030      863.549
10/18/2014  09:19:00       60.984       59.584       44.486       43.471       36.080       32.471     1889.740     1301.772     1054.381        0.675        0.212       85.260       22.714        0.071      337.350        9.264      863.549
10/18/2014  09:20:00       69.142       74.239       47.711       49.511       28.801       32.044     2451.361      829.471     1026.810        0.844        0.215      101.449       19.658        0.038      337.445        9.425      863.548
10/18/2014  09:21:00       12.197       16.948       60.931       32.299       48.167       21.441     1043.233     2320.107      459.721        0.399        0.191       20.881       25.496        1.491      337.688        9.830      863.542
10/18/2014  09:22:00       57.304       56.508       27.438       58.314       44.195       42.965     3400.575     1953.194     1845.950        0.721        0.360       80.479       36.362        0.204      337.469        9.464      863.538
10/18/2014  09:23:00      108.120       66.332        5.469       31.713       38.234       25.910     1005.697     1461.839      671.345        0.963        0.157      126.845       16.631        0.017      337.351        9.266      863.536
10/18/2014  09:24:00       68.285       85.609        4.874       34.075       26.776       30.300     1161.076      716.940      918.072        0.741        0.140      109.507       13.234        0.015      337.369        9.296      863.534
10/18/2014  09:25:00       22.274       39.395       23.155       26.462       21.999       28.372      700.255      483.937      804.970        0.229        0.099       45.256       18.812        0.173      337.784        9.993      863.539
10/18/2014  09:26:00       15.716       15.350        0.011       47.310       26.141       20.221     2238.214      683.349      408.890        0.191        0.167       21.968       13.228        0.363      337.794       10.010      863.543
10/18/2014  09:27:00       74.938       28.098       10.188       33.012       29.048       28.459     1089.822      843.783      809.912        0.463        0.137       80.032       18.244        0.052      337.541        9.585      863.543
10/18/2014  09:28:00       43.065       45.058       11.197       36.692       37.279       32.529     1346.322     1389.758     1058.119        0.390        0.190       62.329       26.781        0.185      337.795       10.010      863.546
10/18/2014  09:29:00       40.479       58.326       -6.287       36.548       39.997       23.501     1335.737     1599.748      552.304        0.428        0.174       70.996       21.595        0.093      337.539        9.581      863.537
10/18/2014  09:30:00       65.510       58.929        2.228       41.347       26.742       26.314     1709.589      715.152      692.446        0.544        0.156       88.115       15.284        0.030      337.482        9.486      863.538
10/18/2014  09:31:00       22.016       16.613       17.912       37.379       20.528       20.130     1397.205      421.384      405.206        0.165        0.111       27.581       10.005        0.132      337.793       10.007      863.543
10/18/2014  09:32:00       39.158       32.290        5.206       31.426       18.483       25.541      987.579      341.634      652.330        0.229        0.099       50.754       20.118        0.157      337.565        9.624      863.545
10/18/2014  09:33:00      -13.458        4.126       17.854       11.540       19.446       16.512      133.180      378.142      272.652        0.065        0.039       14.077        8.064        0.328      338.151       10.608      863.546
10/18/2014  09:34:00      -10.675       15.764       29.102       19.501       15.870       14.792      380.272      251.853      218.800        0.103        0.043       19.038        6.392        0.113      338.311       10.875      863.549
10/18/2014  09:35:00      -32.315        7.487       13.408       10.936       12.148       19.903      119.596      147.563      396.137        0.097        0.033       33.171       10.536        0.101      337.827       10.065      863.548
10/18/2014  09:36:00      -42.797      -16.977       -9.779       15.685       12.837        8.417      246.030      164.800       70.854        0.135        0.024       46.042        6.673        0.021      337.686        9.828      863.543
10/18/2014  09:37:00      -48.528      -26.519        0.319       28.011       23.251       16.047      784.616      540.629      257.506        0.232        0.079       55.301       12.261        0.049      337.663        9.789      863.541
10/18/2014  09:38:00      -30.006      -37.167        6.908       20.787       23.784       16.389      432.098      565.682      268.604        0.180        0.063       47.767       13.864        0.084      337.790       10.003      863.540
10/18/2014  09:39:00      -49.077      -46.686       -5.304       20.405       13.919        8.034      416.376      193.730       64.543        0.265        0.034       67.736        7.026        0.011      337.610        9.700      863.541
10/18/2014  09:40:00      -63.748      -37.493       -4.236       30.622       24.570       13.888      937.730      603.671      192.872        0.361        0.087       73.956        7.288        0.010      337.692        9.839      863.537
10/18/2014  09:41:00      -61.460      -51.317       -4.447       17.317       17.759       14.233      299.871      315.387      202.580        0.362        0.041       80.067        3.404        0.002      337.684        9.824      863.531
10/18/2014  09:42:00       -8.207      -47.206        2.613       21.699       14.865       15.444      470.865      220.954      238.511        0.162        0.047       47.914       14.314        0.089      337.780        9.985      863.534
10/18/2014  09:43:00      -16.741      -18.909        3.104       14.206       15.313        8.625      201.816      234.474       74.392        0.058        0.026       25.255        5.978        0.056      337.947       10.266      863.531
10/18/2014  09:44:00      -43.165      -20.613       -1.560       11.205        9.250        9.592      125.548       85.563       92.008        0.130        0.015       47.835        4.335        0.008      337.878       10.150      863.526
10/18/2014  09:45:00      -48.548      -22.819       -2.473       20.063       15.138       11.679      402.527      229.155      136.391        0.183        0.038       53.644       10.209        0.036      337.897       10.181      863.532
10/18/2014  09:46:00      -29.241       -7.492        8.445       22.118       15.850       14.183      489.210      251.207      201.170        0.096        0.047       30.186       14.361        0.226      338.301       10.860      863.541
10/18/2014  09:47:00      -14.303       -1.152       16.776       11.694        9.675       12.120      136.755       93.614      146.903        0.043        0.019       14.350        9.865        0.473      338.920       11.900      863.546
10/18/2014  09:48:00      -40.179      -21.001        0.304       12.216       18.183       14.063      149.232      330.610      197.774        0.137        0.034       45.336        7.970        0.031      338.094       10.513      863.543
10/18/2014  09:49:00        1.717      -64.162        2.820       43.513       45.643       30.202     1893.423     2083.256      912.189        0.451        0.244       64.185       19.510        0.092      338.080       10.489      863.536
10/18/2014  09:50:00       12.497       -7.738       40.982       25.236       40.272       18.215      636.855     1621.872      331.779        0.224        0.130       14.699       18.463        1.578      338.541       11.262      863.532
10/18/2014  09:51:00        0.076       43.083       28.130       20.343       24.930       30.109      413.818      621.514      906.554        0.229        0.097       43.083       15.577        0.131      338.361       10.960      863.533
10/18/2014  09:52:00       21.194       22.086       42.800       30.084       43.636       29.112      905.070     1904.129      847.499        0.321        0.183       30.610       29.458        0.926      338.629       11.412      863.528
10/18/2014  09:53:00      -33.425       -1.537       -4.612       26.190       22.362       17.942      685.899      500.060      321.927        0.132        0.075       33.460       17.762        0.282      338.304       10.864      863.536
10/18/2014  09:54:00      -60.551      -14.782       -9.227       24.812       13.361       13.987      615.655      178.512      195.642        0.248        0.049       62.329       12.335        0.039      338.206       10.701      863.537
10/18/2014  09:55:00      -71.077      -58.251       -1.693       35.960       33.945       20.509     1293.157     1152.277      420.635        0.566        0.143       91.897       17.378        0.036      338.129       10.571      863.541
10/18/2014  09:56:00      -55.318      -19.245        4.625       29.375       24.405       19.384      862.884      595.592      375.726        0.264        0.092       58.570       18.687        0.102      338.206       10.700      863.544
10/18/2014  09:57:00      -12.553        5.460       20.026       22.342       12.231       17.392      499.152      149.600      302.499        0.077        0.048       13.689       15.102        1.217      338.874       11.823      863.545
10/18/2014  09:58:00        7.898       14.899       24.550       20.988       14.725       11.514      440.516      216.820      132.581        0.084        0.039       16.863       10.314        0.374      339.012       12.055      863.542
10/18/2014  09:59:00       -8.801      -22.317       12.189       40.761       60.255       26.870     1661.443     3630.661      721.985        0.337        0.301       23.990       21.637        0.813      338.738       11.593      863.531
10/18/2014  10:00:00       33.074       32.314       14.742       29.822       46.182       31.984      889.380     2132.807     1022.970        0.320        0.202       46.240       27.026        0.342      338.695       11.522      863.517
10/18/2014  10:01:00      -15.214        5.942        8.672       33.963       28.567       17.660     1153.517      816.083      311.876        0.131        0.114       16.333       14.483        0.786      338.939       11.931      863.506
10/18/2014  10:02:00      -29.902      -16.170        3.292       27.862       18.047       17.899      776.278      325.680      320.382        0.129        0.071       33.994       14.784        0.189      338.683       11.501      863.489
10/18/2014  10:03:00      -43.898      -26.570       11.133       42.330       41.849       25.336     1791.864     1751.366      641.900        0.347        0.209       51.313       25.189        0.241      338.661       11.465      863.481
10/18/2014  10:04:00      -81.000      -83.183       -0.085       34.873       31.689       23.117     1216.112     1004.176      534.405        0.812        0.138      116.105       19.463        0.028      338.290       10.840      863.473
10/18/2014  10:05:00      -92.634      -85.086        1.983       34.508       33.080       19.520     1190.836     1094.266      381.028        0.924        0.133      125.780       14.471        0.013      338.293       10.846      863.461
10/18/2014  10:06:00      -40.204      -47.880        6.452       28.700       36.345       18.240      823.677     1320.980      332.698        0.321        0.124       62.521       16.588        0.070      338.563       11.300      863.446
10/18/2014  10:07:00      -13.477      -30.384        7.892       25.047       25.429       15.950      627.350      646.655      254.398        0.135        0.076       33.239        7.225        0.047      338.776       11.659      863.439
10/18/2014  10:08:00      -43.318      -20.030        5.942       15.406       18.100       13.276      237.336      327.620      176.248        0.153        0.037       47.725       10.254        0.046      338.591       11.345      863.434
10/18/2014  10:09:00       -8.147       17.485       34.103       16.705       28.350       28.442      279.045      803.698      808.958        0.171        0.095       19.290       25.201        1.707      339.430       12.759      863.433
10/18/2014  10:10:00       28.833       65.390       66.715       39.774       25.726       16.732     1581.944      661.809      279.954        0.604        0.126       71.464       11.500        0.026      338.886       11.843      863.430
10/18/2014  10:11:00       -9.949       12.868       14.552       28.519       24.150       19.154      813.354      583.219      366.890        0.112        0.088       16.266       18.268        1.261      338.799       11.697      863.426
10/18/2014  10:12:00      -31.131       -2.511       12.011       26.712       26.575       24.548      713.552      706.255      602.594        0.157        0.101       31.232       22.868        0.536      339.098       12.200      863.420
10/18/2014  10:13:00       14.620       -6.512       40.120       31.627       49.868       33.637     1000.261     2486.841     1131.464        0.324        0.231       16.004       18.480        1.333      339.511       12.895      863.411
10/18/2014  10:14:00       36.326      -63.620        6.874       46.374       96.588       48.000     2150.554     9329.243     2303.959        0.960        0.689       73.260       54.654        0.557      339.215       12.397      863.399
10/18/2014  10:15:00       10.800      -31.854       40.259       31.882       52.784       30.071     1016.440     2786.196      904.293        0.373        0.235       33.635       20.593        0.375      339.306       12.550      863.385
10/18/2014  10:16:00       35.424      -24.332       14.858       36.637       44.643       37.569     1342.283     1993.011     1411.422        0.341        0.237       42.976       26.782        0.388      339.082       12.172      863.379
10/18/2014  10:17:00        8.398      -18.932       43.827       30.318       60.125       31.047      919.162     3614.980      963.923        0.392        0.275       20.712       19.547        0.891      339.315       12.564      863.367
10/18/2014  10:18:00       30.782      -44.556       39.047       37.691       49.128       34.847     1420.580     2413.542     1214.284        0.475        0.252       54.155       30.112        0.309      339.167       12.315      863.350
10/18/2014  10:19:00       22.948      -35.683       26.579       26.569       38.162       30.485      705.911     1456.340      929.333        0.280        0.155       42.425       17.524        0.171      339.345       12.615      863.332
10/18/2014  10:20:00      -13.689        2.587        6.885       27.227       30.708       25.939      741.328      942.997      672.807        0.130        0.118       13.931       22.485        2.605      339.181       12.340      863.309
10/18/2014  10:21:00       40.971      -33.731       25.493       37.463       60.026       38.556     1403.482     3603.081     1486.528        0.498        0.325       53.070       25.894        0.238      339.243       12.443      863.293
10/18/2014  10:22:00       82.652      -71.684       -8.617       42.303       49.024       35.931     1789.541     2403.392     1291.024        0.876        0.274      109.408       25.169        0.053      339.077       12.163      863.283
10/18/2014  10:23:00       11.169      -16.453       11.075       19.463       32.715       28.390      378.825     1070.269      805.989        0.139        0.113       19.886       23.398        1.384      339.143       12.275      863.279
10/18/2014  10:24:00       48.466       16.407       10.562       54.190       45.644       32.600     2936.585     2083.364     1062.737        0.441        0.304       51.168       18.869        0.136      339.039       12.100      863.274
10/18/2014  10:25:00       72.599       40.462       -1.820       52.106       56.581       35.964     2715.004     3201.356     1293.385        0.706        0.360       83.113       23.892        0.083      339.231       12.423      863.271
10/18/2014  10:26:00       74.572       76.000       62.525       51.311       54.608       47.196     2632.810     2981.999     2227.437        1.154        0.392      106.475       32.258        0.092      339.272       12.492      863.265
10/18/2014  10:27:00       47.814       80.709       68.489       55.728       50.545       48.964     3105.651     2554.832     2397.430        1.077        0.403       93.809       37.082        0.156      339.135       12.260      863.266
10/18/2014  10:28:00       82.605       72.574       50.069       57.631       37.274       42.706     3321.317     1389.331     1823.817        1.056        0.327      109.957       28.239        0.066      339.071       12.153      863.255
10/18/2014  10:29:00       33.300       49.124       24.865       38.739       36.544       32.683     1500.685     1335.445     1068.171        0.402        0.195       59.347       26.469        0.199      339.499       12.875      863.247
10/18/2014  10:30:00       32.339      -17.465        7.014       32.448       28.271       27.307     1052.883      799.226      745.688        0.200        0.130       36.754       25.347        0.476      339.494       12.866      863.227
10/18/2014  10:31:00       24.495       10.973       14.760       26.110       22.651       27.224      681.749      513.055      741.156        0.144        0.097       26.841       14.665        0.299      339.780       13.348      863.216
10/18/2014  10:32:00       11.940        2.766       41.866       39.904       70.351       33.940     1592.297     4949.315     1151.914        0.480        0.385       12.256       38.672        9.955      339.665       13.154      863.197
10/18/2014  10:33:00       27.551       63.213       70.199       47.006       45.403       32.019     2209.570     2061.426     1025.218        0.749        0.265       68.956       32.624        0.224      339.367       12.651      863.196
10/18/2014  10:34:00       10.975      -14.039       58.699       31.520       72.510       28.589      993.487     5257.768      817.332        0.541        0.353       17.820       29.005        2.649      339.666       13.156      863.176
10/18/2014  10:35:00      141.941       84.656       46.957       66.852       44.674       38.755     4469.179     1995.807     1501.933        1.874        0.398      165.269       34.798        0.044      339.170       12.320      863.178
10/18/2014  10:36:00      132.918       93.435       22.662       51.047       37.155       40.232     2605.816     1380.474     1618.645        1.626        0.280      162.472       21.290        0.017      339.212       12.390      863.179
10/18/2014  10:37:00      108.968       47.465       25.580       70.448       41.393       35.917     4962.977     1713.357     1290.037        1.137        0.398      118.857        8.131        0.005      339.498       12.871      863.174
10/18/2014  10:38:00      145.914       67.626       24.823       32.185       41.981       36.806     1035.874     1762.418     1354.714        1.532        0.208      160.824       24.828        0.024      339.091       12.188      863.164
10/18/2014  10:39:00       27.484       42.449       62.988       39.495       56.191       30.425     1559.866     3157.416      925.670        0.608        0.282       50.570       24.723        0.239      339.548       12.957      863.159
10/18/2014  10:40:00      149.135       95.831       37.253       63.572       40.390       48.627     4041.405     1631.373     2364.571        2.042        0.402      177.271       43.588        0.060      339.124       12.241      863.160
10/18/2014  10:41:00      142.451       99.896       35.140       32.393       16.649       19.627     1049.291      277.182      385.207        1.661        0.086      173.987       12.271        0.005      338.928       11.912      863.147
10/18/2014  10:42:00       73.637       65.115       10.897       22.802       32.089       30.977      519.910     1029.735      959.586        0.614        0.125       98.297       19.191        0.038      339.182       12.339      863.149
10/18/2014  10:43:00       48.352       45.881       -0.627       25.825       36.424       27.269      666.932     1326.710      743.588        0.359        0.137       66.655       17.372        0.068      339.229       12.420      863.134
10/18/2014  10:44:00        5.843       68.378        1.166       32.706       39.249       26.562     1069.660     1540.483      705.518        0.401        0.166       68.627       22.611        0.109      339.258       12.469      863.118
10/18/2014  10:45:00       -7.794        6.645       34.485       22.044       15.381       11.155      485.934      236.563      124.429        0.107        0.042       10.242        9.210        0.809      340.097       13.884      863.102
10/18/2014  10:46:00       15.085       13.925       15.587       19.334       14.407       18.447      373.807      207.548      340.275        0.079        0.046       20.530        8.240        0.161      340.056       13.814      863.093
10/18/2014  10:47:00        8.937        5.464       13.364       19.666       27.649       24.573      386.754      764.454      603.852        0.102        0.088       10.475       18.048        2.969      340.182       14.026      863.078
10/18/2014  10:48:00       -6.521      -46.618       15.103       34.582       34.259       30.125     1195.902     1173.676      907.511        0.286        0.164       47.071       13.548        0.083      339.868       13.497      863.067
10/18/2014  10:49:00       11.970      -83.288       -4.165       44.900       59.448       37.021     2016.047     3534.046     1370.580        0.701        0.346       84.143       26.407        0.098      339.815       13.407      863.055
10/18/2014  10:50:00       57.816      -94.707       -4.956       40.026       59.341       27.683     1602.052     3521.376      766.341        0.911        0.294      110.960       26.040        0.055      339.579       13.009      863.038
10/18/2014  10:51:00       13.828      -31.057       25.548       34.924       35.487       25.502     1219.719     1259.341      650.352        0.247        0.156       33.997       21.058        0.384      340.048       13.800      863.018
10/18/2014  10:52:00      -38.666      -12.451       13.663       23.085       26.206       21.962      532.926      686.729      482.309        0.177        0.085       40.621       13.015        0.103      340.096       13.881      863.011
10/18/2014  10:53:00        7.692       34.985       28.309       38.903       45.505       28.087     1513.443     2070.731      788.866        0.323        0.219       35.820       20.796        0.337      340.183       14.030      862.999
10/18/2014  10:54:00       -1.732      -24.491       10.417       37.841       53.176       40.619     1431.972     2827.653     1649.884        0.331        0.295       24.552       20.526        0.699      340.045       13.796      862.999
10/18/2014  10:55:00       38.118       34.412       35.552       51.710       31.489       27.553     2673.940      991.554      759.162        0.416        0.221       51.353       20.733        0.163      340.035       13.780      862.987
10/18/2014  10:56:00      113.576       89.168       19.703       65.511       41.486       46.007     4291.683     1721.050     2116.654        1.468        0.406      144.396       19.821        0.019      339.727       13.259      862.983
10/18/2014  10:57:00       75.548       74.841       37.033       46.522       42.340       45.559     2164.333     1792.635     2075.599        0.936        0.302      106.342       36.575        0.118      339.792       13.370      862.971
10/18/2014  10:58:00       37.152       55.396       74.389       59.534       77.769       43.814     3544.348     6047.967     1919.643        1.075        0.576       66.701       35.706        0.287      340.039       13.784      862.971
10/18/2014  10:59:00      149.489      111.015       13.095       42.582       31.024       40.797     1813.208      962.465     1664.398        1.964        0.222      186.202       24.230        0.017      339.487       12.854      862.965
10/18/2014  11:00:00       81.722       79.792       29.533       57.657       42.193       47.207     3324.278     1780.290     2228.527        1.062        0.367      114.216       39.233        0.118      339.894       13.540      862.967
10/18/2014  11:01:00       46.904       49.447       50.450       64.530       50.620       32.902     4164.145     2562.409     1082.541        0.750        0.390       68.154       24.403        0.128      339.999       13.717      862.965
10/18/2014  11:02:00      -11.292      -24.953        4.076       20.618       54.790       34.088      425.085     3001.929     1161.961        0.268        0.229       27.389       30.360        1.229      339.880       13.516      862.962
10/18/2014  11:03:00       -3.864       48.553       72.014       23.119       43.204       26.404      534.496     1866.604      697.173        0.533        0.155       48.706       21.527        0.195      340.269       14.173      862.939
10/18/2014  11:04:00        5.994      -23.311       37.978       45.999       52.064       39.923     2115.900     2710.683     1593.809        0.422        0.321       24.069       27.948        1.348      340.134       13.946      862.938
10/18/2014  11:05:00       24.889      -38.989       25.766       34.784       57.982       44.781     1209.922     3361.970     2005.295        0.469        0.329       46.255       42.580        0.847      340.106       13.897      862.930
10/18/2014  11:06:00        8.729      -11.408       56.842       36.780       54.338       39.997     1352.775     2952.581     1599.727        0.467        0.295       14.365       29.715        4.279      340.389       14.377      862.925
10/18/2014  11:07:00       41.282      -50.592       44.634       42.547       55.550       33.855     1810.248     3085.803     1146.134        0.615        0.302       65.297       35.035        0.288      339.922       13.588      862.929
10/18/2014  11:08:00        9.838       13.867       53.662       32.609       55.635       38.932     1063.342     3095.277     1515.673        0.442        0.284       17.002       40.978        5.809      340.234       14.113      862.936
10/18/2014  11:09:00       17.686       34.287       -7.024       35.930       26.212       36.881     1290.981      687.087     1360.187        0.244        0.167       38.580       19.876        0.265      339.600       13.044      862.940
10/18/2014  11:10:00       10.744       30.252        2.084       28.835       52.150       19.011      831.447     2719.589      361.414        0.247        0.196       32.103        3.727        0.013      339.824       13.421      862.931
10/18/2014  11:11:00        4.152      -45.174        8.352       23.957       35.498       18.980      573.955     1260.101      360.248        0.216        0.110       45.364       14.555        0.103      339.797       13.377      862.918
10/18/2014  11:12:00       41.281        4.622       -3.262       33.234       34.262       26.045     1104.489     1173.917      678.346        0.235        0.148       41.539       20.997        0.256      339.696       13.207      862.926
10/18/2014  11:13:00      -71.013      -37.183      -16.610       39.147       23.141       16.555     1532.470      535.489      274.079        0.452        0.117       80.159       10.435        0.017      339.654       13.134      862.921
10/18/2014  11:14:00      -58.230      -34.330       -1.589       30.735       34.465       19.190      944.666     1187.857      368.238        0.354        0.125       67.597       20.583        0.093      339.807       13.394      862.898
10/18/2014  11:15:00      -60.266      -17.856       -5.764       27.420       17.265       13.223      751.873      298.080      174.835        0.260        0.061       62.856        6.765        0.012      339.877       13.512      862.886
10/18/2014  11:16:00      -65.373       17.151       -2.888       33.472       23.340       15.274     1120.383      544.775      233.288        0.324        0.095       67.586        8.313        0.015      340.032       13.772      862.869
10/18/2014  11:17:00      -16.517      101.861        2.352       38.740       74.844       34.346     1500.773     5601.654     1179.661        0.947        0.414      103.192       44.362        0.185      340.267       14.170      862.849
10/18/2014  11:18:00      -65.689       42.605      -14.750       39.447       25.310       31.994     1556.058      640.578     1023.641        0.478        0.161       78.296       26.507        0.115      340.089       13.871      862.825
10/18/2014  11:19:00      -26.802       -7.819      -11.616       33.732       42.558       20.096     1137.843     1811.207      403.858        0.213        0.168       27.919       20.387        0.533      339.883       13.521      862.807
10/18/2014  11:20:00      -27.788      102.065        3.312       47.598       52.599       31.162     2265.611     2766.602      971.066        0.860        0.300      105.780       25.982        0.060      340.357       14.322      862.781
10/18/2014  11:21:00       -0.753      112.431       -3.035       34.363       53.262       38.037     1180.785     2836.840     1446.819        0.906        0.273      112.434       27.090        0.058      340.265       14.167      862.767
10/18/2014  11:22:00       -2.035      142.923      -11.929       39.968      118.074       40.080     1597.422    13941.440     1606.444        1.886        0.857      142.937       59.844        0.175      340.263       14.163      862.750
10/18/2014  11:23:00       45.846       81.103      -10.724       51.250       68.132       42.821     2626.573     4641.970     1833.645        0.895        0.455       93.164       41.736        0.201      340.340       14.294      862.733
10/18/2014  11:24:00       -8.008       74.539        2.823       38.979       91.622       30.211     1519.333     8394.657      912.732        0.823        0.541       74.968       21.600        0.083      340.395       14.385      862.724
10/18/2014  11:25:00       50.940      114.617      -14.424       55.749       58.846       49.737     3107.906     3462.798     2473.762        1.249        0.452      125.427       35.763        0.081      340.360       14.327      862.714
10/18/2014  11:26:00       89.592       50.006        5.782       37.850       49.507       32.790     1432.638     2450.944     1075.169        0.776        0.248      102.603       24.708        0.058      339.999       13.716      862.717
10/18/2014  11:27:00      117.027       83.331       -2.531       48.267       49.600       25.038     2329.687     2460.129      626.890        1.303        0.271      143.664       17.676        0.015      339.800       13.380      862.718
10/18/2014  11:28:00       80.918       35.280       -8.231       16.120       35.331       22.755      259.841     1248.259      517.804        0.494        0.101       88.274       12.024        0.019      339.824       13.422      862.717
10/18/2014  11:29:00       58.359      -12.662        7.883       38.943       79.478       33.394     1516.583     6316.732     1115.130        0.629        0.447       59.717       29.696        0.247      340.043       13.792      862.705
10/18/2014  11:30:00       13.580       62.402        7.522       42.870       44.338       29.790     1837.862     1965.891      887.454        0.441        0.235       63.863       20.393        0.102      340.518       14.593      862.688
10/18/2014  11:31:00      -37.346       58.660       20.133       35.811       34.184       35.158     1282.402     1168.533     1236.072        0.446        0.184       69.539       26.657        0.147      340.797       15.067      862.683
10/18/2014  11:32:00     -112.151       18.203       -7.567       51.200       28.023       25.779     2621.471      785.306      664.531        0.852        0.204      113.619       23.518        0.043      340.141       13.957      862.670
10/18/2014  11:33:00      -10.443       41.574       16.320       20.956       28.926       25.218      439.174      836.701      635.935        0.201        0.096       42.865       22.308        0.271      341.270       15.867      862.666
10/18/2014  11:34:00       -3.286        8.485       18.841       28.554       15.634       18.479      815.308      244.433      341.477        0.092        0.070        9.099       15.753        2.997      341.124       15.620      862.664
10/18/2014  11:35:00       24.708      -71.549        6.106       51.418       43.624       27.472     2643.779     1903.018      754.728        0.553        0.265       75.695       21.530        0.081      340.561       14.667      862.657
10/18/2014  11:36:00       50.919       40.976       63.993       66.284       95.083       51.336     4393.553     9040.845     2635.430        1.222        0.803       65.359       53.247        0.664      340.454       14.485      862.649
10/18/2014  11:37:00       -6.720       35.621       57.480       28.953       47.365       28.212      838.251     2243.432      795.922        0.425        0.194       36.250       25.891        0.510      340.742       14.973      862.647
10/18/2014  11:38:00       42.015       50.803       62.194       48.086       32.871       31.255     2312.259     1080.525      976.902        0.629        0.218       65.925       27.796        0.178      340.631       14.786      862.649
10/18/2014  11:39:00       16.778       -9.858       30.261       35.698       58.558       42.951     1274.347     3429.092     1844.784        0.392        0.327       19.460       36.563        3.530      340.764       15.009      862.630
10/18/2014  11:40:00       52.981     -130.190      -18.443       31.580       32.815       24.373      997.323     1076.794      594.047        1.138        0.133      140.557       15.478        0.012      340.543       14.638      862.628
10/18/2014  11:41:00       39.126       34.440       48.945       50.549       73.093       46.489     2555.162     5342.566     2161.242        0.758        0.503       52.124       41.718        0.641      340.793       15.059      862.621
10/18/2014  11:42:00      100.515       57.783       32.905       30.596       32.150       35.822      936.113     1033.647     1283.223        0.889        0.163      115.940       22.864        0.039      340.443       14.469      862.611
10/18/2014  11:43:00       26.761       18.448       -6.090       35.753       17.431       18.903     1278.301      303.825      357.311        0.152        0.097       32.504       11.547        0.126      340.617       14.762      862.599
10/18/2014  11:44:00       32.115       24.009       -2.996       44.495       40.341       25.175     1979.827     1627.432      633.767        0.293        0.212       40.098       26.318        0.431      340.644       14.808      862.588
10/18/2014  11:45:00      104.225       43.832       25.769       62.664       42.579       46.875     3926.770     1813.007     2197.256        1.069        0.397      113.067       27.169        0.058      340.778       15.033      862.569
10/18/2014  11:46:00      122.554       45.495       21.993       74.673       59.393       50.309     5576.099     3527.537     2530.961        1.460        0.582      130.726       32.406        0.061      340.615       14.758      862.570
10/18/2014  11:47:00      104.324       47.908       28.039       67.316       66.540       46.085     4531.494     4427.553     2123.833        1.252        0.554      114.798       37.029        0.104      340.951       15.326      862.561
10/18/2014  11:48:00       90.557       58.067       41.648       51.946       53.486       38.518     2698.430     2860.709     1483.656        1.017        0.352      107.575       28.514        0.070      341.083       15.549      862.560
10/18/2014  11:49:00      126.003       88.247       44.522       93.590       59.261       49.817     8759.118     3511.862     2481.690        2.020        0.738      153.832       39.525        0.066      341.054       15.500      862.555
10/18/2014  11:50:00      159.398       98.614       26.492       69.705       57.025       45.596     4858.854     3251.853     2078.994        2.301        0.509      187.437       28.091        0.022      340.708       14.914      862.545
10/18/2014  11:51:00       93.914       84.532       48.365       60.897       51.018       42.705     3708.396     2602.814     1823.746        1.322        0.407      126.354       39.198        0.096      341.210       15.765      862.546
10/18/2014  11:52:00       16.127      -27.328       50.062       58.499       55.970       36.984     3422.189     3132.623     1367.824        0.572        0.396       31.732       23.096        0.530      341.341       15.986      862.549
10/18/2014  11:53:00        6.905      -51.159        9.931       72.728       43.396       43.995     5289.418     1883.227     1935.536        0.593        0.455       51.623       31.980        0.384      341.007       15.421      862.536
10/18/2014  11:54:00       47.636      -60.008        3.547       44.287       45.580       38.197     1961.352     2077.529     1458.973        0.569        0.275       76.617       26.805        0.122      340.617       14.763      862.544
10/18/2014  11:55:00        1.789      -11.158       -0.419       30.685       27.573       22.607      941.588      760.256      511.055        0.117        0.111       11.301       23.246        4.232      341.008       15.424      862.542
10/18/2014  11:56:00      -15.254      -56.983        3.617       26.838       53.784       36.512      720.263     2892.688     1333.109        0.422        0.247       58.989       20.357        0.119      341.132       15.634      862.534
10/18/2014  11:57:00       15.152       -5.015       32.778       42.208       71.659       48.077     1781.506     5134.976     2311.426        0.528        0.461       15.960       50.431        9.985      341.415       16.111      862.534
10/18/2014  11:58:00       18.898       11.728       36.296       31.232       28.008       28.090      975.432      784.421      789.075        0.218        0.127       22.241       20.198        0.825      341.435       16.145      862.520
10/18/2014  11:59:00       58.513       42.911       22.159       75.843       51.885       26.544     5752.170     2692.055      704.600        0.745        0.457       72.561       18.852        0.067      341.139       15.644      862.506
10/18/2014  12:00:00       61.896       20.527       48.005       60.309       56.721       44.332     3637.163     3217.251     1965.360        0.769        0.441       65.211       45.819        0.494      341.307       15.930      862.500
10/18/2014  12:01:00       45.810      -83.578        5.730       38.199       55.640       39.503     1459.131     3095.770     1560.499        0.762        0.306       95.310       37.538        0.155      340.964       15.349      862.485
10/18/2014  12:02:00       22.849      -26.832       13.492       41.064       39.684       29.064     1686.278     1574.806      844.708        0.276        0.205       35.242       25.661        0.530      341.522       16.294      862.476
10/18/2014  12:03:00       -6.081      -14.753       29.502       31.408       38.655       26.785      986.473     1494.205      717.428        0.216        0.160       15.957       10.349        0.421      341.728       16.641      862.474
10/18/2014  12:04:00        7.836      -23.150        2.228       31.968       37.496       29.509     1021.970     1405.965      870.761        0.195        0.165       24.440       22.882        0.877      341.587       16.404      862.464
10/18/2014  12:05:00      -11.023      -45.047       11.546       23.068       49.201       25.590      532.141     2420.776      654.860        0.295        0.180       46.376       14.001        0.091      341.363       16.023      862.460
10/18/2014  12:06:00        9.287       45.256        6.665       25.006       28.538       25.622      625.280      814.421      656.467        0.214        0.105       46.199       17.669        0.146      341.726       16.639      862.460
10/18/2014  12:07:00       -0.757       68.102      -22.240       30.473       27.113       19.918      928.634      735.091      396.735        0.360        0.103       68.106       10.681        0.025      341.271       15.869      862.453
10/18/2014  12:08:00       -0.980       -7.404       14.557       19.038       36.575       27.841      362.429     1337.712      775.142        0.137        0.124        7.469       26.555       12.642      341.628       16.474      862.436
10/18/2014  12:09:00       45.789      102.209      118.693       82.835       86.487       46.594     6861.669     7479.983     2170.980        2.157        0.826      111.997       47.440        0.179      341.339       15.982      862.432
10/18/2014  12:10:00       97.856       72.076       75.710       91.931      107.733       66.060     8451.399    11606.364     4363.870        2.246        1.221      121.535       61.654        0.257      340.888       15.218      862.417
10/18/2014  12:11:00      110.044       89.353       34.716       34.603       42.386       39.390     1197.393     1796.590     1551.600        1.292        0.227      141.752       25.959        0.034      340.874       15.196      862.415
10/18/2014  12:12:00       62.390       41.227       31.971       37.774       32.852       33.071     1426.853     1079.257     1093.670        0.511        0.180       74.781        8.111        0.012      341.375       16.043      862.403
10/18/2014  12:13:00       15.912      -27.825       26.063       44.459       85.690       42.137     1976.586     7342.830     1775.541        0.640        0.555       32.054       32.486        1.027      341.710       16.613      862.391
10/18/2014  12:14:00       21.520      -26.762       31.179       23.709       58.733       30.371      562.134     3449.566      922.389        0.354        0.247       34.341       32.334        0.887      341.815       16.790      862.380
10/18/2014  12:15:00       -6.479      -61.427       17.614       35.696       62.985       39.330     1274.182     3967.117     1546.875        0.546        0.339       61.768       43.528        0.497      341.723       16.634      862.367
10/18/2014  12:16:00      -11.569      -70.366       15.349       34.586       51.730       29.314     1196.194     2675.960      859.298        0.503        0.237       71.310       27.302        0.147      341.674       16.552      862.345
10/18/2014  12:17:00       16.933      -49.454        4.520       35.543       57.634       31.273     1263.336     3321.656      977.999        0.416        0.278       52.273       29.286        0.314      341.486       16.231      862.343
10/18/2014  12:18:00       13.947      -66.226       11.550       25.723       58.874       33.454      661.656     3466.166     1119.138        0.498        0.262       67.679       34.633        0.262      341.568       16.370      862.339
10/18/2014  12:19:00       10.958      -56.844       15.577       63.722       63.062       30.872     4060.546     3976.801      953.072        0.629        0.450       57.891       38.050        0.432      341.535       16.315      862.318
10/18/2014  12:20:00        0.664      -25.919       22.637       53.540       59.553       37.681     2866.487     3546.523     1419.877        0.451        0.392       25.928       38.625        2.219      341.984       17.077      862.314
10/18/2014  12:21:00       31.013       -2.928        2.485       40.950       38.414       37.141     1676.929     1475.649     1379.434        0.275        0.227       31.151       32.398        1.082      341.689       16.577      862.288
10/18/2014  12:22:00       -6.842      -10.719       18.864       17.948       52.321       29.040      322.147     2737.497      843.326        0.221        0.195       12.716       25.291        3.956      341.673       16.548      862.266
10/18/2014  12:23:00      128.925       96.718       80.357       82.167       59.402       63.638     6751.417     3528.639     4049.760        2.338        0.716      161.171       53.981        0.112      341.355       16.008      862.265
10/18/2014  12:24:00       79.008       29.891       -4.021       40.721       47.610       32.769     1658.237     2266.714     1073.781        0.607        0.250       84.473       30.620        0.131      341.263       15.853      862.257
10/18/2014  12:25:00       49.172       30.582       60.450       41.475       40.430       32.732     1720.177     1634.593     1071.387        0.572        0.221       57.906       19.856        0.118      341.775       16.721      862.237
10/18/2014  12:26:00      115.519       84.456       62.929       87.362       46.895       39.334     7632.127     2199.180     1547.153        1.791        0.569      143.100       31.539        0.049      341.520       16.289      862.230
10/18/2014  12:27:00      199.908      122.857       52.554       73.876       50.369       57.022     5457.724     2537.070     3251.505        3.453        0.562      234.642       40.227        0.029      341.390       16.066      862.215
10/18/2014  12:28:00      180.346       99.957       54.712       76.893       58.459       54.846     5912.530     3417.429     3008.120        2.892        0.617      206.194       36.086        0.031      341.442       16.154      862.202
10/18/2014  12:29:00      119.252       75.821       31.253       91.095       64.785       46.845     8298.383     4197.092     2194.483        1.782        0.734      141.315       49.941        0.125      341.414       16.108      862.196
10/18/2014  12:30:00      114.073       38.403       -4.404       63.653       50.925       37.946     4051.750     2593.309     1439.869        1.129        0.404      120.364       27.136        0.051      341.415       16.112      862.190
10/18/2014  12:31:00       12.260      -14.036       24.051       48.486       67.296       23.903     2350.913     4528.797      571.349        0.419        0.373       18.636       16.793        0.812      341.645       16.502      862.173
10/18/2014  12:32:00       38.968      -72.532        1.534       37.918       43.923       22.458     1437.742     1929.236      504.364        0.533        0.194       82.337       25.191        0.094      341.112       15.598      862.155
10/18/2014  12:33:00        9.193       15.352       16.398       17.353       32.907       22.440      301.116     1082.880      503.573        0.124        0.094       17.894       12.633        0.498      341.668       16.540      862.128
10/18/2014  12:34:00      116.968       73.952       25.134       42.857       36.297       37.112     1836.681     1317.465     1377.283        1.216        0.227      138.385       25.055        0.033      341.424       16.126      862.112
10/18/2014  12:35:00       83.808       52.095        3.402       36.214       34.604       32.811     1311.424     1197.432     1076.532        0.667        0.179       98.680       15.196        0.024      341.482       16.226      862.104
10/18/2014  12:36:00      -20.167       18.033        0.653       27.847       19.739       19.082      775.447      389.632      364.139        0.113        0.076       27.053       10.662        0.155      341.786       16.740      862.096
10/18/2014  12:37:00        8.442       41.578       -0.833       28.776       35.018       19.864      828.045     1226.249      394.569        0.212        0.122       42.427       19.297        0.207      341.723       16.633      862.063
10/18/2014  12:38:00      -24.057       81.035        9.860       29.253       48.232       26.965      855.734     2326.294      727.132        0.558        0.195       84.531       24.277        0.082      342.059       17.205      862.049
10/18/2014  12:39:00       -3.151       18.100       24.106       55.737       24.394       24.080     3106.618      595.061      579.863        0.260        0.214       18.372       16.365        0.793      342.015       17.130      862.035
10/18/2014  12:40:00       33.742       26.924        6.003       33.639       34.163       26.475     1131.580     1167.138      700.927        0.245        0.150       43.167       16.407        0.144      341.875       16.891      862.017
10/18/2014  12:41:00      103.727       90.546       82.130       75.139       71.791       63.159     5645.867     5153.978     3989.038        2.024        0.739      137.687       48.244        0.123      341.777       16.724      862.006
10/18/2014  12:42:00       85.715       25.485       32.741       79.059       83.051       56.489     6250.285     6897.389     3191.009        1.270        0.817       89.424       35.055        0.154      341.598       16.421      861.992
10/18/2014  12:43:00      118.045      -13.457       68.847       82.720      129.878       73.931     6842.599    16868.334     5465.849        2.401        1.459      118.810       82.998        0.488      341.751       16.679      861.971
10/18/2014  12:44:00      162.943      142.374       34.894       84.656       44.469       60.732     7166.640     1977.526     3688.340        3.043        0.642      216.381       34.478        0.025      341.701       16.593      861.988
10/18/2014  12:45:00       92.408       83.110       56.465       84.378       45.659       49.287     7119.625     2084.776     2429.188        1.513        0.582      124.284       46.766        0.142      341.850       16.850      861.977
10/18/2014  12:46:00      108.395       68.816       16.852       46.522       35.199       38.367     2164.259     1238.956     1472.056        1.082        0.244      128.394       21.303        0.028      341.901       16.934      861.954
10/18/2014  12:47:00       68.209       50.799        1.030       37.506       26.075       24.568     1406.728      679.890      603.600        0.496        0.135       85.047       14.191        0.028      341.827       16.811      861.941
10/18/2014  12:48:00       60.939       92.632       -9.057       51.481       35.057       38.575     2650.249     1228.987     1488.058        0.887        0.268      110.880       29.272        0.070      341.840       16.833      861.923
10/18/2014  12:49:00      -13.656       79.112      -10.035       19.531       42.968       25.757      381.450     1846.226      663.445        0.472        0.145       80.282       23.584        0.086      342.024       17.145      861.898
10/18/2014  12:50:00       37.492       13.842       29.517       35.565       18.592       18.188     1264.901      345.661      330.789        0.220        0.097       39.966        9.746        0.059      342.392       17.771      861.887
10/18/2014  12:51:00       61.267       38.633        1.667       29.617       33.533       23.136      877.195     1124.439      535.283        0.389        0.127       72.430        5.292        0.005      341.698       16.592      861.864
10/18/2014  12:52:00       89.592       49.487       18.951       50.722       51.955       39.054     2572.719     2699.350     1525.237        0.881        0.340      102.350       12.212        0.014      341.851       16.851      861.842
10/18/2014  12:53:00      130.579       80.280       18.504       57.686       40.155       35.555     3327.728     1612.448     1264.172        1.502        0.310      153.284       30.371        0.039      341.922       16.972      861.829
10/18/2014  12:54:00       30.091       35.982      -14.372       59.632       35.715       38.598     3555.973     1275.573     1489.818        0.436        0.316       46.906       30.634        0.427      341.938       16.998      861.831
10/18/2014  12:55:00      -33.932      -15.455       -5.263       18.899       22.853       22.143      357.172      522.276      490.308        0.139        0.068       37.286       10.614        0.081      342.200       17.443      861.797
10/18/2014  12:56:00       36.287      -14.478       31.607       27.819       26.017       18.861      773.906      676.908      355.736        0.217        0.090       39.069       11.715        0.090      342.560       18.056      861.782
10/18/2014  12:57:00       33.930       40.805       16.657       41.009       28.315       21.740     1681.721      801.742      472.628        0.302        0.148       53.069        9.608        0.033      342.281       17.581      861.764
10/18/2014  12:58:00       34.660       33.576       23.302       42.245       28.874       33.138     1784.673      833.690     1098.140        0.329        0.186       48.257       16.399        0.115      342.643       18.197      861.737
10/18/2014  12:59:00       51.746       88.086       92.799       58.325       64.138       44.578     3401.756     4113.620     1987.210        1.427        0.475      102.161       26.866        0.069      342.585       18.098      861.721
10/18/2014  13:00:00      131.447       78.805       39.331       69.147       42.195       40.524     4781.243     1780.393     1642.164        1.662        0.410      153.260       27.115        0.031      342.110       17.291      861.712
10/18/2014  13:01:00       46.726       68.060      -27.424       79.343       48.473       33.892     6295.245     2349.640     1148.675        0.868        0.490       82.557       39.071        0.224      342.033       17.159      861.701
10/18/2014  13:02:00       54.674       48.989       15.735       47.957       24.599       33.072     2299.828      605.125     1093.734        0.482        0.200       73.411       24.243        0.109      342.337       17.675      861.678
10/18/2014  13:03:00       56.554       25.295       10.370       28.301       33.097       26.572      800.941     1095.391      706.066        0.327        0.130       61.953       13.476        0.047      342.559       18.055      861.651
10/18/2014  13:04:00       11.058      -32.563       17.946       26.080       46.505       33.170      680.190     2162.754     1100.270        0.272        0.197       34.390       32.781        0.909      342.926       18.678      861.643
10/18/2014  13:05:00       57.059      -43.877       29.449       64.227       50.567       37.658     4125.095     2557.011     1418.154        0.707        0.405       71.978       27.296        0.144      342.594       18.115      861.631
10/18/2014  13:06:00       24.736      -52.205        4.527       39.856       54.513       25.846     1588.527     2971.702      668.012        0.429        0.261       57.769       26.535        0.211      342.762       18.399      861.610
10/18/2014  13:07:00       62.476      -75.048        6.468       67.434       53.752       38.304     4547.308     2889.251     1467.225        0.924        0.445       97.650       38.507        0.156      342.505       17.962      861.596
10/18/2014  13:08:00        6.690        6.008       63.266       40.632       63.027       37.381     1650.954     3972.428     1397.360        0.555        0.351        8.992       33.425       13.819      343.026       18.849      861.573
10/18/2014  13:09:00       66.991      -64.226        6.279       70.241       86.553       45.040     4933.854     7491.376     2028.623        1.155        0.723       92.805       63.248        0.464      342.389       17.764      861.563
10/18/2014  13:10:00       38.637      -20.372       15.316       41.931       34.331       28.367     1758.185     1178.644      804.712        0.294        0.187       43.678       24.919        0.325      342.578       18.087      861.561
10/18/2014  13:11:00       29.970      -10.598       24.951       30.914       30.094       21.484      955.668      905.659      461.572        0.198        0.116       31.789       10.403        0.107      342.900       18.635      861.533
10/18/2014  13:12:00        2.627       -3.314       14.174       59.289       61.051       32.791     3515.180     3727.264     1075.281        0.427        0.416        4.228       19.134       20.475      342.967       18.748      861.519
10/18/2014  13:13:00      118.103       98.474       14.376      113.336       49.255       35.447    12845.054     2426.101     1256.478        2.019        0.826      153.771       23.940        0.024      342.579       18.086      861.512
10/18/2014  13:14:00      121.866       86.087       40.232       63.302       46.647       39.520     4007.192     2175.968     1561.862        1.581        0.387      149.206       28.913        0.038      342.528       17.999      861.498
10/18/2014  13:15:00      123.688       70.837       27.914       63.736       45.804       34.896     4062.316     2098.028     1217.742        1.424        0.369      142.536       22.210        0.024      342.806       18.473      861.495
10/18/2014  13:16:00       90.095       78.628       55.021       87.791       63.899       51.070     7707.208     4083.142     2608.174        1.586        0.720      119.580       39.252        0.108      342.929       18.683      861.475
10/18/2014  13:17:00       35.733       -0.842        5.525       36.937       39.740       28.575     1364.314     1579.248      816.543        0.253        0.188       35.743       24.268        0.461      342.404       17.790      861.476
10/18/2014  13:18:00       56.533       76.388       67.150       77.210       47.214       40.436     5961.448     2229.142     1635.039        1.168        0.491       95.032       39.000        0.168      342.784       18.436      861.462
10/18/2014  13:19:00      122.062       65.362       77.169       94.193       85.840       62.096     8872.373     7368.441     3855.896        2.261        1.005      138.460       49.253        0.127      342.536       18.014      861.455
10/18/2014  13:20:00       79.462       52.691       36.280       78.649       71.405       46.243     6185.615     5098.718     2138.439        1.191        0.671       95.344       36.907        0.150      342.867       18.577      861.451
10/18/2014  13:21:00      159.365      116.210       34.972       60.778       57.248       49.579     3693.966     3277.330     2458.062        2.478        0.471      197.236       26.285        0.018      342.523       17.990      861.454
10/18/2014  13:22:00      108.103       52.518       24.841       72.936       50.064       39.915     5319.663     2506.403     1593.178        1.224        0.471      120.184       26.531        0.049      342.699       18.293      861.440
10/18/2014  13:23:00       60.820       33.694       -7.283       59.207       47.030       39.380     3505.478     2211.794     1550.750        0.608        0.363       69.529       18.796        0.073      342.804       18.471      861.445
10/18/2014  13:24:00       26.000       86.438        0.065       34.925       67.546       36.828     1219.758     4562.528     1356.323        0.764        0.357       90.263       35.520        0.155      342.705       18.301      861.440
10/18/2014  13:25:00       31.107        5.136        3.896       31.204       41.989       25.183      973.711     1763.081      634.164        0.219        0.169       31.528        9.608        0.093      342.794       18.454      861.423
10/18/2014  13:26:00       26.174      -36.725        6.722       26.270       47.879       27.751      690.116     2292.351      770.112        0.292        0.188       45.098       32.745        0.527      342.596       18.117      861.424
10/18/2014  13:27:00       38.345      -39.899       16.688       46.479       58.389       34.891     2160.269     3409.295     1217.365        0.506        0.339       55.338       30.308        0.300      342.701       18.296      861.413
10/18/2014  13:28:00       97.038      100.947       62.425       64.407       45.539       46.565     4148.249     2073.794     2168.303        1.595        0.420      140.024       29.395        0.044      342.666       18.235      861.384
10/18/2014  13:29:00      107.858       46.398       19.237       52.848       47.137       39.940     2792.882     2221.936     1595.214        1.038        0.331      117.414       32.714        0.078      342.664       18.231      861.376
10/18/2014  13:30:00       83.522       65.393       21.625       37.321       34.818       25.078     1392.833     1212.281      628.920        0.748        0.162      106.076       19.672        0.034      342.461       17.887      861.358
10/18/2014  13:31:00       31.825       42.060       13.462       22.855       22.234       26.556      522.365      494.351      705.230        0.234        0.086       52.743       15.534        0.087      342.708       18.307      861.332
10/18/2014  13:32:00       -0.697      -22.505       -4.252       17.438       31.867       18.551      304.093     1015.537      344.145        0.109        0.083       22.515        6.976        0.096      342.867       18.577      861.318
10/18/2014  13:33:00       78.989     -131.165       -1.953       47.106       71.082       39.156     2218.959     5052.702     1533.221        1.612        0.440      153.113       38.237        0.062      342.621       18.157      861.302
10/18/2014  13:34:00       38.737      -78.735        7.367       24.542       55.602       34.484      602.306     3091.617     1189.120        0.632        0.244       87.748       33.375        0.145      342.623       18.163      861.276
10/18/2014  13:35:00       13.561      -54.854        8.717       49.433       34.837       23.940     2443.584     1213.605      573.109        0.375        0.212       56.505       18.333        0.105      342.925       18.676      861.259
10/18/2014  13:36:00       84.970       26.504        6.003       32.017       38.048       30.549     1025.060     1447.685      933.270        0.568        0.170       89.007       13.214        0.022      342.567       18.068      861.252
10/18/2014  13:37:00       46.939       -3.885       23.251       37.877       39.714       23.760     1434.655     1577.200      564.538        0.317        0.179       47.099       23.379        0.246      343.016       18.830      861.224
10/18/2014  13:38:00       43.217        5.010       11.299       31.376       34.651       33.522      984.477     1200.710     1123.744        0.266        0.165       43.506       25.822        0.352      343.140       19.042      861.210
10/18/2014  13:39:00       31.097        6.668       32.028       26.482       27.130       23.915      701.293      736.036      571.950        0.202        0.100       31.804       18.563        0.341      343.515       19.681      861.199
10/18/2014  13:40:00       53.259       12.628       13.412       45.113       44.265       27.655     2035.138     1959.412      764.779        0.397        0.238       54.735       28.177        0.265      343.170       19.094      861.180
10/18/2014  13:41:00       46.307       11.689       17.029       33.186       22.943       16.107     1101.324      526.373      259.423        0.223        0.094       47.760        5.186        0.012      343.281       19.283      861.176
10/18/2014  13:42:00       38.003       43.339       32.831       45.403       43.450       45.106     2061.456     1887.898     2034.514        0.519        0.299       57.641       33.316        0.334      343.177       19.106      861.168
10/18/2014  13:43:00       25.181      -46.981      -14.021       27.463       52.978       18.845      754.212     2806.643      355.135        0.348        0.196       53.303       20.579        0.149      342.546       18.030      861.152
10/18/2014  13:44:00       18.684       79.066       -6.193       59.764       65.802       30.624     3571.731     4329.868      937.799        0.774        0.442       81.244       31.808        0.153      342.892       18.619      861.142
10/18/2014  13:45:00       58.203      172.203      -19.276       51.835       89.764       36.206     2686.918     8057.643     1310.853        2.273        0.603      181.773       43.456        0.057      342.769       18.408      861.114
10/18/2014  13:46:00       57.162      204.036      -24.524       45.195       71.428       42.034     2042.593     5102.010     1766.892        2.720        0.446      211.892       41.477        0.038      342.826       18.505      861.088
10/18/2014  13:47:00       56.303       84.515       -5.429       58.525       57.951       39.336     3425.217     3358.374     1547.340        0.934        0.417      101.552       33.879        0.111      343.140       19.044      861.066
10/18/2014  13:48:00      160.067       93.925       22.318       69.348       47.506       46.017     4809.213     2256.835     2117.525        2.206        0.459      185.589       35.245        0.036      342.824       18.501      861.049
10/18/2014  13:49:00      123.996       89.323        8.867       98.075       61.636       42.072     9618.803     3798.960     1770.061        1.931        0.759      152.819       27.466        0.032      343.037       18.865      861.045
10/18/2014  13:50:00      139.396       99.312       12.845       74.603       56.507       45.582     5565.666     3193.088     2077.758        2.015        0.542      171.155       30.003        0.031      342.894       18.621      861.027
10/18/2014  13:51:00       75.142       98.645       16.273       79.599       46.374       44.943     6336.025     2150.583     2019.849        1.307        0.525      124.005       27.911        0.051      342.849       18.547      861.017
10/18/2014  13:52:00      148.243       97.722        1.365       67.561       51.448       33.980     4564.487     2646.905     1154.635        1.995        0.418      177.555       20.692        0.014      342.732       18.346      860.999
10/18/2014  13:53:00       67.330       41.322       -4.649       37.019       28.902       25.605     1370.413      835.325      655.610        0.456        0.143       78.999       11.663        0.022      342.742       18.365      860.988
10/18/2014  13:54:00       48.936       82.472       -6.173       35.084       40.505       25.006     1230.874     1640.619      625.299        0.637        0.175       95.898       22.110        0.053      342.824       18.503      860.965
10/18/2014  13:55:00      -27.332       50.711      -10.112       56.810       32.325       26.841     3227.338     1044.880      720.446        0.421        0.250       57.608       22.821        0.157      342.873       18.587      860.933
10/18/2014  13:56:00      -95.366       68.671      -12.646       31.926       45.772       23.245     1019.256     2095.057      540.314        0.881        0.183      117.518       16.116        0.019      343.124       19.015      860.904
10/18/2014  13:57:00      -36.980       85.908      -15.868       20.990       33.782       21.692      440.571     1141.202      470.536        0.553        0.103       93.529       10.184        0.012      342.849       18.547      860.874
10/18/2014  13:58:00        4.313       87.505       -4.087       29.188       33.585       26.376      851.919     1127.970      695.690        0.518        0.134       87.611       22.105        0.064      343.013       18.826      860.868
10/18/2014  13:59:00       90.032       90.852        6.616       85.108       47.732       37.739     7243.319     2278.337     1424.267        1.367        0.547      127.906       31.625        0.061      343.068       18.919      860.835
10/18/2014  14:00:00       53.927      245.651      -21.776      117.089      119.416       61.201    13709.738    14260.113     3745.540        4.772        1.586      251.501       56.370        0.050      343.186       19.115      860.801
10/18/2014  14:01:00      120.392       16.042       21.960       94.256       75.317       51.041     8884.183     5672.691     2605.184        1.620        0.858      121.457       48.795        0.161      343.234       19.200      860.798
10/18/2014  14:02:00       44.639       52.912       78.171       63.214       60.968       50.093     3996.050     3717.147     2509.310        1.056        0.511       69.227       45.940        0.440      343.176       19.103      860.799
10/18/2014  14:03:00       25.432      -79.346        4.257       43.802       56.558       35.528     1918.632     3198.838     1262.257        0.667        0.319       83.322       36.227        0.189      343.057       18.900      860.797
10/18/2014  14:04:00       34.688       11.790        6.829       38.097       58.279       35.582     1451.377     3396.468     1266.111        0.375        0.306       36.637       15.156        0.171      342.970       18.754      860.770
10/18/2014  14:05:00       24.295       12.187       46.731       49.811       75.198       59.807     2481.100     5654.668     3576.873        0.732        0.586       27.180       54.635        4.040      343.150       19.061      860.752
10/18/2014  14:06:00       98.629      -40.220       12.737       87.450       96.042       57.851     7647.417     9224.038     3346.723        1.586        1.011      106.515       52.269        0.241      343.254       19.235      860.742
10/18/2014  14:07:00      104.603      -65.224       21.517       98.857      106.265       64.296     9772.741    11292.158     4133.965        2.042        1.260      123.272       62.749        0.259      343.404       19.491      860.712
10/18/2014  14:08:00       73.909     -122.773        5.837       71.301       74.195       48.832     5083.884     5504.916     2384.565        1.677        0.649      143.303       32.589        0.052      343.094       18.962      860.712
10/18/2014  14:09:00        7.461        0.927       29.472       57.518       58.868       47.433     3308.299     3465.389     2249.915        0.497        0.451        7.518       24.107       10.281      343.436       19.546      860.712
10/18/2014  14:10:00       83.156       42.100       60.517       85.350       83.378       50.028     7284.655     6951.856     2502.850        1.454        0.837       93.206       49.949        0.287      343.267       19.258      860.708
10/18/2014  14:11:00      151.408      162.290       15.259      134.928       78.420       69.531    18205.554     6149.671     4834.529        3.934        1.459      221.951       47.229        0.045      343.299       19.310      860.687
10/18/2014  14:12:00      117.110      115.992        3.659      103.116       63.644       58.045    10632.983     4050.563     3369.246        2.261        0.903      164.830       45.610        0.077      343.215       19.168      860.683
10/18/2014  14:13:00       58.835      123.848      -19.396       65.105       74.065       44.134     4238.663     5485.577     1947.835        1.542        0.584      137.113       42.640        0.097      343.118       19.002      860.683
10/18/2014  14:14:00       39.255      198.755      -44.361       63.313       49.859       31.126     4008.500     2485.929      968.859        2.524        0.373      202.595       13.457        0.004      343.071       18.922      860.672
10/18/2014  14:15:00      -36.965      227.460      -44.071       60.569       44.725       23.451     3668.555     2000.334      549.935        3.063        0.311      230.444       22.707        0.010      343.097       18.965      860.652
10/18/2014  14:16:00       16.164      201.263      -41.026       46.306       44.670       22.593     2144.284     1995.376      510.461        2.355        0.233      201.911       19.307        0.009      343.114       18.995      860.656
10/18/2014  14:17:00        9.444       89.475       -6.352       48.959       80.961       31.581     2396.963     6554.695      997.332        0.904        0.497       89.972       36.476        0.164      343.373       19.440      860.656
10/18/2014  14:18:00       29.031      118.196      -20.108       35.019       59.263       35.513     1226.312     3512.089     1261.175        1.061        0.300      121.709       35.975        0.087      343.210       19.163      860.655
10/18/2014  14:19:00      101.471       83.807        3.486       80.042       48.914       38.271     6406.801     2392.592     1464.686        1.380        0.513      131.605       14.377        0.012      343.341       19.384      860.639
10/18/2014  14:20:00      103.541       66.024        1.694       67.175       81.809       51.699     4512.538     6692.654     2672.770        1.448        0.694      122.800       44.799        0.133      343.475       19.613      860.624
10/18/2014  14:21:00      149.246       93.196       36.017       44.308       46.895       42.979     1963.211     2199.123     1847.209        1.913        0.300      175.954       23.391        0.018      343.420       19.518      860.630
10/18/2014  14:22:00       52.368       24.218       33.677       46.145       41.109       44.530     2129.333     1689.919     1982.952        0.513        0.290       57.697       30.871        0.286      343.580       19.792      860.629
10/18/2014  14:23:00       56.542       26.849       44.426       60.447      108.382       48.060     3653.782    11746.564     2309.745        1.180        0.886       62.593       55.628        0.790      343.547       19.736      860.614
10/18/2014  14:24:00       80.047      -99.827       -1.783       52.569       54.512       37.158     2763.456     2971.524     1380.708        1.174        0.356      127.957       42.173        0.109      343.397       19.481      860.599
10/18/2014  14:25:00       49.608      -15.864       33.595       51.705       74.395       42.784     2673.433     5534.689     1830.511        0.694        0.502       52.083       50.768        0.950      343.573       19.779      860.583
10/18/2014  14:26:00       39.323       15.710       10.446       28.678       31.503       32.600      822.445      992.443     1062.741        0.239        0.144       42.345       27.726        0.429      343.400       19.486      860.579
10/18/2014  14:27:00      -23.943       25.031      -10.228       31.362       27.173       19.476      983.563      738.379      379.312        0.170        0.105       34.639       11.694        0.114      343.353       19.406      860.561
10/18/2014  14:28:00       50.952       26.639        1.825       26.748       26.199       16.250      715.441      686.364      264.058        0.249        0.083       57.495       12.540        0.048      343.484       19.627      860.554
10/18/2014  14:29:00       38.195       12.076        9.339       39.323       58.256       29.959     1546.266     3393.809      897.514        0.376        0.292       40.059       25.300        0.399      343.590       19.809      860.551
10/18/2014  14:30:00       35.658      -55.698        5.045       39.513       31.939       24.948     1561.265     1020.131      622.404        0.380        0.160       66.134       23.391        0.125      343.492       19.642      860.533
10/18/2014  14:31:00      101.320      -32.240       19.229       54.057       68.965       39.460     2922.200     4756.141     1557.105        1.045        0.462      106.326       32.261        0.092      343.444       19.559      860.509
10/18/2014  14:32:00       58.018      -12.485       19.165       46.629       66.026       35.358     2174.287     4359.429     1250.157        0.584        0.389       59.346       25.954        0.191      343.518       19.686      860.497
10/18/2014  14:33:00       60.566     -170.449       -4.906       61.637       64.242       57.189     3799.119     4126.997     3270.619        2.197        0.560      180.890       33.548        0.034      343.720       20.027      860.485
10/18/2014  14:34:00      152.786     -210.459       -6.777      115.124       84.364       57.896    13253.565     7117.205     3351.919        4.570        1.186      260.071       68.866        0.070      343.546       19.731      860.457
10/18/2014  14:35:00       23.618     -110.173       12.153       71.534       74.678       43.500     5117.085     5576.774     1892.233        1.271        0.629      112.676       33.025        0.086      343.815       20.192      860.447
10/18/2014  14:36:00       53.822     -123.304        9.011       62.497       85.866       53.683     3905.885     7372.894     2881.882        1.617        0.708      134.539       54.569        0.165      343.732       20.050      860.447
10/18/2014  14:37:00       85.517     -150.704      -16.692       82.151       77.111       46.475     6748.705     5946.034     2159.916        2.258        0.743      173.277       41.764        0.058      343.384       19.454      860.444
10/18/2014  14:38:00       21.031      -68.426       25.411       57.914       66.025       48.305     3353.998     4359.355     2333.344        0.791        0.502       71.585       44.952        0.394      343.784       20.139      860.432
10/18/2014  14:39:00       -1.359        5.266       29.523       22.801       46.921       23.458      519.868     2201.622      550.260        0.209        0.164        5.438       20.567       14.303      343.448       19.566      860.430
10/18/2014  14:40:00       12.821       31.008       33.214       23.654       26.837       28.556      559.522      720.240      815.473        0.216        0.105       33.554       20.962        0.390      343.620       19.860      860.425
10/18/2014  14:41:00       76.143       52.965       16.032       53.477       46.159       37.066     2859.772     2130.636     1373.886        0.761        0.318       92.752       27.904        0.091      343.721       20.033      860.416
10/18/2014  14:42:00       80.045      -21.030       13.055       49.749       55.162       36.406     2474.999     3042.893     1325.383        0.693        0.342       82.761       27.018        0.107      343.641       19.897      860.404
10/18/2014  14:43:00       74.715       46.488       32.769       47.811       42.084       35.463     2285.925     1771.039     1257.593        0.707        0.266       87.997       24.529        0.078      343.787       20.144      860.388
10/18/2014  14:44:00      125.045       72.372        5.136       85.414       40.374       38.628     7295.550     1630.067     1492.151        1.566        0.521      144.479       22.439        0.024      343.778       20.130      860.370
10/18/2014  14:45:00       60.307       34.716       28.136       67.858       73.675       44.873     4604.714     5428.025     2013.593        0.884        0.602       69.585       23.270        0.112      343.802       20.171      860.344
10/18/2014  14:46:00       51.899       47.761       71.208       48.265       57.371       37.997     2329.535     3291.428     1443.753        0.855        0.353       70.531       22.830        0.105      343.515       19.680      860.341
10/18/2014  14:47:00       56.615      -19.076       24.524       61.169       30.517       27.952     3741.623      931.262      781.323        0.481        0.273       59.743       25.194        0.178      343.344       19.391      860.344
10/18/2014  14:48:00       82.685       56.013        8.081       49.235       46.655       39.016     2424.046     2176.647     1522.220        0.808        0.306       99.871       30.139        0.091      343.206       19.153      860.326
10/18/2014  14:49:00        9.140       82.867       -2.345       39.550       29.724       25.063     1564.225      883.498      628.135        0.502        0.154       83.369       19.628        0.055      343.507       19.667      860.309
10/18/2014  14:50:00        4.279       33.917        4.320       19.256       31.569       25.975      370.810      996.593      674.676        0.161        0.102       34.186       25.143        0.541      343.777       20.128      860.289
10/18/2014  14:51:00       16.366       26.548       13.567       27.354       50.310       15.849      748.266     2531.103      251.180        0.234        0.177       31.188       22.425        0.517      343.772       20.119      860.265
10/18/2014  14:52:00      -14.609      138.522      -25.151       31.048       32.610       22.429      963.988     1063.408      503.038        1.128        0.127      139.290       18.059        0.017      343.519       19.689      860.247
10/18/2014  14:53:00      -23.722      112.671      -19.614       33.332       25.623       15.910     1111.046      656.538      253.113        0.783        0.101      115.141       11.158        0.009      343.627       19.871      860.227
10/18/2014  14:54:00      -31.178       47.230      -14.065       26.777       52.248       21.872      717.001     2729.852      478.371        0.366        0.196       56.592       15.079        0.071      343.821       20.203      860.212
10/18/2014  14:55:00       79.577       63.476        6.392       60.191       37.486       25.222     3623.009     1405.180      636.149        0.803        0.283      101.792       14.512        0.020      343.665       19.937      860.217
10/18/2014  14:56:00       24.381      139.991      -15.228       71.735       63.623       30.576     5145.885     4047.942      934.876        1.527        0.506      142.099       32.415        0.052      343.735       20.055      860.199
10/18/2014  14:57:00       86.371       36.885       23.254       58.507       40.071       36.826     3423.069     1605.703     1356.132        0.787        0.319       93.918       25.590        0.074      343.762       20.104      860.201
10/18/2014  14:58:00       50.797       45.536       24.663       43.753       35.396       36.872     1914.347     1252.875     1359.514        0.489        0.226       68.220       25.712        0.142      343.985       20.482      860.191
10/18/2014  14:59:00       83.841        4.290       40.556       48.887       85.654       48.412     2389.925     7336.527     2343.683        1.038        0.604       83.951       43.251        0.265      343.681       19.963      860.180
10/18/2014  15:00:00      115.404       79.833       -0.866       62.169       51.915       43.374     3865.042     2695.165     1881.295        1.407        0.422      140.326       24.042        0.029      343.762       20.100      860.179
10/18/2014  15:01:00      130.171       45.550       29.893       89.136       70.817       42.851     7945.281     5015.109     1836.165        1.735        0.740      137.910       24.292        0.031      343.884       20.309      860.162
10/18/2014  15:02:00       43.464       56.680       51.806       55.278       48.184       48.474     3055.638     2321.653     2349.736        0.776        0.386       71.427       34.703        0.236      343.654       19.918      860.161
10/18/2014  15:03:00       41.059       42.609       56.448       70.955       52.018       43.524     5034.555     2705.845     1894.297        0.816        0.482       59.173       44.650        0.569      343.792       20.152      860.144
10/18/2014  15:04:00       53.352       69.696       86.076       56.086      104.484       65.752     3145.605    10916.959     4323.390        1.675        0.919       87.773       70.507        0.645      343.619       19.858      860.111
10/18/2014  15:05:00       90.334       84.091       12.833       86.914       53.750       58.314     7553.982     2889.052     3400.476        1.462        0.692      123.416       27.442        0.049      343.830       20.217      860.115
10/18/2014  15:06:00       95.862       63.964        2.879       67.323       47.993       39.013     4532.345     2303.298     1522.048        1.082        0.418      115.243       22.275        0.037      344.031       20.561      860.120
10/18/2014  15:07:00       99.402       65.001       55.653       69.818       52.704       51.841     4874.592     2777.660     2687.459        1.377        0.517      118.768       35.496        0.089      343.768       20.112      860.121
10/18/2014  15:08:00       22.627       71.259       57.902       90.529       47.672       43.800     8195.583     2272.648     1918.437        1.066        0.619       74.765       36.530        0.239      343.988       20.487      860.127
10/18/2014  15:09:00       75.435       54.740       25.085       52.946       42.066       25.462     2803.240     1769.525      648.331        0.727        0.261       93.204       17.166        0.034      343.954       20.431      860.128
10/18/2014  15:10:00       98.299       68.732       33.197       47.533       50.298       39.102     2259.407     2529.931     1528.966        1.090        0.316      119.945       25.413        0.045      343.718       20.027      860.125
10/18/2014  15:11:00      129.331       59.909       19.948       40.748       63.765       41.516     1660.434     4065.989     1723.540        1.408        0.372      142.532       30.933        0.047      343.403       19.491      860.117
10/18/2014  15:12:00      116.237       91.960       42.600       59.755       48.509       53.463     3570.657     2353.077     2858.266        1.628        0.439      148.215       35.637        0.058      343.663       19.932      860.120
10/18/2014  15:13:00       97.620       79.983       18.555       44.627       46.072       39.587     1991.565     2122.656     1567.093        1.098        0.284      126.202       19.341        0.023      343.723       20.036      860.102
10/18/2014  15:14:00       61.056       44.083       37.032       41.295       30.432       29.203     1705.304      926.130      852.788        0.526        0.174       75.307       17.331        0.053      343.832       20.222      860.104
10/18/2014  15:15:00       25.560       32.178       44.664       59.082       46.771       41.012     3490.725     2187.492     1682.008        0.552        0.368       41.095       44.161        1.155      343.671       19.948      860.094
10/18/2014  15:16:00       65.120      -30.248       28.017       66.187       65.650       45.735     4380.750     4309.885     2091.670        0.836        0.539       71.803       50.888        0.502      343.666       19.939      860.070
10/18/2014  15:17:00       48.624      -59.952       11.103       69.052       72.200       55.241     4768.178     5212.771     3051.525        0.955        0.652       77.192       48.681        0.398      344.017       20.537      860.048
10/18/2014  15:18:00       36.016     -106.431       12.879       49.559       91.871       49.485     2456.103     8440.281     2448.736        1.307        0.667      112.360       44.738        0.159      343.925       20.379      860.040
10/18/2014  15:19:00       17.342      -13.454       26.241       31.951       40.113       21.981     1020.872     1609.030      483.164        0.214        0.156       21.949       26.860        1.497      344.095       20.670      860.038
10/18/2014  15:20:00       11.494        9.651       39.766       31.099       47.897       33.800      967.152     2294.088     1142.415        0.310        0.220       15.009       37.281        6.170      343.698       19.992      860.044
10/18/2014  15:21:00       30.797       -4.487        6.293       28.187       40.117       26.258      794.481     1609.404      689.501        0.205        0.155       31.122       17.587        0.319      343.602       19.829      860.036
10/18/2014  15:22:00      103.054       87.260        1.182       78.624       61.677       51.497     6181.735     3804.073     2651.990        1.543        0.632      135.036       27.299        0.041      343.696       19.989      860.030
10/18/2014  15:23:00      137.996      101.780       77.016       63.959       66.725       47.450     4090.756     4452.243     2251.475        2.306        0.540      171.470       34.353        0.040      343.932       20.390      860.041
10/18/2014  15:24:00       45.426        6.037       44.536       40.541       69.874       38.249     1643.552     4882.439     1462.952        0.603        0.399       45.825       37.232        0.660      343.766       20.108      860.035
10/18/2014  15:25:00       57.298       38.531       77.817       59.923       92.269       68.998     3590.765     8513.507     4760.718        1.384        0.843       69.049       71.778        1.081      343.550       19.741      860.028
10/18/2014  15:26:00       79.862       62.611       66.038       72.996       39.091       48.198     5328.368     1528.129     2323.062        1.192        0.459      101.479       35.773        0.124      343.564       19.764      860.024
10/18/2014  15:27:00       45.359       65.613       48.154       78.594       61.008       39.998     6176.958     3722.034     1599.870        1.009        0.575       79.766       28.743        0.130      343.811       20.185      860.019
10/18/2014  15:28:00      101.089       64.724       91.307      119.367       99.419       83.326    14248.566     9884.221     6943.207        2.691        1.554      120.034       76.687        0.408      343.755       20.088      859.997
10/18/2014  15:29:00      162.960      116.269      133.623      124.027       90.806       74.350    15382.706     8245.777     5527.971        4.354        1.458      200.187       69.266        0.120      343.685       19.967      859.986
10/18/2014  15:30:00       13.661       39.600       71.930       71.781       83.063       59.807     5152.469     6899.503     3576.854        1.128        0.781       41.890       58.530        1.952      343.787       20.146      859.996
10/18/2014  15:31:00      100.842      -15.008       26.709       75.527       79.420       43.102     5704.400     6307.584     1857.816        1.249        0.693      101.952       38.105        0.140      343.944       20.412      859.992
10/18/2014  15:32:00       43.306        9.472       26.321       62.341       52.714       38.983     3886.400     2778.809     1519.669        0.542        0.409       44.330       31.692        0.511      344.015       20.535      859.991
10/18/2014  15:33:00       79.522       37.105       22.892       49.492       45.372       40.651     2449.462     2058.654     1652.498        0.719        0.308       87.753       26.797        0.093      343.917       20.367      859.985
10/18/2014  15:34:00       32.032       79.790       90.185       52.022       55.305       46.654     2706.327     3058.634     2176.563        1.173        0.397       85.980       36.084        0.176      343.890       20.322      859.974
10/18/2014  15:35:00       52.413      -12.829       22.704       52.917       82.744       28.995     2800.178     6846.628      840.712        0.696        0.524       53.961       27.233        0.255      343.949       20.422      859.970
10/18/2014  15:36:00       63.278      -63.366       15.205       59.895       61.803       40.967     3587.365     3819.585     1678.279        0.867        0.454       89.551       26.628        0.088      344.064       20.619      859.952
10/18/2014  15:37:00       49.825     -106.672       18.178      103.467      102.331       55.334    10705.385    10471.664     3061.814        1.921        1.212      117.734       49.619        0.178      344.001       20.510      859.932
10/18/2014  15:38:00       63.586       -5.658       37.060       71.664       69.861       49.169     5135.734     4880.608     2417.606        0.894        0.622       63.837       41.974        0.432      344.192       20.837      859.928
10/18/2014  15:39:00       60.690       45.175       72.586       84.787       62.495       44.212     7188.774     3905.678     1954.671        1.202        0.652       75.657       44.035        0.339      343.889       20.318      859.930
10/18/2014  15:40:00      181.181      111.231       75.991      111.816       63.972       72.501    12502.858     4092.475     5256.452        3.641        1.093      212.600       60.632        0.081      343.804       20.170      859.939
10/18/2014  15:41:00      192.118       67.468       19.795       83.102       74.990       49.512     6906.019     5623.495     2451.467        2.841        0.749      203.621       43.684        0.046      343.886       20.311      859.968
10/18/2014  15:42:00       89.704       54.498       21.464       45.580       27.281       31.264     2077.504      744.249      977.441        0.764        0.190      104.961       24.664        0.055      343.704       20.002      859.969
10/18/2014  15:43:00       -3.051       -2.952      -10.824       19.850       47.125       18.100      394.035     2220.763      327.622        0.154        0.147        4.245       22.658       28.491      344.026       20.552      859.951
10/18/2014  15:44:00       33.609      -48.146        6.517       29.251       52.926       28.467      855.617     2801.156      810.355        0.398        0.223       58.717       24.169        0.169      343.884       20.310      859.943
10/18/2014  15:45:00       48.037       44.225        8.988       23.375       25.818       25.729      546.382      666.568      661.987        0.311        0.094       65.295       12.849        0.039      343.699       19.994      859.938
10/18/2014  15:46:00       45.141       79.400        0.609       61.007       61.191       40.634     3721.863     3744.320     1651.093        0.873        0.456       91.335       37.284        0.167      344.037       20.572      859.927
10/18/2014  15:47:00       11.372      150.223      -23.614       50.750       47.973       27.872     2575.547     2301.400      776.833        1.445        0.283      150.652       21.798        0.021      343.917       20.366      859.920
10/18/2014  15:48:00       14.238        0.525       11.116       31.667       53.521       20.551     1002.793     2864.457      422.333        0.231        0.214       14.247       10.695        0.563      344.149       20.763      859.905
10/18/2014  15:49:00       55.471       13.988       29.956       29.372       24.552       25.900      862.719      602.817      670.812        0.315        0.107       57.207       14.885        0.068      343.948       20.420      859.898
10/18/2014  15:50:00       68.718       58.757       14.635       58.924       36.669       55.056     3472.029     1344.623     3031.110        0.812        0.392       90.413       30.538        0.114      343.750       20.082      859.894
10/18/2014  15:51:00      160.810      109.143       21.746       69.556       41.581       51.237     4838.054     1728.986     2625.191        2.372        0.460      194.350       27.945        0.021      344.015       20.531      859.886
10/18/2014  15:52:00      144.098       70.702       14.888       84.833       59.048       41.069     7196.561     3486.622     1686.626        1.918        0.618      160.509       13.802        0.007      343.970       20.454      859.876
10/18/2014  15:53:00      190.756      130.165       23.831       67.608       50.489       47.541     4570.897     2549.184     2260.114        3.164        0.469      230.935       34.903        0.023      344.126       20.719      859.879
10/18/2014  15:54:00      197.208       90.278       23.489       90.817       69.725       53.034     8247.701     4861.514     2812.586        3.175        0.796      216.890       46.999        0.047      344.063       20.615      859.867
10/18/2014  15:55:00      123.740      113.081       60.657      113.061       77.356       42.985    12782.800     5983.980     1847.668        2.619        1.031      167.628       43.825        0.068      344.065       20.616      859.862
10/18/2014  15:56:00       25.131       20.460       22.095       46.629       55.344       42.285     2174.295     3062.917     1788.001        0.428        0.351       32.406        5.513        0.029      344.082       20.650      859.855
10/18/2014  15:57:00       65.296       80.883       80.215       58.007       38.773       27.585     3364.827     1503.366      760.936        1.143        0.281      103.951       24.575        0.056      344.015       20.534      859.846
10/18/2014  15:58:00       35.966      -33.465        4.027       39.092       26.503       31.756     1528.205      702.428     1008.412        0.283        0.162       49.127       21.474        0.191      344.016       20.536      859.836
10/18/2014  15:59:00       91.358       28.622       25.846       71.251       94.892       41.901     5076.692     9004.578     1755.722        1.283        0.792       95.736       52.951        0.306      343.853       20.256      859.819
10/18/2014  16:00:00       61.611       25.393       22.123       68.508       43.817       33.174     4693.387     1919.925     1100.517        0.632        0.386       66.638       27.385        0.169      343.930       20.390      859.807
10/18/2014  16:01:00       78.413       58.591       40.202       69.032       60.012       36.597     4765.410     3601.443     1339.344        1.045        0.485       97.885       44.938        0.211      343.978       20.472      859.781
10/18/2014  16:02:00      111.477       75.319       45.133       60.660       67.336       29.924     3679.633     4534.105      895.438        1.462        0.455      134.537       12.538        0.009      344.054       20.601      859.763
10/18/2014  16:03:00       45.886       -0.285       47.811       61.858       66.947       41.719     3826.374     4481.917     1740.487        0.722        0.502       45.886       33.286        0.526      343.962       20.443      859.747
10/18/2014  16:04:00      128.666       90.512       18.503       62.531       40.445       41.884     3910.153     1635.821     1754.296        1.619        0.365      157.313       19.295        0.015      344.088       20.660      859.741
10/18/2014  16:05:00       89.826       57.371       20.863       69.013       43.336       32.841     4762.851     1878.016     1078.515        0.976        0.386      106.584       22.468        0.044      344.275       20.978      859.736
10/18/2014  16:06:00       68.358       46.826       15.856       64.293       58.727       45.700     4133.601     3448.905     2088.489        0.839        0.484       82.859       24.595        0.088      344.260       20.952      859.724
10/18/2014  16:07:00       21.717       32.664       35.848       37.269       50.469       21.009     1388.964     2547.119      441.358        0.360        0.219       39.225       14.661        0.140      344.129       20.728      859.715
10/18/2014  16:08:00      107.876       64.874       30.450       52.604       34.863       34.020     2767.216     1215.395     1157.335        1.096        0.257      125.880       16.021        0.016      343.891       20.323      859.704
10/18/2014  16:09:00       88.457       66.126       11.637       35.563       40.962       34.157     1264.704     1677.869     1166.670        0.822        0.205      110.441       18.007        0.027      343.988       20.488      859.693
10/18/2014  16:10:00       -0.219      -16.544       -0.892       31.252       19.710       13.882      976.660      388.482      192.716        0.092        0.078       16.545        9.153        0.306      344.018       20.541      859.673
10/18/2014  16:11:00      120.135       31.512       37.641       94.014      115.564       69.483     8838.634    13354.980     4827.923        2.193        1.351      124.199       68.792        0.307      343.604       19.831      859.650
10/18/2014  16:12:00       90.590       99.664       -3.074       87.696       71.784       50.265     7690.624     5152.981     2526.591        1.676        0.769      134.683       48.826        0.131      344.211       20.867      859.638
10/18/2014  16:13:00      110.832      103.624        5.985       82.047       58.573       55.324     6731.783     3430.787     3060.732        1.814        0.661      151.728       41.499        0.075      344.149       20.761      859.633
10/18/2014  16:14:00       90.478      126.487       -4.906       86.347       83.695       52.167     7455.741     7004.808     2721.362        2.069        0.859      155.516       36.323        0.055      344.087       20.655      859.630
10/18/2014  16:15:00       75.653       57.494        3.642       85.169       97.990       46.598     7253.748     9602.014     2171.381        1.403        0.951       95.021       40.524        0.182      344.035       20.569      859.611
10/18/2014  16:16:00       91.949       45.624       29.183       72.405       37.617       42.853     5242.420     1415.046     1836.352        0.994        0.425      102.645       17.419        0.029      344.159       20.779      859.608
10/18/2014  16:17:00       77.051       59.216       49.839       88.710       58.347       59.172     7869.465     3404.366     3501.285        1.335        0.739       97.177       60.597        0.389      343.759       20.096      859.599
10/18/2014  16:18:00       25.148       20.332       36.787       31.206       40.851       26.155      973.826     1668.834      684.091        0.286        0.166       32.339       23.162        0.513      343.792       20.152      859.601
10/18/2014  16:19:00       90.000       42.039       21.277       48.599       32.719       33.259     2361.828     1070.516     1106.194        0.743        0.227       99.334       13.129        0.017      343.958       20.436      859.601
10/18/2014  16:20:00       65.826       58.832       12.815       55.403       37.786       25.810     3069.481     1427.808      666.148        0.656        0.258       88.286       16.522        0.035      344.167       20.795      859.594
10/18/2014  16:21:00       51.459       53.338       12.706       68.508       53.267       33.340     4693.302     2837.349     1111.566        0.715        0.432       74.115       28.002        0.143      344.127       20.726      859.577
10/18/2014  16:22:00       84.931       65.798       24.616       66.748       35.933       34.070     4455.341     1291.185     1160.755        0.953        0.345      107.437       18.999        0.031      344.212       20.870      859.554
10/18/2014  16:23:00       60.000       65.150       40.031       55.217       35.101       38.787     3048.972     1232.081     1504.413        0.762        0.289       88.570       10.240        0.013      344.312       21.042      859.549
10/18/2014  16:24:00      157.107      102.134       46.515       80.611       49.748       48.565     6498.088     2474.863     2358.532        2.430        0.567      187.387       38.703        0.043      344.241       20.920      859.543
10/18/2014  16:25:00      204.508      107.143        6.943       66.476       49.686       48.303     4419.031     2468.692     2333.147        3.128        0.461      230.875       10.634        0.002      344.319       21.049      859.537
10/18/2014  16:26:00       11.976      -24.014       -6.170       53.151       29.914       29.303     2824.988      894.848      858.692        0.267        0.229       26.834       10.190        0.144      344.441       21.262      859.521
10/18/2014  16:27:00       47.302       35.470       29.468       61.464       48.961       55.015     3777.864     2397.206     3026.679        0.678        0.460       59.124       47.594        0.648      344.260       20.952      859.508
10/18/2014  16:28:00      158.458       75.637       51.904      138.753       93.022       72.633    19252.388     8653.118     5275.544        3.335        1.659      175.584       67.630        0.148      344.124       20.719      859.486
10/18/2014  16:29:00      167.494       73.210       73.849      113.377       88.878       74.963    12854.318     7899.276     5619.462        3.262        1.319      182.795       68.433        0.140      343.995       20.498      859.493
10/18/2014  16:30:00      103.189       28.650       57.596       75.832       54.909       43.050     5750.463     3014.997     1853.262        1.270        0.531      107.092       30.614        0.082      343.955       20.430      859.492
10/18/2014  16:31:00      130.894       93.997       54.714       73.544       76.391       56.625     5408.662     5835.575     3206.395        2.170        0.723      161.148       43.149        0.072      344.016       20.534      859.490
10/18/2014  16:32:00      174.427      110.199       40.334       90.519       78.199       64.597     8193.714     6115.147     4172.753        3.134        0.924      206.322       47.370        0.053      344.131       20.729      859.497
10/18/2014  16:33:00      127.056       79.570       33.503       38.115       31.748       29.342     1452.780     1007.961      860.951        1.346        0.166      149.916       16.952        0.013      344.057       20.604      859.504
10/18/2014  16:34:00       81.613       51.099       28.028       41.589       35.425       27.501     1729.621     1254.908      756.282        0.690        0.187       96.290       18.097        0.035      343.773       20.121      859.496
10/18/2014  16:35:00       59.149       57.167       25.166       47.229       34.441       28.690     2230.619     1186.178      823.121        0.582        0.212       82.260       18.880        0.053      344.024       20.550      859.489
10/18/2014  16:36:00      191.856      112.820       52.951       82.691       76.393       50.878     6837.720     5835.879     2588.550        3.380        0.763      222.570       32.450        0.021      344.150       20.761      859.480
10/18/2014  16:37:00       94.810       73.495       57.190       59.023       44.875       40.407     3483.675     2013.801     1632.731        1.239        0.357      119.960       21.396        0.032      343.877       20.299      859.489
10/18/2014  16:38:00      131.420       90.049       33.244       57.580       44.793       39.423     3315.428     2006.435     1554.182        1.668        0.344      159.311       16.932        0.011      344.060       20.610      859.481
10/18/2014  16:39:00       35.472        0.300       22.238       35.220       35.473       17.901     1240.424     1258.332      320.430        0.229        0.141       35.473        8.762        0.061      343.860       20.269      859.476
10/18/2014  16:40:00      133.352       95.749       43.297      123.314       64.692       57.993    15206.332     4185.095     3363.148        2.579        1.138      164.167       30.404        0.034      343.897       20.329      859.472
10/18/2014  16:41:00      129.916       73.782       33.084       67.917       41.840       43.725     4612.744     1750.620     1911.905        1.584        0.414      149.405       15.897        0.011      344.060       20.611      859.480
10/18/2014  16:42:00       82.824       57.014       33.004       44.723       31.266       29.938     2000.158      977.553      896.311        0.754        0.194      100.550       23.671        0.055      343.744       20.073      859.479
10/18/2014  16:43:00       99.213       77.198       62.481       58.248       42.150       47.455     3392.835     1776.582     2251.961        1.356        0.371      125.709       33.661        0.072      343.973       20.462      859.476
10/18/2014  16:44:00       31.984       14.074       12.670       33.120       32.788       26.450     1096.915     1075.081      699.599        0.213        0.144       34.943       15.433        0.195      343.880       20.304      859.471
10/18/2014  16:45:00       74.217       49.638        9.672       34.935       27.681       31.509     1220.455      766.217      992.845        0.552        0.149       89.287       24.307        0.074      343.941       20.409      859.474
10/18/2014  16:46:00      122.560       91.074       29.276       80.102       56.728       46.412     6416.363     3218.078     2154.042        1.798        0.589      152.694       32.250        0.045      344.207       20.859      859.471
10/18/2014  16:47:00       76.990       40.873       19.527       65.195       40.073       41.109     4250.379     1605.817     1689.935        0.776        0.377       87.167       32.097        0.136      344.266       20.962      859.474
10/18/2014  16:48:00      190.676       83.920       26.157      127.560       65.798       47.466    16271.663     4329.407     2253.038        3.347        1.143      208.327       27.545        0.017      344.167       20.791      859.476
10/18/2014  16:49:00      164.630      121.156       15.039       87.355       59.334       51.417     7630.880     3520.574     2643.693        2.790        0.690      204.406       24.569        0.014      344.167       20.791      859.486
10/18/2014  16:50:00      187.613      114.419       37.693       67.284       57.032       37.663     4527.108     3252.674     1418.539        2.945        0.460      219.751       20.711        0.009      344.110       20.693      859.482
10/18/2014  16:51:00       73.877       29.637       29.120       71.035       41.944       29.818     5046.040     1759.272      889.139        0.744        0.385       79.600       20.177        0.064      344.039       20.575      859.479
10/18/2014  16:52:00       71.191       37.372       30.860       54.533       38.025       44.998     2973.900     1445.916     2024.844        0.693        0.322       80.404       34.376        0.183      343.934       20.397      859.469
10/18/2014  16:53:00      136.232       93.180       23.056       73.652       59.677       43.832     5424.680     3561.334     1921.200        1.934        0.545      165.050       25.529        0.024      344.154       20.771      859.465
10/18/2014  16:54:00      201.317      119.018       37.046       81.069       50.887       50.880     6572.133     2589.493     2588.801        3.391        0.588      233.867       21.696        0.009      344.151       20.763      859.456
10/18/2014  16:55:00      176.707      105.893       31.592       61.330       45.105       48.019     3761.366     2034.446     2305.859        2.577        0.405      206.006       38.397        0.035      344.119       20.708      859.447
10/18/2014  16:56:00      106.770       28.744       13.631       79.609       49.807       43.628     6337.650     2480.741     1903.413        1.157        0.536      110.571       29.126        0.069      343.997       20.504      859.442
10/18/2014  16:57:00      120.368       97.086       60.713       74.032       62.028       52.289     5480.724     3847.472     2734.179        1.983        0.603      154.642       31.509        0.042      343.878       20.297      859.445
10/18/2014  16:58:00      172.501      133.379       33.562       79.055       58.725       64.761     6249.668     3448.589     4193.937        3.128        0.695      218.052       35.525        0.027      344.150       20.760      859.453
10/18/2014  16:59:00      157.624      133.295       36.839       68.015       57.886       49.360     4626.008     3350.731     2436.400        2.719        0.521      206.429       20.517        0.010      344.190       20.830      859.459
10/18/2014  17:00:00      225.335      134.604       21.598       96.615       95.821       48.495     9334.516     9181.631     2351.753        4.511        1.043      262.477       42.796        0.027      344.116       20.702      859.436
10/18/2014  17:01:00      147.119       78.985       44.109       96.888       82.077       74.372     9387.211     6736.661     5531.148        2.574        1.083      166.981       63.278        0.144      344.032       20.560      859.430
10/18/2014  17:02:00      158.406       80.641       29.229       87.629       75.599       62.838     7678.915     5715.221     3948.670        2.489        0.867      177.751       24.899        0.020      344.124       20.718      859.428
10/18/2014  17:03:00      184.883       93.596       54.737       91.337       83.325       48.146     8342.423     6943.042     2318.032        3.177        0.880      207.224       33.287        0.026      343.994       20.496      859.431
10/18/2014  17:04:00      162.330       84.057       38.488      109.394       88.658       77.529    11967.038     7860.217     6010.788        3.036        1.292      182.802       63.399        0.120      343.934       20.393      859.419
10/18/2014  17:05:00      243.357      129.427       40.198       94.624       79.121       57.668     8953.671     6260.106     3325.637        4.806        0.927      275.634       34.414        0.016      344.103       20.681      859.412
10/18/2014  17:06:00      122.708       38.962       36.317      105.147       62.934       52.485    11055.823     3960.689     2754.638        1.783        0.889      128.746       42.165        0.107      343.855       20.262      859.416
10/18/2014  17:07:00      230.629      145.165       10.347       97.859       83.197       55.357     9576.377     6921.665     3064.396        4.696        0.978      272.512       42.779        0.025      344.110       20.692      859.412
10/18/2014  17:08:00      226.554      158.560       21.597       72.355       59.572       56.066     5235.183     3548.777     3143.398        4.443        0.596      276.529       36.396        0.017      344.105       20.686      859.405
10/18/2014  17:09:00      193.442      110.669       27.251       53.133       43.276       43.929     2823.109     1872.849     1929.790        2.852        0.331      222.862       36.667        0.027      344.119       20.708      859.396
10/18/2014  17:10:00       76.243       21.177       12.196       70.066       43.126       33.640     4909.223     1859.810     1131.634        0.715        0.395       79.129       19.762        0.062      344.085       20.654      859.391
10/18/2014  17:11:00      113.820       40.480       19.750       50.399       34.739       32.572     2540.009     1206.803     1060.931        0.989        0.240      120.804       18.369        0.023      343.929       20.389      859.384
10/18/2014  17:12:00       88.566       64.008       10.627       35.795       34.914       31.883     1281.316     1219.021     1016.505        0.778        0.176      109.275       19.764        0.033      344.094       20.670      859.381
10/18/2014  17:13:00      138.865       80.242       30.232       56.711       61.420       47.604     3216.194     3772.402     2266.120        1.794        0.463      160.381       34.241        0.046      343.908       20.350      859.374
10/18/2014  17:14:00       92.338       46.481       51.601       83.599       69.265       49.463     6988.874     4797.685     2446.597        1.379        0.712      103.377       49.484        0.229      343.672       19.947      859.368
10/18/2014  17:15:00      108.984       68.013       39.911       50.616       52.803       42.673     2561.960     2788.137     1820.958        1.263        0.359      128.465       35.938        0.078      343.643       19.898      859.365
10/18/2014  17:16:00      183.129      117.608       44.112       82.588       75.964       63.277     6820.726     5770.543     4003.938        3.295        0.830      217.641       36.259        0.028      343.959       20.437      859.362
10/18/2014  17:17:00      173.507       91.223       45.708       53.210       34.660       35.419     2831.316     1201.340     1254.524        2.290        0.264      196.027       25.234        0.017      343.816       20.192      859.341
10/18/2014  17:18:00      131.889       44.851       20.962       79.874       57.348       47.348     6379.780     3288.835     2241.833        1.588        0.596      139.307       35.690        0.066      343.829       20.215      859.328
10/18/2014  17:19:00      121.427       80.257       62.519       70.920       45.181       58.844     5029.705     2041.345     3462.630        1.781        0.527      145.553       42.884        0.087      343.674       19.952      859.312
10/18/2014  17:20:00      100.161       82.897       38.774       72.901       52.696       41.428     5314.575     2776.839     1716.301        1.411        0.490      130.016       24.421        0.035      343.934       20.395      859.300
10/18/2014  17:21:00       92.388       66.564       42.932       49.180       33.123       37.557     2418.715     1097.111     1410.499        0.987        0.246      113.869       24.967        0.048      343.850       20.254      859.295
10/18/2014  17:22:00      120.431       85.881       57.419       53.478       47.369       35.920     2859.891     2243.825     1290.277        1.578        0.320      147.916       17.981        0.015      343.924       20.377      859.284
10/18/2014  17:23:00      266.169      119.831       39.589      109.070       73.257       59.258    11896.362     5366.538     3511.558        5.377        1.039      291.899       35.453        0.015      344.041       20.575      859.285
10/18/2014  17:24:00       80.808       51.415       63.526       82.384       61.327       51.338     6787.127     3760.985     2635.541        1.319        0.659       95.778       40.417        0.178      343.918       20.368      859.276
10/18/2014  17:25:00      112.186       93.458       58.700       42.834       47.465       47.755     1834.765     2252.912     2280.511        1.557        0.318      146.015       29.122        0.040      343.789       20.149      859.272
10/18/2014  17:26:00       87.669       44.504       22.113       36.948       44.059       28.735     1365.185     1941.230      825.678        0.714        0.207       98.318       20.466        0.043      343.677       19.957      859.279
10/18/2014  17:27:00       74.508       61.878       64.104       62.322       35.855       43.139     3884.085     1285.574     1860.957        1.026        0.352       96.852       25.349        0.069      343.644       19.899      859.270
10/18/2014  17:28:00      126.428       74.409       34.314       63.503       39.816       42.481     4032.610     1585.289     1804.622        1.506        0.371      146.699       27.443        0.035      343.589       19.807      859.278
10/18/2014  17:29:00      141.622       75.875       52.991      106.489       72.444       71.755    11340.005     5248.177     5148.778        2.518        1.087      160.666       53.529        0.111      343.813       20.188      859.282
10/18/2014  17:30:00      186.108       91.254       23.031      113.805       69.943       65.432    12951.491     4892.068     4281.336        3.281        1.106      207.277       51.052        0.061      343.951       20.421      859.291
10/18/2014  17:31:00      226.717      137.878       24.665       96.463       73.623       53.309     9305.178     5420.399     2841.805        4.429        0.878      265.351       38.361        0.021      343.993       20.494      859.293
10/18/2014  17:32:00      164.273      106.741       20.937      105.405       66.981       56.701    11110.231     4486.469     3214.987        2.881        0.941      195.906       40.939        0.044      343.986       20.481      859.307
10/18/2014  17:33:00      207.015      143.865       17.305      137.200       78.498       49.824    18823.769     6161.944     2482.409        4.566        1.373      252.096       45.214        0.032      343.987       20.485      859.310
10/18/2014  17:34:00      117.327       83.838       25.902       71.717       49.894       45.830     5143.317     2489.420     2100.429        1.560        0.487      144.203       34.059        0.056      343.945       20.414      859.307
10/18/2014  17:35:00      148.797       96.875       25.463      105.337       71.415       65.793    11095.974     5100.088     4328.724        2.635        1.026      177.554       40.210        0.051      343.934       20.394      859.314
10/18/2014  17:36:00      140.532      105.278       34.081       61.153       54.994       47.354     3739.720     3024.346     2242.373        2.050        0.450      175.592       23.626        0.018      343.830       20.216      859.309
10/18/2014  17:37:00       86.985       71.615       25.201       39.310       39.889       42.273     1545.299     1591.171     1786.993        0.913        0.246      112.673       17.141        0.023      343.757       20.093      859.306
10/18/2014  17:38:00      133.452       75.700       14.052       59.815       49.403       33.243     3577.823     2440.619     1105.121        1.543        0.356      153.427       17.296        0.013      343.915       20.362      859.310
10/18/2014  17:39:00      164.568      116.030       30.626       78.099       48.903       53.597     6099.434     2391.498     2872.620        2.642        0.568      201.359       39.502        0.038      343.899       20.334      859.300
10/18/2014  17:40:00      118.873       67.246       20.785       73.149       51.952       37.350     5350.707     2698.984     1394.993        1.426        0.472      136.575       14.423        0.011      343.825       20.209      859.308
10/18/2014  17:41:00      235.384      134.519       38.852       95.022       70.413       63.419     9029.148     4958.054     4021.981        4.651        0.900      271.111       26.173        0.009      343.911       20.352      859.295
10/18/2014  17:42:00      147.681       61.822       32.460       96.612       67.798       49.012     9333.850     4596.502     2402.151        2.151        0.817      160.098       36.039        0.051      343.676       19.952      859.283
10/18/2014  17:43:00      116.416       56.540       16.433       99.591       72.599       44.298     9918.367     5270.569     1962.316        1.708        0.858      129.420       46.882        0.131      343.759       20.097      859.280
10/18/2014  17:44:00      119.150       64.524       32.138       59.919       59.686       39.618     3590.247     3562.438     1569.564        1.406        0.436      135.500       28.272        0.044      343.719       20.028      859.288
10/18/2014  17:45:00       31.233       45.792       37.026       54.527       41.100       40.699     2973.176     1689.226     1656.382        0.538        0.316       55.429       27.539        0.247      343.547       19.734      859.291
10/18/2014  17:46:00      104.707       74.078       25.435       54.079       31.016       31.595     2924.591      961.975      998.244        1.099        0.244      128.262       25.628        0.040      343.566       19.768      859.290
10/18/2014  17:47:00       75.027       59.604       13.406       48.566       36.474       32.156     2358.626     1330.320     1034.013        0.704        0.236       95.821       14.632        0.023      343.686       19.972      859.286
10/18/2014  17:48:00      109.021       68.099       44.772       62.839       42.832       48.698     3948.794     1834.622     2371.530        1.334        0.408      128.542       35.185        0.075      343.602       19.828      859.281
10/18/2014  17:49:00      180.532      104.183       33.329       82.772       70.886       55.214     6851.218     5024.780     3048.546        2.974        0.746      208.437       43.221        0.043      343.669       19.939      859.273
10/18/2014  17:50:00      109.530       62.178       21.743       71.071       50.192       34.555     5051.085     2519.220     1194.051        1.255        0.438      125.948       24.988        0.039      343.699       19.993      859.280
10/18/2014  17:51:00      111.145       77.718       22.901       73.707       65.020       51.494     5432.747     4227.651     2651.626        1.561        0.616      135.622       32.812        0.059      343.677       19.956      859.276
10/18/2014  17:52:00       99.548       64.538       20.421       54.008       53.148       35.212     2916.840     2824.675     1239.858        1.074        0.349      118.638       22.133        0.035      343.472       19.608      859.278
10/18/2014  17:53:00      135.213       74.748       41.119       61.880       46.112       40.133     3829.183     2126.344     1610.637        1.656        0.378      154.499       33.206        0.046      343.481       19.622      859.284
10/18/2014  17:54:00      206.594       46.271       42.581      121.505       91.793       66.707    14763.521     8425.934     4449.862        3.713        1.382      211.712       55.143        0.068      343.634       19.880      859.290
10/18/2014  17:55:00       86.128       57.337       39.735       68.360       50.640       34.963     4673.118     2564.391     1222.377        1.037        0.423      103.467       29.781        0.083      343.345       19.391      859.303
10/18/2014  17:56:00      184.977      119.139       47.796       90.727       63.766       49.936     8231.369     4066.157     2493.555        3.274        0.740      220.024       33.598        0.023      343.597       19.818      859.296
10/18/2014  17:57:00      146.204      109.058       30.821       79.629       53.485       53.524     6340.832     2860.613     2864.808        2.314        0.603      182.399       34.335        0.035      343.562       19.759      859.290
10/18/2014  17:58:00      175.409      130.346       56.931       88.380       56.984       55.953     7811.078     3247.135     3130.712        3.259        0.709      218.537       53.029        0.059      343.596       19.816      859.287
10/18/2014  17:59:00      197.610      129.188       62.681       95.379       69.703       58.378     9097.224     4858.540     3408.048        3.851        0.868      236.092       22.045        0.009      343.553       19.742      859.290
10/18/2014  18:00:00      184.433       97.629       32.454       67.382       57.505       35.290     4540.336     3306.851     1245.359        2.684        0.455      208.679       17.634        0.007      343.467       19.596      859.303
10/18/2014  18:01:00      118.183       82.687       13.017       63.148       55.975       42.091     3987.675     3133.178     1771.643        1.493        0.445      144.237       25.130        0.030      343.469       19.601      859.291
10/18/2014  18:02:00      156.509      107.362       25.466       52.987       39.860       44.340     2807.592     1588.820     1966.004        2.152        0.318      189.793       27.611        0.021      343.553       19.744      859.290
10/18/2014  18:03:00      132.842       75.469       36.511       51.179       45.435       40.414     2619.276     2064.359     1633.327        1.550        0.316      152.782       20.337        0.018      343.489       19.637      859.300
10/18/2014  18:04:00      146.968       90.505       32.691       96.749       63.913       45.171     9360.340     4084.921     2040.423        2.317        0.774      172.600       27.319        0.025      343.468       19.598      859.299
10/18/2014  18:05:00       85.816       74.121       31.558       53.148       44.039       40.864     2824.731     1939.462     1669.853        1.014        0.322      113.394       32.920        0.084      343.407       19.497      859.301
10/18/2014  18:06:00      111.924       73.768       16.537       49.796       42.687       33.708     2479.662     1822.165     1136.251        1.184        0.272      134.047       20.897        0.024      343.306       19.323      859.307
10/18/2014  18:07:00      149.894      120.517       23.510       68.311       46.370       40.273     4666.396     2150.202     1621.942        2.299        0.422      192.335       27.433        0.020      343.407       19.495      859.308
10/18/2014  18:08:00      157.631       98.194       32.502       94.493       63.304       43.719     8928.943     4007.367     1911.327        2.519        0.742      185.714       24.966        0.018      343.377       19.443      859.307
10/18/2014  18:09:00      120.885       41.261        8.385       62.197       33.715       30.977     3868.472     1136.687      959.587        1.117        0.298      127.733       16.404        0.016      343.167       19.088      859.308
10/18/2014  18:10:00      153.109      100.569       41.839       79.599       60.633       47.440     6335.946     3676.384     2250.577        2.378        0.613      183.184       31.190        0.029      343.333       19.369      859.311
10/18/2014  18:11:00       75.317       51.104       30.254       62.211       35.420       31.854     3870.213     1254.551     1014.654        0.767        0.307       91.018        9.979        0.012      343.156       19.069      859.303
10/18/2014  18:12:00      110.549       68.655       26.954       54.665       44.473       38.629     2988.292     1977.808     1492.237        1.206        0.323      130.133       19.260        0.022      343.170       19.093      859.313
10/18/2014  18:13:00      127.868       74.393       26.632       63.911       55.503       34.835     4084.565     3080.528     1213.446        1.548        0.419      147.934       11.464        0.006      343.179       19.106      859.312
10/18/2014  18:14:00      130.337       67.772       10.574       50.813       35.359       32.045     2581.994     1250.251     1026.880        1.328        0.243      146.904       13.109        0.008      343.196       19.136      859.314
10/18/2014  18:15:00       95.342       51.686        5.978       55.008       46.845       31.992     3025.918     2194.480     1023.472        0.902        0.312      108.451       14.672        0.018      343.008       18.817      859.318
10/18/2014  18:16:00      110.239       64.629       21.904       50.185       45.593       35.133     2518.531     2078.694     1234.299        1.132        0.292      127.788       12.045        0.009      342.998       18.799      859.326
10/18/2014  18:17:00      126.290       87.726       35.135       39.260       31.342       26.667     1541.333      982.326      711.105        1.406        0.162      153.770        5.736        0.001      343.143       19.046      859.329
10/18/2014  18:18:00       76.846       54.989       20.661       51.791       37.232       26.269     2682.313     1386.244      690.039        0.706        0.238       94.494       11.390        0.015      343.018       18.835      859.339
10/18/2014  18:19:00      138.735       84.434       34.356       41.459       34.787       27.207     1718.826     1210.127      740.247        1.561        0.183      162.409       16.156        0.010      343.091       18.958      859.346
10/18/2014  18:20:00      103.921       54.129       23.298       35.707       33.559       28.206     1274.986     1126.223      795.584        0.873        0.160      117.173       19.674        0.028      342.938       18.696      859.337
10/18/2014  18:21:00       85.251       61.620       27.007       56.853       39.856       32.418     3232.246     1588.464     1050.926        0.883        0.294      105.189       27.817        0.070      342.941       18.704      859.339
10/18/2014  18:22:00      129.340       71.148       19.424       56.680       43.719       32.995     3212.598     1911.319     1088.691        1.419        0.311      147.617       18.447        0.016      342.955       18.727      859.338
10/18/2014  18:23:00      112.099       70.425       30.255       53.558       36.072       37.635     2868.456     1301.189     1416.386        1.201        0.279      132.386       19.907        0.023      342.911       18.653      859.340
10/18/2014  18:24:00      129.277       64.135       35.937       57.287       39.875       31.921     3281.801     1589.987     1018.942        1.400        0.295      144.312       21.821        0.023      342.951       18.720      859.350
10/18/2014  18:25:00      124.692       65.471       29.259       42.790       38.858       29.800     1830.949     1509.913      888.035        1.246        0.211      140.835       25.333        0.032      342.977       18.766      859.357
10/18/2014  18:26:00      107.886       73.147       23.391       66.538       40.048       39.054     4427.357     1603.875     1525.195        1.255        0.378      130.345       28.536        0.048      343.064       18.913      859.353
10/18/2014  18:27:00      117.331       70.252       36.162       38.856       24.495       25.703     1509.770      600.020      660.628        1.139        0.139      136.755       16.260        0.014      342.985       18.778      859.344
10/18/2014  18:28:00      125.507       82.734       30.235       45.855       38.354       32.951     2102.654     1471.067     1085.747        1.408        0.233      150.322       14.658        0.010      342.927       18.679      859.353
10/18/2014  18:29:00      122.312       61.590       28.731       64.037       49.448       43.587     4100.786     2445.130     1899.853        1.401        0.422      136.943       23.467        0.029      343.010       18.819      859.352
10/18/2014  18:30:00      123.982       81.809       26.483       49.434       35.096       31.495     2443.671     1231.763      991.914        1.372        0.233      148.540       19.684        0.018      342.937       18.697      859.350
10/18/2014  18:31:00      104.833       76.823       29.034       38.795       29.328       29.672     1505.080      860.133      880.441        1.049        0.162      129.968       19.674        0.023      342.888       18.612      859.356
10/18/2014  18:32:00      122.835       88.899       44.402       46.056       32.974       27.527     2121.170     1087.285      757.719        1.446        0.198      151.629       17.113        0.013      342.900       18.633      859.371
10/18/2014  18:33:00      122.471       91.514       21.287       60.056       38.995       38.361     3606.738     1520.615     1471.531        1.521        0.330      152.885       12.164        0.006      342.922       18.670      859.387
10/18/2014  18:34:00      127.869       83.765       21.568       64.977       47.187       41.309     4222.044     2226.588     1706.442        1.599        0.408      152.863       31.010        0.041      342.849       18.545      859.395
10/18/2014  18:35:00      137.724       88.953       34.379       43.889       38.688       33.366     1926.234     1496.792     1113.317        1.630        0.227      163.952        6.365        0.002      342.855       18.556      859.398
10/18/2014  18:36:00      104.543       71.084       26.545       51.080       43.362       31.030     2609.189     1880.227      962.877        1.107        0.273      126.421       18.147        0.021      342.809       18.479      859.413
10/18/2014  18:37:00      161.112      102.067       37.438       39.633       30.821       34.242     1570.782      949.904     1172.546        2.073        0.185      190.722       19.160        0.010      342.923       18.671      859.421
10/18/2014  18:38:00       90.268       67.569       20.174       49.249       32.119       36.843     2425.444     1031.624     1357.397        0.897        0.241      112.756       22.855        0.041      342.766       18.407      859.428
10/18/2014  18:39:00       90.606       55.216       25.149       38.980       22.976       32.593     1519.414      527.899     1062.297        0.750        0.155      106.105       24.307        0.052      342.602       18.127      859.439
10/18/2014  18:40:00      102.786       71.721       20.677       42.555       29.056       32.233     1810.922      844.233     1038.975        0.991        0.185      125.335       20.484        0.027      342.785       18.438      859.445
10/18/2014  18:41:00      100.884       63.676       33.728       37.724       23.439       26.828     1423.092      549.402      719.746        0.903        0.135      119.299       20.107        0.028      342.797       18.459      859.451
10/18/2014  18:42:00       78.951       54.990       16.324       33.954       29.380       30.659     1152.853      863.183      939.965        0.624        0.148       96.215       23.377        0.059      342.642       18.195      859.471
10/18/2014  18:43:00       42.752       59.042        9.539       32.753       27.701       21.432     1072.740      767.329      459.334        0.385        0.115       72.895       15.146        0.043      342.682       18.263      859.478
10/18/2014  18:44:00       38.803       62.100       -0.992       29.632       34.712       26.700      878.048     1204.950      712.889        0.408        0.140       73.226       23.374        0.102      342.686       18.268      859.492
10/18/2014  18:45:00       80.266       73.561       14.380       47.727       36.191       34.828     2277.910     1309.764     1212.957        0.843        0.240      108.875       28.137        0.067      342.615       18.149      859.502
10/18/2014  18:46:00       87.608       69.226       16.760       40.827       32.723       31.370     1666.862     1070.806      984.090        0.823        0.186      111.657       24.652        0.049      342.679       18.258      859.509
10/18/2014  18:47:00       69.164       85.800        2.093       49.046       42.359       32.793     2405.486     1794.261     1075.373        0.871        0.264      110.206       28.586        0.067      342.721       18.328      859.513
10/18/2014  18:48:00      114.440       83.196        8.030       65.335       39.730       37.059     4268.607     1578.450     1373.344        1.365        0.361      141.485       20.972        0.022      342.766       18.404      859.516
10/18/2014  18:49:00      108.019       93.805        9.504       51.813       37.544       34.676     2684.566     1409.517     1202.448        1.293        0.265      143.064       23.982        0.028      342.738       18.358      859.526
10/18/2014  18:50:00       70.144       72.774       10.396       46.173       35.504       35.511     2131.980     1260.535     1261.032        0.749        0.233      101.075       27.085        0.072      342.677       18.253      859.534
10/18/2014  18:51:00       58.543       86.980       -3.940       53.947       55.095       44.557     2910.254     3035.457     1985.339        0.947        0.397      104.846       38.183        0.133      342.732       18.348      859.540
10/18/2014  18:52:00       68.439       68.246        9.864       42.683       33.428       26.486     1821.828     1117.419      701.488        0.654        0.182       96.650       22.370        0.054      342.634       18.181      859.547
10/18/2014  18:53:00       89.025       60.139       15.201       44.992       29.338       21.716     2024.273      860.695      471.587        0.756        0.168      107.435       14.689        0.019      342.423       17.821      859.566
10/18/2014  18:54:00      108.545       82.592       25.083       33.409       36.335       26.281     1116.134     1320.260      690.716        1.118        0.156      136.395       13.343        0.010      342.629       18.172      859.576
10/18/2014  18:55:00       92.176       65.970       21.168       30.357       27.119       27.012      921.558      735.431      729.654        0.784        0.119      113.351       14.223        0.016      342.491       17.938      859.584
10/18/2014  18:56:00       78.639       56.055       19.562       34.229       19.997       22.798     1171.592      399.872      519.732        0.590        0.105       96.573       12.450        0.017      342.623       18.163      859.587
10/18/2014  18:57:00       34.400       39.158       12.111       29.838       24.285       25.102      890.320      589.750      630.104        0.249        0.106       52.123       19.152        0.135      342.585       18.098      859.614
10/18/2014  18:58:00       14.816       85.023       -6.314       18.942       27.797       17.870      358.784      772.647      319.333        0.447        0.073       86.304       16.719        0.038      342.685       18.268      859.628
10/18/2014  18:59:00       23.182       71.970       -1.092       29.628       25.374       19.028      877.807      643.861      362.058        0.380        0.094       75.611       17.243        0.052      342.678       18.255      859.638
10/18/2014  19:00:00       23.938       58.997       -5.577       20.809       23.110       18.814      433.014      534.095      353.961        0.270        0.066       63.669       13.058        0.042      342.614       18.147      859.648
10/18/2014  19:01:00       10.876       70.463        0.209       27.142       53.012       14.997      736.697     2810.289      224.912        0.443        0.189       71.297       14.913        0.044      342.644       18.197      859.656
10/18/2014  19:02:00       15.331       61.915       -1.819       46.532       41.965       28.448     2165.269     1761.032      809.293        0.440        0.237       63.785       29.717        0.217      342.671       18.244      859.659
10/18/2014  19:03:00       28.796       59.728       -0.786       19.735       33.550       19.981      389.462     1125.589      399.253        0.316        0.096       66.307       19.255        0.084      342.480       17.919      859.665
10/18/2014  19:04:00       27.657      104.136       -8.985       27.903       50.943       19.311      778.556     2595.171      372.904        0.772        0.187      107.746       24.653        0.052      342.665       18.235      859.677
10/18/2014  19:05:00       24.222      119.684       -9.216       46.394       73.425       36.208     2152.400     5391.268     1311.051        1.192        0.443      122.110       41.757        0.117      342.752       18.383      859.687
10/18/2014  19:06:00       34.078      123.925       -9.298       28.212       58.535       36.254      795.897     3426.312     1314.348        1.107        0.277      128.525       36.095        0.079      342.722       18.329      859.702
10/18/2014  19:07:00       62.433       78.394        7.975       59.186       53.491       37.680     3503.034     2861.288     1419.804        0.894        0.389      100.217       35.254        0.124      342.819       18.494      859.717
10/18/2014  19:08:00       24.472      108.254       -7.966       29.219       39.345       29.603      853.749     1548.010      876.342        0.783        0.164      110.985       25.280        0.052      342.729       18.343      859.725
10/18/2014  19:09:00       41.501       82.652       -5.138       47.868       43.289       31.394     2291.365     1873.953      985.569        0.686        0.258       92.486       20.833        0.051      342.723       18.332      859.734
10/18/2014  19:10:00       16.391       71.156        7.740       27.033       43.465       27.521      730.808     1889.198      757.419        0.438        0.169       73.020       26.452        0.131      342.645       18.199      859.746
10/18/2014  19:11:00       23.332       81.188       -6.978       29.175       42.982       27.554      851.166     1847.417      759.216        0.532        0.173       84.474       27.841        0.109      342.668       18.239      859.744
10/18/2014  19:12:00        2.533      131.419      -17.685       17.585       18.181        9.096      309.218      330.548       82.737        0.916        0.036      131.444        7.787        0.004      342.766       18.406      859.745
10/18/2014  19:13:00       11.678      121.170      -19.941       23.076       29.015       12.854      532.509      841.870      165.230        0.838        0.077      121.732        7.449        0.004      342.695       18.285      859.739
10/18/2014  19:14:00       26.003      127.253      -11.554       33.398       52.844       31.304     1115.454     2792.455      979.968        1.094        0.244      129.883       30.032        0.053      342.598       18.121      859.748
10/18/2014  19:15:00       53.061      121.006      -14.725       38.129       62.084       32.369     1453.808     3854.469     1047.776        1.201        0.318      132.128       33.637        0.065      342.648       18.204      859.744
10/18/2014  19:16:00       35.352       77.603       -2.150       41.975       51.820       35.397     1761.871     2685.358     1252.934        0.649        0.285       85.276       29.035        0.116      342.681       18.261      859.751
10/18/2014  19:17:00       16.550       41.459        7.069       28.111       34.684       29.466      790.234     1202.981      868.240        0.245        0.143       44.640       24.390        0.299      342.408       17.796      859.756
10/18/2014  19:18:00       61.185       59.099       15.025       57.451       43.289       40.971     3300.630     1873.953     1678.653        0.716        0.343       85.066       33.858        0.158      342.614       18.146      859.768
10/18/2014  19:19:00       62.435       86.843       -5.399       39.030       38.482       29.127     1523.356     1480.896      848.374        0.766        0.193      106.957       26.917        0.063      342.775       18.421      859.768
10/18/2014  19:20:00       12.099       83.260       -2.901       26.171       45.886       21.528      684.923     2105.480      463.443        0.517        0.163       84.134       23.067        0.075      342.704       18.301      859.785
10/18/2014  19:21:00       24.422      105.479      -14.244       24.185       21.062       16.819      584.928      443.614      282.865        0.662        0.066      108.269       11.901        0.012      342.691       18.279      859.790
10/18/2014  19:22:00        3.764      106.319      -11.884       16.481       14.476       10.562      271.640      209.545      111.546        0.603        0.030      106.386        5.683        0.003      342.709       18.308      859.801
10/18/2014  19:23:00      -21.933      112.978      -11.175       16.908       20.564       14.354      285.873      422.863      206.034        0.714        0.046      115.087        7.122        0.004      342.739       18.358      859.805
10/18/2014  19:24:00      -15.970       80.420      -11.796       32.026       29.733       13.016     1025.670      884.060      169.406        0.447        0.104       81.990       12.166        0.022      342.613       18.144      859.816
10/18/2014  19:25:00      -44.608       38.824       -6.740       11.614       20.706       10.668      134.885      428.759      113.812        0.211        0.034       59.137       10.142        0.029      342.514       17.978      859.815
10/18/2014  19:26:00      -38.315       -5.783       -7.974       15.024       14.717       12.253      225.715      216.590      150.137        0.108        0.030       38.749        6.385        0.027      342.339       17.678      859.819
10/18/2014  19:27:00      -40.818      -11.023       -5.520       14.503       13.868       10.808      210.325      192.324      116.808        0.117        0.026       42.280        8.876        0.044      342.056       17.198      859.827
10/18/2014  19:28:00      -23.313       -0.400       -3.067       19.105       10.970        7.966      364.987      120.345       63.452        0.055        0.027       23.316        9.874        0.179      341.926       16.977      859.819
10/18/2014  19:29:00      -42.195        7.733       -3.282       13.406        9.407       11.349      179.719       88.500      128.789        0.112        0.020       42.898        5.400        0.016      341.980       17.071      859.821
10/18/2014  19:30:00      -29.886       -4.265       -6.891       10.791       11.012        9.643      116.451      121.257       92.990        0.064        0.017       30.189        6.801        0.051      341.975       17.062      859.816
10/18/2014  19:31:00      -24.661       39.071        0.505       27.465       24.585       14.156      754.340      604.405      200.398        0.185        0.078       46.203        5.324        0.013      342.086       17.249      859.818
10/18/2014  19:32:00       -1.745       28.873        4.545       13.674       22.911        9.288      186.980      524.899       86.258        0.083        0.040       28.926        9.679        0.112      342.021       17.139      859.837
10/18/2014  19:33:00      -32.427      100.064      -16.935       13.595       22.997        9.733      184.824      528.855       94.731        0.608        0.040      105.187        8.151        0.006      342.400       17.783      859.843
10/18/2014  19:34:00      -52.950       46.748       -5.679       22.712       38.983       15.446      515.826     1519.684      238.593        0.365        0.114       70.633       12.774        0.033      342.079       17.238      859.844
10/18/2014  19:35:00      -40.434        6.206       -6.502       14.011       20.902       12.072      196.307      436.914      145.726        0.125        0.039       40.908        9.794        0.057      341.959       17.034      859.863
10/18/2014  19:36:00      -64.853      -16.321      -11.939       14.106       12.677       13.132      198.966      160.714      172.442        0.257        0.027       66.875        7.076        0.011      341.604       16.434      859.872
10/18/2014  19:37:00      -60.771      -19.737      -19.470       19.843       14.639       15.844      393.757      214.313      251.024        0.266        0.043       63.896        9.730        0.023      341.679       16.558      859.879
10/18/2014  19:38:00      -35.457       -0.256       -6.279       13.451       11.133       12.319      180.917      123.953      151.765        0.088        0.023       35.458        8.088        0.052      341.616       16.452      859.891
10/18/2014  19:39:00      -45.941       -7.813       -4.368       15.668       10.089       10.473      245.479      101.796      109.693        0.132        0.023       46.600        7.493        0.026      341.524       16.294      859.900
10/18/2014  19:40:00      -61.038        2.432      -11.451       24.783       18.098       12.848      614.177      327.531      165.061        0.248        0.055       61.087       12.685        0.043      341.468       16.200      859.922
10/18/2014  19:41:00      -73.039        2.602      -19.122       16.985       21.887        9.667      288.495      479.045       93.459        0.328        0.043       73.086        5.691        0.006      341.467       16.200      859.928
10/18/2014  19:42:00      -58.024        4.263      -15.485       14.546       17.238       11.070      211.598      297.139      122.551        0.213        0.032       58.181        7.859        0.018      341.440       16.153      859.942
10/18/2014  19:43:00      -75.862      -10.473      -11.598       12.081       14.838       12.684      145.946      220.175      160.880        0.326        0.026       76.582       10.064        0.017      341.415       16.111      859.955
10/18/2014  19:44:00      -66.760        1.179       -9.493       12.542       17.652        9.715      157.313      311.601       94.380        0.256        0.028       66.770        8.153        0.015      341.339       15.983      859.957
10/18/2014  19:45:00      -69.518       -4.939      -14.968       13.066       13.727       11.351      170.726      188.441      128.852        0.278        0.024       69.693        6.323        0.008      341.337       15.980      859.975
10/18/2014  19:46:00      -75.966        5.807      -15.420       13.222       14.533        8.805      174.812      211.207       77.524        0.325        0.023       76.188        5.928        0.006      341.255       15.843      859.980
10/18/2014  19:47:00      -69.464       15.088      -10.653       14.958       22.801       11.873      223.733      519.888      140.964        0.303        0.044       71.084        3.995        0.003      341.499       16.253      859.990
10/18/2014  19:48:00      -48.021       22.141       -4.669       19.720       24.183       16.210      388.877      584.794      262.772        0.203        0.062       52.879       15.365        0.084      341.608       16.439      860.002
10/18/2014  19:49:00      -56.142       -8.311       -5.103       13.254       12.937       12.983      175.656      167.375      168.555        0.188        0.026       56.754        8.723        0.024      341.394       16.076      860.010
10/18/2014  19:50:00      -67.265      -18.042      -12.523       15.205       16.623       13.245      231.188      276.318      175.417        0.284        0.034       69.642        8.283        0.014      341.240       15.815      860.030
10/18/2014  19:51:00      -77.092      -16.449      -18.551       18.320       16.860       13.447      335.635      284.251      180.810        0.368        0.040       78.827        8.582        0.012      341.075       15.537      860.041
10/18/2014  19:52:00      -69.832      -17.375      -11.659       18.986       25.851       15.292      360.480      668.270      233.855        0.329        0.063       71.961        8.011        0.012      341.107       15.591      860.055
10/18/2014  19:53:00      -64.531      -18.353      -11.058       22.664       20.567       14.913      513.658      423.019      222.404        0.289        0.058       67.090       10.933        0.027      341.099       15.577      860.066
10/18/2014  19:54:00      -61.597      -24.414       -9.691       22.666       18.694       15.059      513.731      349.451      226.782        0.279        0.054       66.259        6.106        0.008      341.149       15.663      860.070
10/18/2014  19:55:00      -80.162      -17.607       -8.618       27.636       19.151       11.802      763.723      366.748      139.288        0.404        0.063       82.072       10.086        0.015      341.113       15.601      860.075
10/18/2014  19:56:00      -96.281       -0.690      -13.501       30.328       20.783       15.642      919.809      431.953      244.682        0.552        0.080       96.283       12.399        0.017      341.097       15.573      860.073
10/18/2014  19:57:00      -88.039       -3.643      -15.732       33.732       19.923       15.126     1137.837      396.932      228.806        0.489        0.088       88.114       12.343        0.020      341.157       15.675      860.083
10/18/2014  19:58:00      -72.253       -4.364      -12.614       19.562       19.618       12.370      382.689      384.849      153.021        0.316        0.046       72.385        7.098        0.010      341.151       15.666      860.088
10/18/2014  19:59:00      -88.892      -13.347      -13.342       18.603       15.329       12.639      346.061      234.990      159.757        0.450        0.037       89.888        8.568        0.009      341.013       15.431      860.100
10/18/2014  20:00:00      -84.551      -19.096      -16.151       23.471       18.224       13.136      550.876      332.105      172.551        0.441        0.053       86.680       12.533        0.021      341.043       15.482      860.097
10/18/2014  20:01:00      -88.327      -10.845      -16.766       21.866       14.631       13.038      478.112      214.077      169.986        0.453        0.043       88.991       10.355        0.014      341.059       15.509      860.103
10/18/2014  20:02:00      -76.226       -8.002      -10.431       21.631       17.309       14.686      467.886      299.612      215.685        0.348        0.049       76.645       12.626        0.027      341.004       15.416      860.094
10/18/2014  20:03:00      -89.610      -10.413      -13.255       24.321       27.937       15.007      591.503      780.498      225.219        0.496        0.080       90.213       11.523        0.016      340.917       15.267      860.096
10/18/2014  20:04:00     -103.909       -1.281      -15.134       29.774       19.876       15.471      886.497      395.067      239.348        0.627        0.076      103.917        9.425        0.008      340.986       15.384      860.102
10/18/2014  20:05:00      -76.727      -13.759      -12.913       30.864       22.218       16.664      952.581      493.653      277.691        0.398        0.086       77.951       15.219        0.038      340.920       15.273      860.104
10/18/2014  20:06:00      -94.540        6.574      -14.024       43.787       20.505       19.130     1917.334      420.440      365.970        0.594        0.135       94.768       16.305        0.030      340.979       15.374      860.107
10/18/2014  20:07:00      -93.459       -2.133      -12.066       43.251       18.553       23.160     1870.666      344.222      536.397        0.582        0.138       93.483       20.563        0.048      340.851       15.158      860.108
10/18/2014  20:08:00      -71.977       -6.534      -14.617       26.404       19.157       19.770      697.147      367.004      390.847        0.345        0.073       72.273       14.486        0.040      340.882       15.208      860.115
10/18/2014  20:09:00      -82.164      -10.305      -11.616       28.521       19.596       16.207      813.429      383.997      262.682        0.423        0.073       82.808       15.311        0.034      340.878       15.203      860.106
10/18/2014  20:10:00      -78.477      -11.130      -15.159       31.116       16.682       15.840      968.186      278.304      250.919        0.400        0.075       79.262       14.562        0.034      340.876       15.199      860.115
10/18/2014  20:11:00      -95.371      -13.494       -7.905       33.879       30.157       15.474     1147.800      909.427      239.436        0.582        0.115       96.321       10.930        0.013      340.799       15.070      860.110
10/18/2014  20:12:00     -110.008       -1.372       -8.081       36.697       18.368       16.931     1346.669      337.384      286.668        0.707        0.099      110.016       11.276        0.011      340.741       14.971      860.126
10/18/2014  20:13:00      -93.447      -21.983       -6.307       25.355       26.772       16.172      642.879      716.746      261.523        0.544        0.081       95.998        9.715        0.010      340.692       14.889      860.129
10/18/2014  20:14:00      -90.664      -30.911       -8.674       28.663       33.961       17.276      821.553     1153.373      298.471        0.576        0.114       95.788       12.638        0.017      340.696       14.894      860.145
10/18/2014  20:15:00     -110.109      -27.792      -12.998       27.211       18.904       14.903      740.463      357.360      222.098        0.719        0.066      113.562       14.372        0.016      340.642       14.804      860.153
10/18/2014  20:16:00     -108.130      -26.631      -13.890       18.761       21.963       12.551      351.977      482.356      157.534        0.679        0.050      111.361        7.164        0.004      340.684       14.874      860.168
10/18/2014  20:17:00     -111.829      -20.036      -19.035       20.536       22.961       15.219      421.726      527.211      231.609        0.722        0.059      113.609       10.698        0.009      340.567       14.677      860.171
10/18/2014  20:18:00     -131.648        2.834      -25.556       29.562       21.198       18.220      873.902      449.344      331.967        0.982        0.083      131.678       13.784        0.011      340.568       14.679      860.189
10/18/2014  20:19:00     -152.646       11.927      -22.094       29.012       20.268       15.408      841.694      410.779      237.396        1.271        0.074      153.112        8.318        0.003      340.559       14.664      860.194
10/18/2014  20:20:00     -139.406        8.092      -21.581       23.856       21.866       16.857      569.093      478.117      284.175        1.065        0.067      139.641       11.250        0.006      340.594       14.722      860.207
10/18/2014  20:21:00     -116.814      -10.388      -22.406       21.766       20.212       13.598      473.757      408.505      184.919        0.766        0.053      117.275        9.492        0.007      340.533       14.619      860.210
10/18/2014  20:22:00     -125.046      -12.442      -21.964       20.243       20.725       14.647      409.786      429.514      214.527        0.866        0.053      125.663       11.908        0.009      340.470       14.512      860.222
10/18/2014  20:23:00     -114.737       -4.672      -16.205       23.184       27.669       15.838      537.511      765.550      250.829        0.750        0.078      114.832       10.519        0.008      340.478       14.526      860.218
10/18/2014  20:24:00     -101.112       -6.297      -16.369       32.979       26.904       17.005     1087.583      723.800      289.186        0.632        0.105      101.307       12.810        0.016      340.474       14.518      860.223
10/18/2014  20:25:00     -109.753      -15.660      -16.357       28.389       25.437       16.651      805.939      647.062      277.251        0.714        0.087      110.865       14.666        0.017      340.463       14.501      860.232
10/18/2014  20:26:00     -123.566       10.607      -17.203       37.404       29.372       22.571     1399.036      862.734      509.438        0.922        0.139      124.021       19.712        0.025      340.508       14.577      860.237
10/18/2014  20:27:00      -77.957        7.296      -18.361       31.511       32.253       21.631      992.934     1040.281      467.899        0.448        0.125       78.297       18.326        0.055      340.619       14.766      860.239
10/18/2014  20:28:00      -84.967       -4.058      -26.801       33.187       29.272       20.196     1101.346      856.843      407.889        0.516        0.118       85.064       19.859        0.055      340.650       14.817      860.240
10/18/2014  20:29:00      -73.480        0.783      -15.954       35.723       27.402       17.962     1276.123      750.862      322.632        0.400        0.117       73.485       17.482        0.057      340.535       14.623      860.243
10/18/2014  20:30:00     -102.137       27.984      -19.955       37.878       24.917       17.711     1434.756      620.859      313.681        0.699        0.118      105.901        3.656        0.001      340.663       14.840      860.251
10/18/2014  20:31:00      -70.291      -15.585       -3.320       41.164       32.935       20.207     1694.502     1084.744      408.308        0.419        0.159       71.998       21.585        0.090      340.520       14.597      860.267
10/18/2014  20:32:00      -30.065      -16.068        4.986       42.321       24.661       23.618     1791.055      608.166      557.833        0.207        0.148       34.089       26.027        0.583      340.421       14.429      860.272
10/18/2014  20:33:00      -59.082      -17.479       -0.237       33.737       36.401       26.241     1138.207     1325.062      688.567        0.347        0.158       61.614       20.117        0.107      340.427       14.440      860.276
10/18/2014  20:34:00     -123.252      -34.441      -16.534       31.818       32.726       20.644     1012.356     1071.003      426.167        0.958        0.125      127.973       15.048        0.014      340.362       14.329      860.273
10/18/2014  20:35:00     -110.234      -87.836      -10.983       41.093       24.463       23.663     1688.625      598.447      559.958        1.142        0.142      140.949       17.490        0.015      340.280       14.192      860.276
10/18/2014  20:36:00     -162.718      -52.820      -10.180       24.046       24.935       15.136      578.187      621.750      229.102        1.540        0.071      171.076       13.848        0.007      340.313       14.245      860.269
10/18/2014  20:37:00     -163.100      -60.755      -15.033       21.046       26.335       15.322      442.955      693.530      234.761        1.594        0.069      174.048        7.455        0.002      340.393       14.383      860.282
10/18/2014  20:38:00     -148.571      -52.026       -7.120       22.639       25.092       13.478      512.542      629.633      181.660        1.308        0.066      157.417       11.132        0.005      340.475       14.521      860.285
10/18/2014  20:39:00     -116.959      -38.280      -12.097       31.334       20.084       16.962      981.825      403.383      287.699        0.848        0.084      123.064       11.580        0.009      340.496       14.556      860.297
10/18/2014  20:40:00     -138.845      -20.732      -18.227       27.335       20.486       17.025      747.204      419.657      289.857        1.075        0.073      140.384       14.420        0.011      340.462       14.499      860.285
10/18/2014  20:41:00     -130.183      -18.720      -12.160       32.612       24.277       19.353     1063.554      589.362      374.534        0.974        0.101      131.522       17.676        0.018      340.352       14.312      860.285
10/18/2014  20:42:00     -118.432      -33.669      -11.257       32.684       28.833       17.437     1068.217      831.368      304.036        0.874        0.110      123.125       12.243        0.010      340.271       14.177      860.279
10/18/2014  20:43:00      -57.079      -38.620       -6.536       42.456       35.873       23.078     1802.482     1286.886      532.603        0.421        0.181       68.917       19.670        0.081      340.254       14.147      860.293
10/18/2014  20:44:00      -95.632      -41.028      -17.019       39.955       17.248       14.717     1596.363      297.487      216.599        0.661        0.106      104.062        9.096        0.008      340.258       14.155      860.306
10/18/2014  20:45:00     -130.455      -41.717      -14.215       19.636       22.345       15.482      385.572      499.293      239.680        1.004        0.056      136.963        9.465        0.005      340.211       14.074      860.308
10/18/2014  20:46:00     -129.961      -38.952      -12.687       26.109       22.300       14.076      681.668      497.298      198.136        0.997        0.069      135.672       11.652        0.007      340.199       14.054      860.306
10/18/2014  20:47:00     -153.260      -44.703      -18.289       18.210       16.652       14.228      331.588      277.274      202.449        1.332        0.041      159.647        7.731        0.002      340.229       14.105      860.298
10/18/2014  20:48:00     -139.719      -55.694      -16.242       11.463       13.396       10.849      131.395      179.456      117.697        1.166        0.021      150.410        6.097        0.002      340.238       14.121      860.293
10/18/2014  20:49:00     -137.436      -60.853       -8.550       15.369       16.797       14.433      236.215      282.127      208.310        1.170        0.036      150.305       10.932        0.005      340.260       14.157      860.290
10/18/2014  20:50:00     -106.094      -66.179       -0.516       27.145       20.308       19.352      736.871      412.410      374.518        0.858        0.076      125.042       15.808        0.016      340.284       14.199      860.294
10/18/2014  20:51:00     -129.104      -55.313      -12.114       28.294       20.381       13.402      800.522      415.368      179.616        1.063        0.070      140.455       13.218        0.009      340.333       14.280      860.296
10/18/2014  20:52:00     -107.861      -25.988       -7.534       27.115       21.073       18.484      735.235      444.089      341.649        0.694        0.076      110.948       18.257        0.027      340.276       14.185      860.288
10/18/2014  20:53:00     -121.711      -32.351      -10.369       35.897       26.093       17.166     1288.564      680.867      294.673        0.912        0.113      125.938       17.296        0.019      340.134       13.945      860.286
10/18/2014  20:54:00     -107.901      -73.409      -11.158       24.048       21.609       17.133      578.313      466.928      293.534        0.925        0.067      130.505       13.237        0.010      340.119       13.920      860.282
10/18/2014  20:55:00     -103.734      -65.405      -11.376       32.053       30.330       20.243     1027.393      919.913      409.782        0.876        0.118      122.632       11.616        0.009      340.072       13.841      860.290
10/18/2014  20:56:00     -154.363      -53.552       -6.159       28.417       24.112       18.535      807.535      581.403      343.548        1.423        0.087      163.388       15.232        0.009      339.995       13.711      860.288
10/18/2014  20:57:00     -136.251      -50.782       -9.839       25.032       21.084       16.422      626.619      444.522      269.691        1.129        0.067      145.407       11.870        0.007      340.019       13.751      860.298
10/18/2014  20:58:00     -121.427      -66.444       -7.366       34.426       27.880       16.982     1185.145      777.279      288.391        1.073        0.113      138.418        8.437        0.004      339.996       13.712      860.292
10/18/2014  20:59:00     -111.595      -69.185       -3.456       40.162       25.558       19.191     1613.005      653.195      368.276        0.994        0.132      131.302       14.413        0.012      339.920       13.583      860.290
10/18/2014  21:00:00     -136.929      -46.786       -2.621       42.748       31.224       24.785     1827.433      974.957      614.274        1.218        0.171      144.701       26.395        0.033      339.875       13.507      860.308
10/18/2014  21:01:00     -147.186      -19.610      -10.586       27.561       26.885       18.667      759.612      722.795      348.455        1.200        0.092      148.486       12.709        0.007      339.913       13.572      860.305
10/18/2014  21:02:00     -121.993      -62.940       -0.920       28.393       35.488       19.319      806.144     1259.365      373.225        1.064        0.122      137.273       15.598        0.013      339.880       13.517      860.305
10/18/2014  21:03:00      -75.323      -41.791       -5.652       42.609       28.523       23.771     1815.489      813.562      565.049        0.532        0.160       86.139       19.355        0.050      339.862       13.486      860.310
10/18/2014  21:04:00     -132.455      -66.228       -0.910       44.650       36.399       27.931     1993.604     1324.891      780.128        1.301        0.205      148.090       25.412        0.029      339.847       13.462      860.305
10/18/2014  21:05:00     -121.412      -48.111       -0.241       37.797       30.157       15.509     1428.640      909.425      240.534        0.982        0.129      130.597       10.373        0.006      339.823       13.422      860.318
10/18/2014  21:06:00      -42.151      -32.484        9.931       46.948       43.399       23.268     2204.084     1883.483      541.417        0.378        0.231       53.215       27.313        0.263      339.772       13.335      860.325
10/18/2014  21:07:00     -139.344      -47.135       -3.214       32.177       34.020       18.670     1035.340     1157.351      348.583        1.209        0.127      147.100       17.072        0.013      339.805       13.391      860.330
10/18/2014  21:08:00     -151.440      -46.434      -10.170       40.688       32.966       21.178     1655.520     1086.761      448.524        1.419        0.160      158.398       20.451        0.017      339.843       13.456      860.331
10/18/2014  21:09:00     -145.123      -51.438       -7.714       45.663       33.710       21.340     2085.091     1136.363      455.385        1.372        0.184      153.969       17.747        0.013      339.814       13.407      860.326
10/18/2014  21:10:00     -105.977      -35.335       -5.725       43.250       40.922       22.012     1870.580     1674.600      484.550        0.827        0.201      111.713       17.958        0.026      339.779       13.347      860.345
10/18/2014  21:11:00      -28.530      -12.218        6.882       45.139       26.997       22.377     2037.515      728.831      500.730        0.214        0.163       31.036       23.657        0.581      339.725       13.257      860.357
10/18/2014  21:12:00      -54.354      -24.850        5.244       39.998       33.191       21.402     1599.869     1101.625      458.028        0.338        0.158       59.765       14.767        0.061      339.819       13.414      860.369
10/18/2014  21:13:00     -111.705      -47.675       -2.260       23.720       24.709       14.356      562.651      610.531      206.082        0.807        0.069      121.453       10.751        0.008      339.836       13.443      860.374
10/18/2014  21:14:00     -122.898      -37.889       -7.058       24.759       31.978       14.315      613.013     1022.617      204.917        0.921        0.092      128.606       11.148        0.008      339.825       13.425      860.368
10/18/2014  21:15:00     -144.399      -46.087      -12.404       28.446       26.243       18.220      809.185      688.683      331.982        1.248        0.091      151.575       14.232        0.009      339.781       13.350      860.359
10/18/2014  21:16:00     -146.820      -28.908      -12.785       38.614       27.048       17.079     1491.012      731.567      291.705        1.253        0.126      149.638       20.048        0.018      339.768       13.329      860.358
10/18/2014  21:17:00     -106.391      -27.886       -0.380       35.590       48.680       21.075     1266.677     2369.713      444.147        0.809        0.204      109.985       19.181        0.030      339.730       13.264      860.345
10/18/2014  21:18:00     -132.552       -7.960      -17.416       47.708       41.256       25.890     2276.088     1702.047      670.317        1.129        0.232      132.791       21.580        0.026      339.691       13.197      860.343
10/18/2014  21:19:00      -77.961        8.782       -5.874       65.659       33.289       25.413     4311.136     1108.149      645.843        0.613        0.303       78.454       23.805        0.092      339.684       13.186      860.347
10/18/2014  21:20:00      -50.598       -0.563        1.819       40.312       40.136       28.359     1625.022     1610.914      804.257        0.330        0.202       50.601       24.872        0.242      339.612       13.066      860.344
10/18/2014  21:21:00      -48.990       -2.758       10.547       35.999       45.106       28.346     1295.924     2034.562      803.502        0.333        0.207       49.068       25.325        0.266      339.681       13.181      860.357
10/18/2014  21:22:00      -53.614        1.956        7.676       49.705       31.054       23.469     2470.597      964.356      550.774        0.346        0.199       53.650       24.160        0.203      339.613       13.066      860.357
10/18/2014  21:23:00      -66.327      -18.354        2.240       48.244       44.885       27.818     2327.446     2014.663      773.864        0.493        0.256       68.820       28.725        0.174      339.602       13.046      860.350
10/18/2014  21:24:00      -86.811      -47.688      -16.288       52.374       37.241       33.137     2743.050     1386.871     1098.036        0.765        0.261       99.048       30.329        0.094      339.614       13.069      860.341
10/18/2014  21:25:00      -89.111      -29.588      -12.874       42.355       35.301       27.581     1793.987     1246.185      760.700        0.639        0.190       93.895       18.468        0.039      339.607       13.057      860.324
10/18/2014  21:26:00      -79.121      -27.547       -8.503       64.319       32.902       27.829     4136.989     1082.544      774.466        0.654        0.300       83.780       28.844        0.119      339.595       13.035      860.310
10/18/2014  21:27:00      -82.072      -18.317       -6.603       25.062       28.731       21.855      628.100      825.495      477.649        0.452        0.097       84.091       11.136        0.018      339.678       13.175      860.301
10/18/2014  21:28:00      -73.109       -7.298      -18.344       29.898       20.051       17.172      893.862      402.049      294.891        0.366        0.080       73.472        6.478        0.008      339.712       13.234      860.293
10/18/2014  21:29:00      -43.023      -12.597       -8.926       25.350       23.571       16.146      642.605      555.606      260.704        0.177        0.073       44.829       12.365        0.076      339.757       13.311      860.283
10/18/2014  21:30:00      -32.379      -15.036       -8.067       18.297       14.950       14.690      334.762      223.515      215.783        0.106        0.039       35.700        9.031        0.064      339.780       13.350      860.282
10/18/2014  21:31:00      -71.027      -32.820      -15.971       24.219       18.206       15.816      586.546      331.464      250.142        0.377        0.058       78.243        8.987        0.013      339.784       13.354      860.274
10/18/2014  21:32:00      -94.257      -41.592      -28.090       21.017       23.898       15.934      441.734      571.118      253.886        0.633        0.063      103.025        9.258        0.008      339.806       13.394      860.262
10/18/2014  21:33:00     -104.075      -30.165      -18.485       14.747       22.220       13.875      217.477      493.750      192.528        0.649        0.045      108.358       11.234        0.011      339.721       13.248      860.260
10/18/2014  21:34:00     -115.225      -41.663      -18.913       23.018       24.424       16.363      529.834      596.543      267.740        0.838        0.070      122.526       14.364        0.014      339.707       13.224      860.257
10/18/2014  21:35:00      -78.404      -52.461       -9.139       31.247       23.445       16.421      976.406      549.684      269.661        0.539        0.090       94.337        9.622        0.010      339.631       13.097      860.259
10/18/2014  21:36:00      -99.157      -61.973       -7.736       31.409       32.143       19.379      986.537     1033.172      375.530        0.806        0.120      116.931       14.697        0.016      339.579       13.010      860.286
10/18/2014  21:37:00      -93.478      -42.553       -3.995       30.943       27.975       20.458      957.458      782.581      418.521        0.636        0.108      102.708        9.245        0.008      339.545       12.951      860.303
10/18/2014  21:38:00     -100.184      -36.775       -8.218       20.556       20.345       15.639      422.532      413.939      244.581        0.627        0.054      106.720        8.050        0.006      339.533       12.930      860.309
10/18/2014  21:39:00     -126.820      -20.144       -7.396       26.776       18.122       17.863      716.980      328.401      319.099        0.895        0.068      128.410       11.698        0.008      339.559       12.977      860.314
10/18/2014  21:40:00     -128.418      -47.805      -16.565       22.761       21.555       18.381      518.076      464.635      337.875        1.019        0.066      137.027       16.223        0.014      339.573       12.996      860.312
10/18/2014  21:41:00     -133.991      -37.561      -10.558       28.923       25.758       18.873      836.513      663.494      356.206        1.067        0.093      139.156       12.576        0.008      339.579       13.008      860.306
10/18/2014  21:42:00     -119.153      -26.659      -10.271       41.795       41.721       23.723     1746.845     1740.665      562.782        0.953        0.203      122.099       23.051        0.036      339.465       12.816      860.310
10/18/2014  21:43:00     -106.236      -18.572       -8.012       31.750       22.815       22.325     1008.033      520.510      498.396        0.686        0.101      107.847       19.836        0.034      339.486       12.851      860.322
10/18/2014  21:44:00     -100.312      -30.440      -10.885       24.394       22.825       19.826      595.045      520.964      393.053        0.631        0.075      104.829       13.365        0.016      339.466       12.819      860.319
10/18/2014  21:45:00      -93.686      -51.480      -11.000       33.970       39.811       18.332     1153.977     1584.882      336.073        0.731        0.154      106.899       14.298        0.018      339.443       12.780      860.321
10/18/2014  21:46:00      -97.719      -67.901      -17.886       32.818       29.566       18.657     1077.049      874.150      348.070        0.839        0.115      118.994        8.063        0.005      339.450       12.791      860.322
10/18/2014  21:47:00     -113.063      -44.053      -13.495       35.740       30.529       20.756     1277.347      932.034      430.812        0.877        0.132      121.342       16.616        0.019      339.382       12.677      860.313
10/18/2014  21:48:00      -77.921      -47.801       -7.253       42.778       33.580       26.808     1829.993     1127.593      718.677        0.604        0.184       91.414       21.928        0.058      339.392       12.696      860.316
10/18/2014  21:49:00      -33.347      -27.250       12.260       46.178       26.663       24.833     2132.417      710.901      616.676        0.273        0.173       43.065       25.623        0.354      339.283       12.510      860.328
10/18/2014  21:50:00      -46.611      -29.234       -3.697       44.285       45.874       25.934     1961.191     2104.430      672.573        0.389        0.237       55.020       27.621        0.252      339.349       12.621      860.333
10/18/2014  21:51:00      -41.044      -26.304      -13.692       46.469       30.863       23.649     2159.410      952.549      559.296        0.312        0.184       48.750       16.705        0.117      339.367       12.652      860.347
10/18/2014  21:52:00      -91.798      -48.248      -11.684       48.403       37.563       23.953     2342.881     1410.991      573.766        0.761        0.216      103.705       24.182        0.054      339.323       12.576      860.359
10/18/2014  21:53:00     -138.652      -27.382      -19.790       33.323       33.786       20.134     1110.413     1141.524      405.369        1.151        0.133      141.329       10.881        0.006      339.319       12.569      860.356
10/18/2014  21:54:00      -50.827      -29.510       -9.395       37.772       27.096       24.144     1426.742      734.193      582.910        0.314        0.137       58.773       15.782        0.072      339.285       12.513      860.362
10/18/2014  21:55:00       16.864      -45.423        2.565       33.165       27.435       23.548     1099.935      752.654      554.494        0.238        0.120       48.452       18.295        0.143      339.259       12.470      860.377
10/18/2014  21:56:00        1.148       -9.871       -2.174       23.788       24.053       17.795      565.864      578.552      316.659        0.078        0.073        9.937       11.442        1.326      339.225       12.411      860.365
10/18/2014  21:57:00      -36.826      -44.398       -0.537       38.392       38.415       23.515     1473.909     1475.707      552.968        0.341        0.175       57.683       24.348        0.178      339.280       12.506      860.367
10/18/2014  21:58:00      -94.184      -50.848       -1.882       33.740       25.816       20.385     1138.381      666.470      415.563        0.684        0.111      107.033       18.091        0.029      339.303       12.544      860.362
10/18/2014  21:59:00     -124.773      -35.432       -7.634       24.824       26.792       17.419      616.223      717.786      303.425        0.926        0.082      129.706       13.744        0.011      339.252       12.456      860.360
10/18/2014  22:00:00      -85.904      -39.414       -0.250       18.612       23.951       16.292      346.421      573.670      265.437        0.506        0.059       94.514       13.024        0.019      339.314       12.561      860.366
10/18/2014  22:01:00      -89.565      -51.423       -2.546       27.483       25.632       21.600      755.317      656.981      466.559        0.628        0.094      103.277       15.916        0.024      339.355       12.633      860.369
10/18/2014  22:02:00      -54.596      -38.485       -1.679       37.402       30.983       18.777     1398.880      959.922      352.587        0.359        0.136       66.797       17.037        0.065      339.302       12.542      860.387
10/18/2014  22:03:00      -68.160      -65.795        3.572       38.563       34.097       21.707     1487.103     1162.590      471.188        0.605        0.156       94.735       25.386        0.072      339.288       12.519      860.402
10/18/2014  22:04:00      -72.966      -59.483       -4.057       26.523       22.433       17.441      703.478      503.260      304.186        0.519        0.076       94.140       11.382        0.015      339.295       12.530      860.415
10/18/2014  22:05:00      -71.367      -38.402        0.077       25.058       39.027       18.094      627.883     1523.107      327.393        0.452        0.124       81.043       17.104        0.045      339.365       12.649      860.440
10/18/2014  22:06:00      -93.170      -97.240       -7.952       38.792       29.037       20.673     1504.785      843.128      427.366        1.049        0.139      134.671       20.620        0.023      339.304       12.544      860.454
10/18/2014  22:07:00     -122.548      -68.287      -20.017       23.208       31.492       20.899      538.614      991.743      436.785        1.102        0.098      140.289       13.705        0.010      339.253       12.458      860.447
10/18/2014  22:08:00      -95.953      -68.345       -3.708       34.317       28.316       21.414     1177.666      801.777      458.555        0.816        0.122      117.805       21.353        0.033      339.190       12.352      860.448
10/18/2014  22:09:00     -114.180      -66.098       -5.076       38.961       30.325       21.070     1517.998      919.624      443.951        1.016        0.144      131.932       23.661        0.032      339.175       12.327      860.449
10/18/2014  22:10:00      -88.854      -79.949       -0.861       43.292       24.842       19.781     1874.193      617.108      391.273        0.858        0.144      119.528       12.433        0.011      339.132       12.257      860.439
10/18/2014  22:11:00      -87.643      -69.066       -2.708       46.020       34.610       28.462     2117.826     1197.857      810.079        0.829        0.206      111.586       24.771        0.049      339.129       12.251      860.444
10/18/2014  22:12:00     -110.948      -57.570       -4.173       34.867       35.482       23.355     1215.704     1258.949      545.444        0.933        0.151      124.995       16.731        0.018      339.164       12.309      860.443
10/18/2014  22:13:00     -127.523      -58.187       -1.882       34.230       26.508       21.903     1171.696      702.685      479.742        1.100        0.118      140.170       16.663        0.014      339.102       12.207      860.432
10/18/2014  22:14:00      -98.614      -74.000        2.125       49.162       40.147       23.575     2416.867     1611.753      555.790        0.989        0.229      123.291       25.382        0.042      339.059       12.134      860.441
10/18/2014  22:15:00      -86.056      -62.803       -5.113       40.524       28.540       23.828     1642.176      814.530      567.778        0.720        0.151      106.536       19.146        0.032      339.055       12.125      860.450
10/18/2014  22:16:00      -92.182      -72.853       -9.143       35.723       45.880       18.092     1276.153     2104.931      327.303        0.880        0.185      117.495       14.098        0.014      339.040       12.101      860.443
10/18/2014  22:17:00     -122.327      -58.941       -7.678       31.589       19.867       14.851      997.895      394.690      220.551        1.005        0.081      135.786       15.487        0.013      339.055       12.126      860.437
10/18/2014  22:18:00     -102.090      -48.393       -8.446       39.285       19.699       14.167     1543.326      388.042      200.700        0.748        0.107      112.979       12.685        0.013      339.063       12.139      860.425
10/18/2014  22:19:00     -104.762      -30.713       -5.837       29.186       25.248       16.875      851.817      637.477      284.779        0.686        0.089      109.171       16.725        0.023      338.979       11.998      860.406
10/18/2014  22:20:00     -105.943       -2.915       -9.243       33.637       18.622       17.909     1131.421      346.797      320.737        0.656        0.090      105.983       15.082        0.020      338.843       11.769      860.409
10/18/2014  22:21:00     -110.204      -22.781       -2.788       23.286       18.949       15.953      542.221      359.080      254.486        0.691        0.058      112.534        9.911        0.008      338.833       11.753      860.421
10/18/2014  22:22:00     -117.682      -26.380       -8.943       26.791       35.612       16.299      717.770     1268.211      265.669        0.844        0.113      120.603       11.497        0.009      338.883       11.837      860.420
10/18/2014  22:23:00     -110.198      -48.787        0.679       26.630       26.409       14.858      709.147      697.441      220.764        0.808        0.081      120.515       10.841        0.008      338.916       11.893      860.431
10/18/2014  22:24:00      -91.470      -57.002        1.438       30.348       28.205       19.483      921.020      795.538      379.595        0.686        0.105      107.778       12.740        0.014      338.893       11.854      860.427
10/18/2014  22:25:00     -122.227      -33.821      -11.745       23.256       21.613       13.142      540.827      467.124      172.724        0.870        0.059      126.820        9.337        0.005      338.875       11.823      860.419
10/18/2014  22:26:00      -96.193      -44.705       -0.968       44.641       28.513       21.262     1992.780      812.982      452.062        0.725        0.163      106.073       24.427        0.053      338.821       11.732      860.428
10/18/2014  22:27:00     -122.074      -55.926      -10.067       29.940       23.518       14.949      896.380      553.074      223.469        0.990        0.084      134.275        9.418        0.005      338.889       11.847      860.425
10/18/2014  22:28:00     -145.026      -58.560       -7.595       31.375       24.627       18.537      984.412      606.467      343.631        1.323        0.097      156.403       13.177        0.007      338.930       11.916      860.417
10/18/2014  22:29:00     -131.452      -54.331      -12.582       22.504       23.755       16.274      506.411      564.292      264.832        1.086        0.067      142.237        8.123        0.003      338.912       11.886      860.418
10/18/2014  22:30:00      -82.622      -35.423       -3.102       44.404       32.394       19.936     1971.752     1049.364      397.464        0.575        0.171       89.895       23.197        0.067      338.870       11.814      860.412
10/18/2014  22:31:00      -72.869      -30.990        4.569       36.861       32.050       16.514     1358.722     1027.178      272.719        0.447        0.133       79.185       18.759        0.056      338.832       11.751      860.410
10/18/2014  22:32:00      -83.919      -54.890       -2.189       31.425       22.327       20.500      987.528      498.516      420.234        0.598        0.095      100.276       12.376        0.015      338.802       11.701      860.414
10/18/2014  22:33:00      -57.960      -37.668        2.016       38.206       22.046       19.359     1459.669      486.005      374.761        0.355        0.116       69.125       23.075        0.111      338.719       11.561      860.411
10/18/2014  22:34:00     -109.520      -58.851       -1.638       30.108       20.941       15.217      906.485      438.537      231.557        0.852        0.079      124.331       13.368        0.012      338.777       11.659      860.406
10/18/2014  22:35:00     -110.102      -61.582       -8.184       20.636       20.465       15.802      425.841      418.812      249.696        0.854        0.055      126.154       12.575        0.010      338.787       11.675      860.405
10/18/2014  22:36:00      -67.076      -52.796       -4.073       33.313       28.671       22.566     1109.764      822.017      509.233        0.487        0.122       85.362       19.846        0.054      338.831       11.750      860.414
10/18/2014  22:37:00      -84.023      -53.219       -4.619       23.976       19.747       16.619      574.830      389.942      276.203        0.558        0.062       99.459       11.491        0.013      338.935       11.924      860.423
10/18/2014  22:38:00      -87.981      -48.566       -6.379       30.771       18.305       14.072      946.867      335.059      198.034        0.581        0.074      100.496       14.030        0.019      338.890       11.847      860.421
10/18/2014  22:39:00      -66.782      -41.473       -2.237       48.155       22.567       15.846     2318.871      509.262      251.107        0.463        0.154       78.612       16.576        0.044      338.858       11.795      860.433
10/18/2014  22:40:00      -60.964      -35.526       -1.536       20.739       18.497       13.210      430.121      342.139      174.496        0.296        0.047       70.560        9.788        0.019      338.810       11.714      860.441
10/18/2014  22:41:00     -106.811      -34.512      -15.071       24.269       10.058        8.737      588.975      101.162       76.340        0.680        0.038      112.248        5.750        0.003      338.820       11.731      860.441
10/18/2014  22:42:00     -116.440      -33.376      -11.479       29.294       21.484       15.592      858.121      461.563      243.107        0.818        0.078      121.129       14.871        0.015      338.854       11.788      860.437
10/18/2014  22:43:00      -87.099      -40.235        0.109       30.587       34.201       21.151      935.579     1169.720      447.386        0.588        0.128       95.943       20.522        0.046      338.791       11.682      860.444
10/18/2014  22:44:00     -147.887      -44.645       -4.096       33.290       27.861       19.803     1108.257      776.248      392.144        1.308        0.114      154.480       14.799        0.009      338.855       11.791      860.437
10/18/2014  22:45:00     -143.859      -52.915      -10.418       23.432       26.143       14.960      549.076      683.449      223.814        1.253        0.073      153.282       10.004        0.004      338.886       11.842      860.429
10/18/2014  22:46:00     -122.383      -61.569       -7.315       31.675       26.886       16.631     1003.326      722.883      276.595        1.041        0.100      136.998       10.403        0.006      338.919       11.898      860.444
10/18/2014  22:47:00     -149.320      -58.952       -2.692       28.979       22.278       17.560      839.794      496.315      308.355        1.371        0.082      160.536       10.875        0.005      338.933       11.922      860.440
10/18/2014  22:48:00     -132.212      -29.275       -7.550       27.885       31.456       18.457      777.559      989.485      340.643        1.025        0.105      135.414       13.478        0.010      338.861       11.800      860.431
10/18/2014  22:49:00     -111.035      -39.893       -6.077       25.643       30.559       16.627      657.566      933.856      276.461        0.791        0.093      117.984       12.171        0.011      338.814       11.721      860.422
10/18/2014  22:50:00     -102.220      -28.661       -2.633       42.082       27.851       17.714     1770.922      775.680      313.779        0.707        0.143      106.162       15.905        0.022      338.800       11.700      860.427
10/18/2014  22:51:00     -101.217      -38.863       -0.595       41.097       26.450       18.350     1689.003      699.599      336.720        0.724        0.136      108.422       18.529        0.029      338.750       11.614      860.420
10/18/2014  22:52:00      -94.112      -29.323        0.702       33.651       26.887       19.455     1132.405      722.934      378.482        0.598        0.112       98.574       18.188        0.034      338.757       11.626      860.412
10/18/2014  22:53:00      -99.116      -44.100       -4.370       31.227       24.340       20.168      975.136      592.446      406.766        0.688        0.099      108.484       18.641        0.030      338.717       11.558      860.406
10/18/2014  22:54:00     -114.217      -62.143      -10.986       20.467       21.581       17.761      418.894      465.758      315.443        0.911        0.060      130.029        9.495        0.005      338.737       11.591      860.392
10/18/2014  22:55:00     -132.059      -62.095      -10.525       18.671       15.248       14.902      348.598      232.510      222.062        1.110        0.040      145.929        6.481        0.002      338.661       11.466      860.383
10/18/2014  22:56:00     -130.898      -67.330      -17.670       16.699       13.861       11.455      278.842      192.116      131.212        1.129        0.030      147.200        7.287        0.002      338.623       11.399      860.373
10/18/2014  22:57:00     -132.729      -53.082      -12.864       19.257       14.942       12.231      370.840      223.266      149.602        1.067        0.037      142.950        7.619        0.003      338.560       11.295      860.377
10/18/2014  22:58:00     -109.044      -63.543      -14.424       20.629       20.129       13.551      425.544      405.173      183.631        0.858        0.051      126.207        3.230        0.001      338.600       11.361      860.375
10/18/2014  22:59:00      -92.169      -49.786      -10.873       22.580       21.169       16.226      509.838      448.121      263.293        0.616        0.061      104.756       12.887        0.015      338.606       11.371      860.365
10/18/2014  23:00:00      -93.909      -42.747       -4.076       22.547       24.052       15.357      508.378      578.492      235.852        0.599        0.066      103.180        9.029        0.008      338.588       11.341      860.352
10/18/2014  23:01:00      -98.053      -40.749       -7.139       30.659       28.075       16.455      939.999      788.210      270.758        0.666        0.100      106.183       14.961        0.020      338.487       11.171      860.351
10/18/2014  23:02:00      -92.619      -52.466       -6.612       33.864       25.378       18.644     1146.796      644.039      347.607        0.676        0.107      106.447       13.242        0.015      338.405       11.034      860.337
10/18/2014  23:03:00      -67.190      -54.503        2.876       41.124       34.505       20.798     1691.149     1190.561      432.542        0.540        0.166       86.516       19.228        0.049      338.407       11.037      860.319
10/18/2014  23:04:00      -94.068      -52.339        0.399       55.126       37.763       28.167     3038.846     1426.019      793.394        0.842        0.263      107.649       32.595        0.092      338.393       11.014      860.312
10/18/2014  23:05:00     -120.738      -43.592        3.091       37.873       29.932       17.680     1434.374      895.935      312.594        0.956        0.132      128.367       18.107        0.020      338.394       11.015      860.318
10/18/2014  23:06:00      -84.935      -13.951       -1.181       58.321       44.863       22.804     3401.297     2012.686      520.006        0.667        0.297       86.073       20.624        0.057      338.430       11.075      860.311
10/18/2014  23:07:00     -118.672      -25.164       -1.783       44.774       35.413       22.342     2004.749     1254.102      499.144        0.924        0.188      121.311       24.342        0.040      338.444       11.100      860.308
10/18/2014  23:08:00      -89.134        1.519        3.293       54.875       43.420       30.244     3011.280     1885.271      914.710        0.688        0.291       89.147       31.811        0.127      338.425       11.069      860.316
10/18/2014  23:09:00     -103.652      -10.871       -8.349       68.529       39.159       31.597     4696.211     1533.438      998.344        0.908        0.361      104.220       35.508        0.116      338.444       11.099      860.314
10/18/2014  23:10:00     -107.807      -33.490       -1.710       50.939       43.660       27.746     2594.812     1906.230      769.824        0.901        0.264      112.889       24.912        0.049      338.469       11.142      860.310
10/18/2014  23:11:00     -123.831      -31.847       -9.030       35.750       44.297       24.739     1278.070     1962.185      612.036        1.014        0.193      127.860       18.415        0.021      338.444       11.100      860.308
10/18/2014  23:12:00     -102.299      -39.886       -7.028       49.106       58.594       26.907     2411.436     3433.211      723.993        0.934        0.328      109.800       26.860        0.060      338.500       11.194      860.301
10/18/2014  23:13:00     -100.265      -24.327       -8.582       54.788       61.593       25.410     3001.680     3793.702      645.671        0.908        0.372      103.174       11.852        0.013      338.530       11.244      860.294
10/18/2014  23:14:00     -119.133       -8.113      -25.284       38.732       43.736       26.567     1500.144     1912.854      705.828        0.951        0.206      119.409       15.571        0.017      338.569       11.309      860.296
10/18/2014  23:15:00     -150.586        5.310      -19.599       68.684       41.185       31.913     4717.544     1696.223     1018.463        1.526        0.372      150.679       31.729        0.044      338.671       11.480      860.296
10/18/2014  23:16:00     -115.370       -6.943      -13.202       45.204       42.734       29.113     2043.410     1826.225      847.561        0.912        0.236      115.579       26.314        0.052      338.630       11.411      860.293
10/18/2014  23:17:00      -94.008      -23.965      -12.409       45.739       38.088       24.518     2092.015     1450.666      601.148        0.685        0.207       97.015       21.027        0.047      338.643       11.434      860.308
10/18/2014  23:18:00     -160.344       -2.364      -10.061       54.913       38.579       31.026     3015.473     1488.348      962.591        1.564        0.273      160.362       30.407        0.036      338.609       11.375      860.305
10/18/2014  23:19:00     -147.877      -15.541      -17.357       47.263       36.261       27.486     2233.768     1314.841      755.466        1.336        0.215      148.691       26.051        0.031      338.631       11.413      860.282
10/18/2014  23:20:00     -143.869       14.726      -14.931       50.871       37.805       26.692     2587.868     1429.187      712.470        1.293        0.236      144.621       24.542        0.029      338.567       11.305      860.269
10/18/2014  23:21:00     -134.391       40.831       -9.698       59.565       40.752       27.859     3547.996     1660.687      776.132        1.290        0.299      140.456       25.586        0.033      338.646       11.438      860.275
10/18/2014  23:22:00     -145.719       15.308      -24.459       38.487       37.941       26.793     1481.216     1439.540      717.866        1.285        0.182      146.521       18.585        0.016      338.744       11.603      860.270
10/18/2014  23:23:00      -67.312      -22.916        1.086       46.347       44.458       27.539     2148.033     1976.557      758.416        0.497        0.244       71.106       24.717        0.121      338.626       11.404      860.277
10/18/2014  23:24:00      -60.303      -11.059        2.376       27.284       26.222       18.268      744.443      687.579      333.737        0.276        0.088       61.309       14.060        0.053      338.642       11.430      860.282
10/18/2014  23:25:00      -88.707        5.931       -4.563       34.096       34.179       21.038     1162.539     1168.196      442.595        0.535        0.139       88.905       15.412        0.030      338.756       11.624      860.281
10/18/2014  23:26:00      -71.136       -1.969      -12.588       27.317       20.926       15.577      746.191      437.911      242.644        0.332        0.071       71.164       14.936        0.044      338.728       11.576      860.258
10/18/2014  23:27:00      -64.504      -16.503       -8.847       17.529       20.676       14.506      307.268      427.505      210.421        0.273        0.047       66.582        9.186        0.019      338.655       11.453      860.249
10/18/2014  23:28:00      -62.774      -14.776      -15.661       32.822       16.594       13.983     1077.314      275.356      195.512        0.298        0.077       64.489       13.391        0.043      338.627       11.408      860.243
10/18/2014  23:29:00      -65.401      -13.695       -2.290       33.859       30.901       21.335     1146.406      954.865      455.191        0.351        0.128       66.819       20.512        0.094      338.638       11.425      860.227
10/18/2014  23:30:00      -21.921       13.407      -13.980       22.870       12.289       13.365      523.037      151.009      178.615        0.085        0.043       25.696        9.296        0.131      338.650       11.447      860.217
10/18/2014  23:31:00       -2.114       -1.702       -2.249       12.247       13.041        8.735      149.995      170.055       76.304        0.020        0.020        2.714        3.932        2.099      338.628       11.408      860.210
10/18/2014  23:32:00       -8.917      -28.140        1.693       15.729        8.898       15.528      247.393       79.175      241.111        0.072        0.028       29.519       10.063        0.116      338.725       11.571      860.201
10/18/2014  23:33:00      -90.706      -31.808       -9.466       23.147       22.796       14.347      535.786      519.670      205.846        0.529        0.063       96.122        7.333        0.006      338.686       11.507      860.197
10/18/2014  23:34:00      -83.872      -22.888       -8.209       18.580       19.222       10.768      345.199      369.502      115.947        0.423        0.042       86.939        7.252        0.007      338.597       11.356      860.210
10/18/2014  23:35:00      -61.943      -45.091       -9.339       14.447       17.390       12.677      208.723      302.421      160.696        0.331        0.034       76.616        9.543        0.016      338.643       11.434      860.219
10/18/2014  23:36:00      -67.572      -31.675       -7.104       17.285       16.290        9.281      298.775      265.350       86.137        0.313        0.033       74.627        3.004        0.002      338.586       11.338      860.234
10/18/2014  23:37:00      -72.941      -50.764       -2.250       20.963       12.168       10.676      439.442      148.048      113.969        0.430        0.035       88.867        8.477        0.009      338.571       11.312      860.250
10/18/2014  23:38:00      -60.146      -55.990       -1.351       34.469       25.335       22.103     1188.103      641.848      488.548        0.454        0.116       82.173       13.293        0.026      338.608       11.376      860.263
10/18/2014  23:39:00      -35.398      -45.363        7.945       42.465       31.488       25.986     1803.284      991.520      675.252        0.342        0.174       57.540       26.466        0.212      338.612       11.383      860.267
10/18/2014  23:40:00      -55.890      -36.800       -0.712       44.436       19.677       19.169     1974.524      387.178      367.446        0.360        0.136       66.918       20.200        0.091      338.577       11.323      860.279
10/18/2014  23:41:00      -66.501      -57.385        5.527       33.617       40.711       24.595     1130.107     1657.362      604.907        0.557        0.170       87.838       16.498        0.035      338.459       11.125      860.290
10/18/2014  23:42:00     -113.449      -80.517       -3.088       39.357       47.576       26.863     1548.954     2263.455      721.624        1.195        0.227      139.117       24.975        0.032      338.315       10.882      860.285
10/18/2014  23:43:00     -126.343     -126.055      -14.384       47.687       43.465       31.103     2274.021     1889.194      967.397        1.859        0.257      178.473       20.476        0.013      338.232       10.741      860.278
10/18/2014  23:44:00     -142.884     -131.407      -12.838       50.141       42.770       27.993     2514.164     1829.268      783.580        2.149        0.256      194.122       22.587        0.014      338.145       10.597      860.269
10/18/2014  23:45:00     -125.051     -107.214       -6.784       62.078       54.996       32.386     3853.626     3024.517     1048.848        1.755        0.396      164.719       25.608        0.024      338.091       10.506      860.264
10/18/2014  23:46:00     -127.730     -112.317       -8.162       64.944       63.757       36.268     4217.739     4064.938     1315.360        1.930        0.480      170.089       37.107        0.048      338.064       10.459      860.265
10/18/2014  23:47:00     -108.926     -104.910       -9.477       66.268       49.622       32.040     4391.392     2462.378     1026.582        1.542        0.394      151.232       26.257        0.030      338.100       10.520      860.278
10/18/2014  23:48:00     -135.614     -120.917      -20.973       40.442       43.342       27.479     1635.548     1878.507      755.101        1.886        0.213      181.692       10.766        0.004      338.081       10.489      860.286
10/18/2014  23:49:00     -124.352     -105.957        0.457       47.750       46.207       25.093     2280.076     2135.114      629.639        1.587        0.252      163.372       19.976        0.015      338.090       10.504      860.286
10/18/2014  23:50:00     -107.857      -85.496        1.716       42.815       41.780       24.442     1833.158     1745.564      597.414        1.156        0.209      137.633       21.433        0.024      338.044       10.428      860.292
10/18/2014  23:51:00     -132.012      -82.804        0.137       45.597       33.537       26.414     2079.049     1124.730      697.686        1.409        0.195      155.832       24.151        0.024      338.034       10.411      860.297
10/18/2014  23:52:00     -126.055      -67.504        5.611       46.781       37.379       30.039     2188.457     1397.184      902.326        1.248        0.224      142.992       27.297        0.036      338.062       10.459      860.296
10/18/2014  23:53:00      -90.028      -65.072        3.472       62.789       30.974       23.629     3942.482      959.362      558.319        0.890        0.273      111.082       28.933        0.068      338.066       10.465      860.306
10/18/2014  23:54:00     -124.055      -92.930       -2.276       47.828       42.334       27.080     2287.556     1792.198      733.347        1.442        0.241      155.002       27.325        0.031      338.118       10.551      860.314
10/18/2014  23:55:00     -124.774      -86.940        1.671       39.832       29.051       26.382     1586.565      843.984      696.020        1.313        0.156      152.076       24.470        0.026      338.120       10.554      860.309
10/18/2014  23:56:00      -91.948      -55.901        2.551       40.633       34.046       24.197     1651.056     1159.148      585.480        0.749        0.170      107.608       21.602        0.040      338.125       10.565      860.297
10/18/2014  23:57:00     -104.497      -76.248       -7.460       25.819       27.450       16.124      666.646      753.504      259.975        0.923        0.084      129.358       10.965        0.007      338.196       10.683      860.298
10/18/2014  23:58:00      -50.385      -48.358        2.074       35.678       32.506       19.741     1272.929     1056.631      389.709        0.380        0.136       69.837       15.811        0.051      338.127       10.568      860.300
10/18/2014  23:59:00      -69.976      -40.439        4.479       36.411       24.613       17.799     1325.739      605.805      316.812        0.440        0.112       80.821       16.715        0.043      338.143       10.594      860.295
